[[[{"header":{"parameterUnit":"kt","parameterCategory":2,"dx":1,"dy":1,"la1":29.764190673828125,"la2":30.86408042907715,"lo1":-88.46762084960938,"lo2":-86.9344482421875,"nx":47,"ny":34,"refTime":"2022-10-07T00:00:00:Z","depth":"0","parameterNumber":2,"parameterNumberName":"U-component_of_CURRENTS"},"data":[-0.0892,-0.0854,-0.0758,-0.0561,-0.0368,-0.0326,-0.0502,-0.0683,-0.0715,-0.078,-0.0838,-0.0801,-0.0945,-0.1239,-0.1287,-0.1116,-0.0982,-0.0913,-0.0924,-0.0913,-0.078,-0.063,-0.0662,-0.0929,-0.1255,-0.1292,-0.1196,-0.1196,-0.1014,-0.0673,-0.0267,0.0043,0.016,0.023,0.0171,0.0139,0.0358,0.0689,0.1052,0.1372,0.1575,0.1644,0.1607,0.1479,0.1297,0.1111,0.0929,-0.1522,-0.157,-0.1426,-0.1212,-0.1004,-0.0865,-0.0886,-0.1004,-0.1148,-0.1121,-0.0865,-0.0828,-0.1089,-0.1292,-0.1244,-0.102,-0.0801,-0.0689,-0.0758,-0.094,-0.0929,-0.0726,-0.0705,-0.102,-0.1474,-0.1725,-0.1682,-0.1639,-0.1554,-0.1223,-0.0828,-0.0411,-0.0005,0.0246,0.0422,0.0577,0.0731,0.0929,0.1148,0.1361,0.1538,0.1628,0.1666,0.1644,0.1559,0.1463,0.1431,-0.1965,-0.2082,-0.1997,-0.1757,-0.1628,-0.1607,-0.1618,-0.1623,-0.1404,-0.0918,-0.0657,-0.0886,-0.1212,-0.1265,-0.1084,-0.0854,-0.0694,-0.0667,-0.0731,-0.086,-0.0902,-0.0812,-0.079,-0.0929,-0.1249,-0.1607,-0.1837,-0.1911,-0.1853,-0.165,-0.1367,-0.1095,-0.0742,-0.0133,0.0427,0.0662,0.0865,0.1169,0.1468,0.1709,0.1901,0.204,0.2141,0.221,0.2221,0.221,0.2178,-0.212,-0.2221,-0.228,-0.2248,-0.2141,-0.197,-0.1767,-0.1393,-0.0988,-0.086,-0.1052,-0.1255,-0.1217,-0.1073,-0.0886,-0.0742,-0.0715,-0.0758,-0.0785,-0.079,-0.0828,-0.087,-0.0844,-0.0796,-0.0908,-0.1127,-0.1383,-0.1666,-0.1853,-0.1901,-0.1692,-0.1372,-0.1153,-0.0945,-0.0395,0.0347,0.094,0.1367,0.1628,0.1858,0.2141,0.2381,0.2552,0.2659,0.2696,0.2659,0.2531,-0.1842,-0.2082,-0.204,-0.1943,-0.1831,-0.1692,-0.1538,-0.1431,-0.142,-0.1426,-0.1351,-0.1169,-0.0956,-0.0822,-0.0763,-0.0796,-0.0865,-0.0897,-0.0865,-0.0812,-0.0838,-0.0945,-0.0982,-0.0849,-0.0678,-0.0737,-0.0913,-0.1062,-0.1329,-0.166,-0.1858,-0.1778,-0.1393,-0.0993,-0.0785,-0.0486,0.0096,0.087,0.1479,0.1869,0.2205,0.2424,0.2584,0.2739,0.2808,0.2782,0.2696,-0.0849,-0.1303,-0.1751,-0.1885,-0.1815,-0.1709,-0.1607,-0.1511,-0.1377,-0.1175,-0.0982,-0.0844,-0.0801,-0.0844,-0.0913,-0.0982,-0.1004,-0.095,-0.0849,-0.0721,-0.0603,-0.0593,-0.0614,-0.0502,-0.0262,-0.0107,-0.0246,-0.0534,-0.0812,-0.1127,-0.1516,-0.1831,-0.1879,-0.15,-0.0892,-0.0619,-0.0545,-0.0262,0.0288,0.1111,0.1703,0.2029,0.2371,0.2627,0.2782,0.2846,0.283,-0.0582,-0.0689,-0.0801,-0.0908,-0.1025,-0.11,-0.1084,-0.0988,-0.0881,-0.0822,-0.0822,-0.087,-0.094,-0.102,-0.1073,-0.1062,-0.0998,-0.0897,-0.0774,-0.0635,-0.0481,-0.032,-0.0192,-0.0075,0.0048,0.0149,0.0208,0.0117,-0.0176,-0.0545,-0.0902,-0.1281,-0.166,-0.1778,-0.1447,-0.0849,-0.0384,-0.0395,-0.0395,-0.0027,0.0438,0.1089,0.1666,0.197,0.2242,0.2445,0.2531,-0.0646,-0.0673,-0.071,-0.0785,-0.0865,-0.0902,-0.0886,-0.0844,-0.0844,-0.0886,-0.0966,-0.1052,-0.1105,-0.1121,-0.11,-0.1036,-0.0929,-0.0801,-0.0673,-0.0545,-0.0395,-0.023,-0.0091,-0.0005,0.0037,0.0064,0.0069,0.0037,-0.0064,-0.0203,-0.0406,-0.0694,-0.1046,-0.1383,-0.1479,-0.1255,-0.079,-0.0128,0.0139,-0.0224,-0.0331,0.0149,0.0646,0.1004,0.1324,0.1522,0.1623,-0.1879,-0.1751,-0.142,-0.1111,-0.0961,-0.094,-0.0961,-0.0998,-0.1046,-0.1095,-0.1121,-0.1105,-0.1068,-0.1036,-0.1009,-0.0945,-0.0838,-0.0715,-0.0598,-0.0464,-0.0326,-0.0198,-0.0117,-0.0107,-0.0128,-0.0155,-0.0171,-0.0182,-0.0187,-0.0198,-0.0219,-0.0278,-0.0475,-0.0801,-0.1046,-0.1121,-0.1009,-0.0678,-0.0133,0.0464,0.0379,-0.0224,-0.0246,0.0262,0.0539,0.0555,0.0593,-0.2579,-0.2344,-0.1927,-0.1468,-0.1137,-0.1036,-0.1073,-0.1244,-0.1639,-0.2141,-0.2456,-0.2451,-0.204,-0.1426,-0.1025,-0.0865,-0.0747,-0.0625,-0.0502,-0.0379,-0.0272,-0.0208,-0.0208,-0.0256,-0.0315,-0.0352,-0.0352,-0.0315,-0.0251,-0.0208,-0.0203,-0.024,-0.0299,-0.0448,-0.0689,-0.0812,-0.0812,-0.0796,-0.0598,-0.0192,0.0294,0.0673,0.0432,-0.0139,-0.0139,0.0299,0.0641,-0.2691,-0.2451,-0.204,-0.165,-0.15,-0.1618,-0.1885,-0.2371,-0.3203,-0.386,-0.3935,-0.3625,-0.3081,-0.2317,-0.1458,-0.0897,-0.0673,-0.0539,-0.0422,-0.0331,-0.0278,-0.0283,-0.0326,-0.0379,-0.0422,-0.0438,-0.0406,-0.0336,-0.0267,-0.0219,-0.0198,-0.0198,-0.0219,-0.0278,-0.0475,-0.0667,-0.0651,-0.0598,-0.0635,-0.0625,-0.0502,-0.0166,0.0384,0.0593,0.0454,0.0432,0.0566,-0.3145,-0.2958,-0.2819,-0.3038,-0.3529,-0.3759,-0.3625,-0.3534,-0.3844,-0.4127,-0.4042,-0.3844,-0.3502,-0.2638,-0.1532,-0.0865,-0.0598,-0.0448,-0.0352,-0.031,-0.0315,-0.0363,-0.04,-0.0432,-0.0464,-0.0475,-0.0448,-0.039,-0.0326,-0.0262,-0.0203,-0.0166,-0.0171,-0.0219,-0.0363,-0.0603,-0.0662,-0.055,-0.0614,-0.0753,-0.0742,-0.0619,-0.0459,-0.0235,0.0267,0.0721,0.0721,-0.2985,-0.3177,-0.3161,-0.3364,-0.3956,-0.4415,-0.4597,-0.4335,-0.4314,-0.4431,-0.4325,-0.4074,-0.3727,-0.2467,-0.0966,-0.047,-0.0347,-0.0331,-0.0315,-0.0315,-0.0347,-0.0395,-0.0406,-0.0406,-0.0432,-0.0464,-0.0486,-0.0497,-0.0481,-0.0427,-0.0331,-0.0246,-0.0256,-0.0326,-0.0422,-0.0609,-0.0753,-0.0678,-0.0598,-0.0657,-0.0715,-0.071,-0.0699,-0.0678,-0.0662,-0.0737,-0.087,0,0,-0.1474,-0.3209,-0.3721,-0.4469,-0.4811,-0.4095,-0.3785,-0.3753,-0.3268,-0.3054,0,0.0144,0.0384,0.0294,-0.0005,-0.0171,-0.024,-0.0278,-0.0315,-0.0384,-0.0379,-0.0336,-0.0358,-0.039,-0.0443,-0.0539,-0.0635,-0.0731,-0.0892,-0.1116,-0.1223,-0.1036,-0.0806,-0.079,-0.0924,-0.095,-0.0849,-0.0897,-0.1004,-0.0993,-0.1073,-0.1345,-0.1612,-0.1719,-0.1725,-0.1292,-0.1741,-0.268,-0.2664,-0.2258,0,0,-0.2125,-0.4191,-0.4554,-0.5366,-0.5846,-0.2702,0.0518,0,0,0,0,0,0,0,0,-0.016,-0.0315,-0.0288,-0.0267,-0.0315,-0.0481,-0.0635,-0.0881,-0.1618,-0.2472,-0.2814,-0.2643,-0.2328,-0.1949,-0.1442,-0.1159,-0.1111,-0.1057,-0.1036,-0.1153,-0.1324,-0.1383,-0.1319,-0.1313,-0.1543,-0.2659,-0.3353,-0.3807,-0.3988,-0.4469,-0.4116,-0.33,-0.2824,-0.2499,0,0,0,-0.1874,-0.4794,-0.4816,-0.3305,-0.2365,-0.1292,-0.031,0.0064,0.0064,0,0,0,0,0,0,0,-0.0267,-0.0796,-0.1666,-0.2718,-0.3209,-0.2766,-0.2296,-0.2098,-0.158,-0.1078,-0.0806,-0.0721,-0.0747,-0.0838,-0.0897,-0.0956,-0.1009,-0.1089,-0.1164,-0.2419,-0.2573,-0.268,-0.3251,-0.41,-0.4912,-0.5478,-0.6354,-0.7234,-0.6984,-0.5782,-0.275,-0.071,-0.1538,-0.2306,-0.2451,-0.1869,-0.1148,-0.0742,-0.0614,-0.0571,0,0,0,0,0,0,0,0,0,0,0,0,-0.086,-0.1858,-0.1725,-0.1169,-0.078,-0.0545,-0.0384,-0.0363,-0.0411,-0.0448,-0.0486,-0.0566,-0.0614,-0.0625,0,-0.0561,-0.1239,-0.1281,-0.1153,-0.11,0,0,0,0,0,-0.078,-0.1725,-0.22,-0.2563,-0.2248,-0.1463,-0.0731,-0.0352,-0.0288,0,0,0,0,0,0,0,0,0,0,0,0,0,0,0,0,-0.1575,-0.1463,0,0,-0.0454,-0.0432,-0.0395,-0.0368,-0.0326,-0.0315,-0.0342,0,0,0,-0.0128,-0.0192,-0.0123,0,0,0,0,0,-0.039,-0.1271,-0.2221,-0.2654,-0.2189,-0.126,-0.071,-0.0555,0,0,0,0,0,0,0,0,0,0,0,0,0,0,0,0,0,0,-0.4186,-0.496,0,0,0,0,0,0,0,-0.0091,0,0,0,0,0,0,0,0,0,0,0,-0.0368,-0.126,-0.2253,-0.2552,-0.1917,-0.0854,-0.0251,0,0,0,0,0,0,0,0,0,0,0,0,0,0,0,0,0,0,0,0,-0.1917,-0.2643,-0.1388,-0.1324,0,0,0,0,0,0,0,0,0,0,0,0,0,0,0,0,-0.0491,-0.1367,-0.2237,-0.2365,-0.1628,-0.1244,0,0,0,0,0,0,0,0,0,0,0,0,0,0,0,0,0,0,0,0,0,0,-0.1329,-0.3059,-0.3737,-0.2878,-0.1351,-0.095,0,0,0,0,0,0,0,0,0,0,0,0,0,0,-0.165,-0.2189,-0.2333,-0.1725,-0.1474,0,0,0,0,0,0,0,0,0,0,0,0,0,0,0,0,0,0,0,0,0,0,0,0,0,0,-0.0262,-0.0523,0,0,0,0,0,0,0,0,0,0,0,0,0,0,-0.0731,-0.1858,-0.1997,-0.1452,-0.1169,0,0,0,0,0,0,0,0,0,0,0,0,0,0,0,0,0,0,0,0,0,0,0,0,0,0,0,0,0,0,0,0,0,0,0,0,0,0,0,0,0,0,-0.0491,-0.102,-0.1148,-0.0929,-0.063,0,0,0,0,0,0,0,0,0,0,0,0,0,0,0,0,0,0,0,0,0,0,0,0,0,0,0,0,0,0,0,0,0,0,0,0,0,0,0,0,0,0,-0.0155,-0.0128,-0.0342,-0.0497,-0.0256,0,0,0,0,0,0,0,0,0,0,0,0,0,0,0,0,0,0,0,0,0,0,0,0,0,0,0,0,0,0,0,0,0,0,0,0,0,0,0,0,0,0,0,-0.0598,-0.0662,-0.0011,0.0112,0,0,0,0,0,0,0,0,0,0,0,0,0,0,0,0,0,0,0,0,0,0,0,0,0,0,0,0,0,0,0,0,0,0,0,0,0,0,0,0,0,0,0,-0.0326,0.0801,0.1831,0.142,0,0,0,0,0,0,0,0,0,0,0,0,0,0,0,0,0,0,0,0,0,0,0,0,0,0,0,0,0,0,0,0,0,0,0,0,0,0,0,0,0,0,0,0,0.1089,0.2178,0,0,0,0,0,0,0,0,0,0,0,0,0,0,0,0,0,0,0,0,0,0,0,0,0,0,0,0,0,0,0,0,0,0,0,0,0,0,0,0,0,0,0,0,0,0,0,0,0,0,0,0,0,0,0,0,0,0,0,0,0,0,0,0,0,0,0,0,0,0,0,0,0,0,0,0,0,0,0,0,0,0,0,0,0,0,0,0,0,0,0,0,0,0,0,0,0,0,0,0,0,0,0,0,0,0,0,0,0,0,0,0,0,0,0,0,0,0,0,0,0,0,0,0,0,0,0,0,0,0,0,0,0,0,0,0,0,0,0,0,0,0,0,0,0,0,0,0,0,0,0,0,0,0,0,0,0,0,0,0,0,0,0,0,0,0,0,0,0,0,0,0,0,0,0,0,0,0,0,0,0,0,0,0,0,0,0,0,0,0,0,0,0,0,0,0,0,0,0,0,0,0,0,0,0,0,0,0,0,0,0,0,0,0,0,0,0,0,0,0,0,0,0,0,0,0,0,0,0,0,0,0,0,0,0,0,0,0,0,0,0,0,0,0,0,0,0,0,0,0,0,0,0,0,0,0,0,0,0,0,0,0,0,0,0,0,0,0,0,0,0,0,0,0,0,0,0,0,0,0,0,0,0,0,0,0,0,0,0,0,0,0,0,0,0,0,0,0,0,0,0,0,0,0,0,0,0,0,0,0,0,0,0]}],[{"header":{"parameterUnit":"kt","parameterCategory":2,"dx":1,"dy":1,"la1":29.764190673828125,"la2":30.86408042907715,"lo1":-88.46762084960938,"lo2":-86.9344482421875,"nx":47,"ny":34,"refTime":"2022-10-07T00:00:00:Z","depth":"0","parameterNumber":3,"parameterNumberName":"V-component_of_CURRENTS"},"data":[-0.3049,-0.2104,-0.1185,-0.0817,-0.0395,-0.0128,-0.0021,0.0011,0.0117,0.0064,-0.0331,-0.0913,-0.078,-0.0491,-0.0491,-0.047,-0.0566,-0.0603,-0.0566,-0.0534,-0.0833,-0.1111,-0.0924,-0.0662,-0.0881,-0.1725,-0.2429,-0.252,-0.2184,-0.1981,-0.2205,-0.26,-0.2824,-0.2771,-0.2413,-0.1799,-0.1244,-0.079,-0.0523,-0.0497,-0.0683,-0.1041,-0.1452,-0.1853,-0.2306,-0.292,-0.3599,-0.3065,-0.2285,-0.1276,-0.0945,-0.0539,-0.0208,-0.0053,-0.0021,-0.0005,-0.024,-0.0699,-0.0849,-0.0534,-0.0486,-0.0582,-0.0646,-0.0694,-0.0641,-0.0571,-0.0523,-0.0838,-0.1132,-0.0849,-0.0406,-0.0662,-0.1554,-0.2296,-0.2611,-0.2387,-0.1959,-0.1735,-0.1933,-0.2269,-0.2456,-0.2419,-0.22,-0.2056,-0.1879,-0.1692,-0.1607,-0.1671,-0.1895,-0.2226,-0.2627,-0.307,-0.3545,-0.3946,-0.2776,-0.2397,-0.1532,-0.1036,-0.0673,-0.0411,-0.032,-0.0283,-0.0406,-0.0699,-0.0806,-0.0539,-0.0395,-0.0614,-0.0726,-0.0817,-0.0737,-0.0625,-0.0513,-0.0507,-0.0828,-0.1057,-0.0715,-0.016,-0.032,-0.134,-0.2002,-0.2488,-0.2589,-0.2339,-0.2013,-0.1767,-0.1778,-0.1927,-0.2029,-0.2024,-0.2072,-0.2114,-0.2136,-0.2157,-0.2141,-0.2168,-0.2322,-0.2589,-0.291,-0.3182,-0.339,-0.2296,-0.221,-0.1725,-0.1191,-0.0886,-0.0694,-0.0635,-0.0662,-0.0763,-0.0796,-0.0593,-0.0395,-0.055,-0.078,-0.0902,-0.0854,-0.0721,-0.0577,-0.0448,-0.0475,-0.0753,-0.0961,-0.0715,-0.0208,-0.0144,-0.0945,-0.1719,-0.221,-0.2445,-0.2456,-0.2269,-0.2072,-0.1895,-0.1735,-0.1559,-0.1527,-0.1602,-0.1735,-0.1815,-0.1853,-0.1773,-0.1687,-0.1687,-0.1789,-0.1965,-0.2141,-0.2285,-0.1799,-0.1815,-0.158,-0.1201,-0.1014,-0.086,-0.0806,-0.0796,-0.0806,-0.0742,-0.0614,-0.0641,-0.0838,-0.0924,-0.0934,-0.0785,-0.0646,-0.0529,-0.0448,-0.0443,-0.0598,-0.0844,-0.0817,-0.0529,-0.0374,-0.0731,-0.1367,-0.1863,-0.213,-0.2274,-0.2269,-0.2221,-0.2184,-0.2114,-0.1719,-0.1249,-0.1068,-0.1036,-0.1212,-0.1297,-0.1249,-0.126,-0.1201,-0.1127,-0.1137,-0.1201,-0.1223,-0.1351,-0.1399,-0.1255,-0.1127,-0.1057,-0.0977,-0.0934,-0.0924,-0.0918,-0.0913,-0.0892,-0.0897,-0.094,-0.0945,-0.0822,-0.0689,-0.0587,-0.0523,-0.0491,-0.0475,-0.0513,-0.071,-0.0844,-0.0812,-0.0742,-0.0806,-0.1068,-0.1458,-0.1767,-0.1954,-0.2098,-0.2157,-0.221,-0.2285,-0.2237,-0.1885,-0.1361,-0.0822,-0.0641,-0.0566,-0.0689,-0.0838,-0.0785,-0.0678,-0.0587,-0.0475,-0.0342,-0.1052,-0.1057,-0.1014,-0.1052,-0.1078,-0.1095,-0.1111,-0.1127,-0.1116,-0.1052,-0.0988,-0.0913,-0.087,-0.0828,-0.0726,-0.0635,-0.0582,-0.055,-0.0545,-0.055,-0.0566,-0.0673,-0.0849,-0.0913,-0.0908,-0.086,-0.0892,-0.1084,-0.1329,-0.1527,-0.1735,-0.1922,-0.2104,-0.2216,-0.2232,-0.2242,-0.2088,-0.1858,-0.1207,-0.0673,-0.0491,-0.0299,-0.031,-0.032,-0.0208,0.0021,0.023,-0.103,-0.0972,-0.094,-0.0966,-0.102,-0.1105,-0.118,-0.1207,-0.1148,-0.103,-0.0913,-0.0817,-0.0763,-0.0721,-0.0673,-0.0641,-0.0619,-0.0603,-0.0609,-0.063,-0.0678,-0.078,-0.0918,-0.0977,-0.0929,-0.0844,-0.079,-0.086,-0.0993,-0.1159,-0.1345,-0.1527,-0.1778,-0.2072,-0.2104,-0.1981,-0.2002,-0.2253,-0.2349,-0.2125,-0.142,-0.0742,-0.0609,-0.0406,-0.0251,-0.0064,0.0107,-0.1265,-0.1265,-0.1212,-0.1073,-0.1025,-0.1078,-0.118,-0.1228,-0.1164,-0.102,-0.0892,-0.079,-0.0721,-0.0657,-0.0635,-0.0662,-0.0673,-0.0673,-0.0678,-0.0715,-0.079,-0.0897,-0.0988,-0.1009,-0.094,-0.0833,-0.0758,-0.0769,-0.086,-0.0988,-0.1111,-0.1228,-0.1356,-0.1682,-0.1949,-0.1927,-0.1703,-0.1698,-0.2136,-0.2563,-0.2734,-0.2387,-0.1639,-0.1062,-0.0972,-0.0924,-0.0849,-0.1538,-0.1692,-0.166,-0.1383,-0.1148,-0.11,-0.1121,-0.118,-0.1217,-0.1137,-0.1078,-0.1068,-0.103,-0.0865,-0.071,-0.0705,-0.0726,-0.0726,-0.0737,-0.0785,-0.087,-0.095,-0.0988,-0.0966,-0.0902,-0.0801,-0.0737,-0.0747,-0.0833,-0.0945,-0.103,-0.1073,-0.1062,-0.1287,-0.166,-0.1821,-0.1789,-0.1618,-0.1404,-0.1538,-0.2248,-0.2851,-0.2862,-0.2525,-0.2146,-0.1927,-0.1943,-0.1618,-0.1927,-0.1895,-0.1591,-0.1271,-0.1207,-0.118,-0.1196,-0.1137,-0.1143,-0.1297,-0.1532,-0.1676,-0.1511,-0.1121,-0.0849,-0.0801,-0.0774,-0.0785,-0.0828,-0.0897,-0.0934,-0.0918,-0.087,-0.0817,-0.0758,-0.0747,-0.079,-0.0881,-0.0961,-0.0993,-0.1009,-0.0972,-0.1025,-0.1324,-0.1612,-0.1773,-0.1762,-0.1548,-0.1287,-0.1196,-0.1612,-0.2376,-0.2963,-0.3102,-0.3161,-0.3251,-0.1618,-0.1981,-0.1954,-0.1644,-0.1676,-0.1778,-0.1719,-0.141,-0.0828,-0.095,-0.1447,-0.1959,-0.2451,-0.2755,-0.158,-0.1014,-0.0924,-0.0849,-0.0806,-0.0828,-0.086,-0.0865,-0.0833,-0.0758,-0.0715,-0.0715,-0.0769,-0.086,-0.0961,-0.1025,-0.1025,-0.0998,-0.0929,-0.087,-0.102,-0.1388,-0.1607,-0.1634,-0.1607,-0.1516,-0.1393,-0.1479,-0.1666,-0.1943,-0.2162,-0.2734,-0.33,-0.1618,-0.1959,-0.2098,-0.1618,-0.2029,-0.229,-0.2339,-0.2072,-0.0913,-0.1062,-0.1885,-0.2541,-0.2888,-0.5254,-0.1847,-0.1052,-0.0945,-0.0844,-0.0769,-0.0742,-0.0737,-0.0731,-0.0753,-0.0635,-0.0593,-0.0625,-0.0726,-0.0881,-0.1046,-0.1137,-0.1169,-0.1062,-0.0902,-0.0785,-0.078,-0.1057,-0.1452,-0.1442,-0.1345,-0.1335,-0.1452,-0.1853,-0.1949,-0.1591,-0.1308,-0.181,-0.2328,0,0,-0.1303,-0.166,-0.1959,-0.2306,-0.2515,-0.3401,-0.1837,-0.2146,-0.3161,-0.3983,0,-0.7875,-0.197,-0.1036,-0.0908,-0.0796,-0.0726,-0.0678,-0.0657,-0.0646,-0.0683,-0.0475,-0.0422,-0.0475,-0.0582,-0.0763,-0.103,-0.1191,-0.1468,-0.1415,-0.1196,-0.1004,-0.0742,-0.0796,-0.1233,-0.142,-0.1255,-0.1089,-0.1228,-0.1559,-0.1618,-0.1426,-0.1452,-0.1821,-0.197,-0.0299,-0.0304,-0.0609,-0.2371,-0.2936,0,0,-0.3278,-0.2846,-0.3017,-0.409,-0.5051,-0.5024,-0.7144,0,0,0,0,0,0,0,0,-0.0657,-0.0384,-0.0326,-0.0384,-0.0481,-0.0662,-0.0897,-0.1089,-0.1746,-0.1762,-0.1591,-0.1527,-0.1116,-0.1169,-0.1548,-0.1623,-0.1297,-0.1041,-0.1111,-0.1276,-0.1292,-0.1185,-0.1159,-0.1287,-0.1415,-0.0667,-0.0352,-0.0545,-0.2312,-0.3209,-0.1458,-0.1313,-0.3059,-0.3892,0,0,0,-0.7816,-0.4805,-0.1644,-0.1164,-0.0966,-0.0881,-0.0555,-0.0091,0.0027,0,0,0,0,0,0,0,-0.0539,-0.0747,-0.1826,-0.1815,-0.1676,-0.1922,-0.1324,-0.1842,-0.2621,-0.2504,-0.1602,-0.1052,-0.0945,-0.102,-0.1057,-0.1127,-0.1062,-0.0961,-0.0961,-0.0742,-0.063,0.0224,-0.0422,-0.1052,-0.1399,-0.2621,-0.3796,-0.4581,0.0,0.0,-0.3801,-0.4827,-0.355,-0.2814,-0.236,-0.2077,-0.1639,-0.1014,-0.0256,0.0048,0,0,0,0,0,0,0,0,0,0,0,0,-0.205,-0.1201,-0.2365,-0.394,-0.4036,-0.1831,-0.0918,-0.0742,-0.0785,-0.0796,-0.0844,-0.0758,-0.0694,-0.0726,0,-0.1159,0.0694,0.0491,0.0144,-0.0534,0,0,0,0,0,-0.6572,-0.4042,-0.2467,-0.2264,-0.2654,-0.2424,-0.1468,-0.0731,-0.0203,0,0,0,0,0,0,0,0,0,0,0,0,0,0,0,0,-0.4725,-0.4944,0,0,-0.0657,-0.0625,-0.0635,-0.0641,-0.0545,-0.0561,-0.0529,0,0,0,0.0203,-0.0043,-0.1185,0,0,0,0,0,-0.4928,-0.3476,-0.1714,-0.2269,-0.3246,-0.3054,-0.1233,-0.0545,0,0,0,0,0,0,0,0,0,0,0,0,0,0,0,0,0,0,-0.5013,-0.2392,0,0,0,0,0,0,0,-0.0432,0,0,0,0,0,0,0,0,0,0,0,-0.3839,-0.2707,-0.1292,-0.2493,-0.3871,-0.3919,-0.1057,0,0,0,0,0,0,0,0,0,0,0,0,0,0,0,0,0,0,0,0,-0.4784,-0.1858,-0.0817,-0.0998,0,0,0,0,0,0,0,0,0,0,0,0,0,0,0,0,-0.2904,-0.2355,-0.1009,-0.2776,-0.4469,-0.4565,0,0,0,0,0,0,0,0,0,0,0,0,0,0,0,0,0,0,0,0,0,0,-0.3716,-0.1634,-0.2002,0.0,-0.0384,-0.0192,0,0,0,0,0,0,0,0,0,0,0,0,0,0,-0.22,-0.0902,-0.307,-0.4944,-0.4891,0,0,0,0,0,0,0,0,0,0,0,0,0,0,0,0,0,0,0,0,0,0,0,0,0,0,-0.0769,-0.0384,0,0,0,0,0,0,0,0,0,0,0,0,0,0,-0.1655,-0.1116,-0.3268,-0.5093,-0.4768,0,0,0,0,0,0,0,0,0,0,0,0,0,0,0,0,0,0,0,0,0,0,0,0,0,0,0,0,0,0,0,0,0,0,0,0,0,0,0,0,0,0,-0.0838,-0.1372,-0.2969,-0.496,-0.4106,0,0,0,0,0,0,0,0,0,0,0,0,0,0,0,0,0,0,0,0,0,0,0,0,0,0,0,0,0,0,0,0,0,0,0,0,0,0,0,0,0,0,-0.0539,-0.1516,-0.2114,-0.4901,-0.3289,0,0,0,0,0,0,0,0,0,0,0,0,0,0,0,0,0,0,0,0,0,0,0,0,0,0,0,0,0,0,0,0,0,0,0,0,0,0,0,0,0,0,0,-0.1805,-0.2264,-0.5216,-0.2611,0,0,0,0,0,0,0,0,0,0,0,0,0,0,0,0,0,0,0,0,0,0,0,0,0,0,0,0,0,0,0,0,0,0,0,0,0,0,0,0,0,0,0,-0.2007,-0.1319,-0.464,-0.2333,0,0,0,0,0,0,0,0,0,0,0,0,0,0,0,0,0,0,0,0,0,0,0,0,0,0,0,0,0,0,0,0,0,0,0,0,0,0,0,0,0,0,0,0,0.0283,-0.3807,0,0,0,0,0,0,0,0,0,0,0,0,0,0,0,0,0,0,0,0,0,0,0,0,0,0,0,0,0,0,0,0,0,0,0,0,0,0,0,0,0,0,0,0,0,0,0,0,0,0,0,0,0,0,0,0,0,0,0,0,0,0,0,0,0,0,0,0,0,0,0,0,0,0,0,0,0,0,0,0,0,0,0,0,0,0,0,0,0,0,0,0,0,0,0,0,0,0,0,0,0,0,0,0,0,0,0,0,0,0,0,0,0,0,0,0,0,0,0,0,0,0,0,0,0,0,0,0,0,0,0,0,0,0,0,0,0,0,0,0,0,0,0,0,0,0,0,0,0,0,0,0,0,0,0,0,0,0,0,0,0,0,0,0,0,0,0,0,0,0,0,0,0,0,0,0,0,0,0,0,0,0,0,0,0,0,0,0,0,0,0,0,0,0,0,0,0,0,0,0,0,0,0,0,0,0,0,0,0,0,0,0,0,0,0,0,0,0,0,0,0,0,0,0,0,0,0,0,0,0,0,0,0,0,0,0,0,0,0,0,0,0,0,0,0,0,0,0,0,0,0,0,0,0,0,0,0,0,0,0,0,0,0,0,0,0,0,0,0,0,0,0,0,0,0,0,0,0,0,0,0,0,0,0,0,0,0,0,0,0,0,0,0,0,0,0,0,0,0,0,0,0,0,0,0,0,0,0,0,0,0,0,0]}]],[[{"header":{"parameterUnit":"kt","parameterCategory":2,"dx":1,"dy":1,"la1":29.764190673828125,"la2":30.86408042907715,"lo1":-88.46762084960938,"lo2":-86.9344482421875,"nx":47,"ny":34,"refTime":"2022-10-07T00:00:00:Z","depth":"2","parameterNumber":2,"parameterNumberName":"U-component_of_CURRENTS"},"data":[-0.0614,-0.0577,-0.0486,-0.0294,-0.0107,-0.0069,-0.0246,-0.0422,-0.0454,-0.0518,-0.0577,-0.0545,-0.0694,-0.0993,-0.1041,-0.087,-0.0737,-0.0673,-0.0689,-0.0678,-0.0545,-0.04,-0.0438,-0.0699,-0.102,-0.1057,-0.0966,-0.0966,-0.0785,-0.0443,-0.0043,0.0262,0.0379,0.0438,0.0368,0.0331,0.0539,0.0865,0.1217,0.1527,0.1725,0.1783,0.1741,0.1607,0.142,0.1228,0.1041,-0.1255,-0.1297,-0.1159,-0.095,-0.0747,-0.0609,-0.063,-0.0742,-0.0886,-0.0854,-0.0609,-0.0582,-0.0844,-0.1046,-0.0998,-0.0774,-0.0561,-0.0454,-0.0518,-0.0699,-0.0694,-0.0497,-0.0481,-0.079,-0.1233,-0.149,-0.1452,-0.1404,-0.1324,-0.0988,-0.0593,-0.0182,0.0219,0.0464,0.0635,0.0785,0.0929,0.1116,0.1329,0.1532,0.1692,0.1778,0.1805,0.1778,0.1687,0.1586,0.1548,-0.1698,-0.1821,-0.1735,-0.1495,-0.1372,-0.1351,-0.1356,-0.1361,-0.1143,-0.0662,-0.0411,-0.0646,-0.0966,-0.102,-0.0844,-0.0614,-0.0459,-0.0432,-0.0491,-0.0619,-0.0667,-0.0587,-0.0566,-0.0694,-0.1009,-0.1367,-0.1602,-0.1682,-0.1618,-0.1415,-0.1127,-0.086,-0.0507,0.0096,0.0651,0.0876,0.1073,0.1372,0.1666,0.189,0.2072,0.22,0.229,0.2349,0.236,0.2339,0.2296,-0.1858,-0.1965,-0.2024,-0.1991,-0.1885,-0.1714,-0.1511,-0.1137,-0.0737,-0.0614,-0.0806,-0.1014,-0.0977,-0.0833,-0.0646,-0.0507,-0.0481,-0.0523,-0.055,-0.055,-0.0598,-0.0646,-0.0625,-0.0561,-0.0673,-0.0886,-0.1148,-0.1431,-0.1618,-0.166,-0.1452,-0.1127,-0.0913,-0.0705,-0.0155,0.0577,0.1164,0.1586,0.1842,0.2061,0.2328,0.2557,0.2718,0.2814,0.284,0.2798,0.2664,-0.1586,-0.1826,-0.1783,-0.1692,-0.1575,-0.1442,-0.1287,-0.1185,-0.1175,-0.118,-0.1116,-0.0934,-0.0721,-0.0582,-0.0523,-0.0555,-0.063,-0.0662,-0.063,-0.0577,-0.0609,-0.0721,-0.0758,-0.0619,-0.0443,-0.0502,-0.0678,-0.0828,-0.1095,-0.142,-0.1618,-0.1532,-0.1148,-0.0753,-0.0545,-0.0246,0.0331,0.11,0.1698,0.2082,0.2408,0.2611,0.276,0.2904,0.2963,0.2926,0.2835,-0.0598,-0.1057,-0.15,-0.1639,-0.157,-0.1463,-0.1361,-0.1271,-0.1137,-0.094,-0.0747,-0.0609,-0.0566,-0.0603,-0.0673,-0.0747,-0.0769,-0.0721,-0.0619,-0.0491,-0.0374,-0.0368,-0.039,-0.0278,-0.0037,0.0128,-0.0011,-0.0299,-0.0571,-0.0892,-0.1276,-0.1586,-0.1628,-0.1249,-0.0646,-0.0379,-0.0304,-0.0027,0.0518,0.1335,0.1922,0.2237,0.2563,0.2808,0.2947,0.3001,0.2979,-0.0336,-0.0443,-0.0561,-0.0667,-0.079,-0.086,-0.0844,-0.0753,-0.0641,-0.0587,-0.0587,-0.063,-0.0705,-0.0785,-0.0838,-0.0833,-0.0769,-0.0667,-0.0545,-0.0411,-0.0256,-0.0101,0.0032,0.0149,0.0278,0.0384,0.0438,0.0347,0.0059,-0.031,-0.0662,-0.1041,-0.141,-0.1522,-0.1196,-0.0598,-0.0139,-0.0155,-0.016,0.0208,0.0667,0.1313,0.1874,0.2168,0.2424,0.2616,0.2691,-0.04,-0.0427,-0.047,-0.0545,-0.063,-0.0667,-0.0651,-0.0609,-0.0609,-0.0651,-0.0731,-0.0812,-0.0865,-0.0886,-0.0865,-0.0806,-0.0699,-0.0577,-0.0454,-0.0326,-0.0176,-0.0011,0.0128,0.0214,0.0262,0.0288,0.0299,0.0267,0.0171,0.0037,-0.0166,-0.0454,-0.0801,-0.1132,-0.1223,-0.0998,-0.0534,0.0128,0.0384,0.0021,-0.0091,0.0384,0.087,0.1217,0.1522,0.1703,0.1799,-0.1623,-0.15,-0.1175,-0.0876,-0.0731,-0.0705,-0.0731,-0.0769,-0.0812,-0.0854,-0.0881,-0.0865,-0.0833,-0.0806,-0.078,-0.0721,-0.0614,-0.0497,-0.0379,-0.0251,-0.0112,0.0016,0.0096,0.0107,0.0085,0.0064,0.0053,0.0048,0.0043,0.0037,0.0021,-0.0037,-0.023,-0.0555,-0.0796,-0.0865,-0.0753,-0.0422,0.0123,0.0715,0.0625,0.0016,-0.0011,0.0481,0.0747,0.0753,0.078,-0.2317,-0.2093,-0.1687,-0.1233,-0.0913,-0.0806,-0.0838,-0.1009,-0.1399,-0.189,-0.2205,-0.22,-0.1794,-0.1191,-0.0796,-0.0641,-0.0529,-0.0411,-0.0288,-0.0171,-0.0064,-0.0005,-0.0005,-0.0048,-0.0107,-0.0144,-0.0139,-0.0096,-0.0032,0.0021,0.0032,0.0,-0.0059,-0.0203,-0.0438,-0.0561,-0.0555,-0.0539,-0.0342,0.0064,0.0545,0.0913,0.0673,0.0091,0.0085,0.0513,0.0838,-0.2429,-0.2205,-0.1805,-0.142,-0.1276,-0.1393,-0.1644,-0.212,-0.2942,-0.3583,-0.3657,-0.3353,-0.2824,-0.2072,-0.1223,-0.0673,-0.0459,-0.0326,-0.0214,-0.0128,-0.008,-0.0085,-0.0128,-0.0182,-0.023,-0.024,-0.0203,-0.0133,-0.0053,0.0005,0.0032,0.0037,0.0021,-0.0037,-0.023,-0.0416,-0.0395,-0.0342,-0.0379,-0.0368,-0.0251,0.0091,0.0635,0.0833,0.0683,0.0651,0.0774,-0.2883,-0.2712,-0.2579,-0.2803,-0.3284,-0.3508,-0.3369,-0.3268,-0.3556,-0.3817,-0.3716,-0.3502,-0.3166,-0.2349,-0.1287,-0.0646,-0.039,-0.024,-0.0149,-0.0112,-0.0123,-0.0171,-0.0214,-0.0251,-0.0283,-0.0294,-0.0262,-0.0203,-0.0128,-0.0053,0.0011,0.0059,0.0059,0.0021,-0.0123,-0.0352,-0.0411,-0.0299,-0.0363,-0.0502,-0.0491,-0.0368,-0.0214,0.0011,0.0502,0.094,0.0929,-0.2744,-0.2947,-0.2926,-0.3107,-0.3663,-0.41,-0.4277,-0.4015,-0.3978,-0.4047,-0.3876,-0.3406,-0.3246,-0.2093,-0.0721,-0.0256,-0.0144,-0.0128,-0.0117,-0.0123,-0.016,-0.0214,-0.0235,-0.024,-0.0278,-0.0304,-0.032,-0.0326,-0.0299,-0.0235,-0.0128,-0.0037,-0.0037,-0.0096,-0.0187,-0.0368,-0.0513,-0.0438,-0.0352,-0.0411,-0.047,-0.0464,-0.0459,-0.0438,-0.0427,-0.0513,-0.0651,0,0,-0.1335,-0.2904,-0.3342,-0.4148,-0.4453,-0.3652,-0.3305,-0.3049,-0.2258,-0.1847,0,0.0251,0.0598,0.0491,0.0182,0.0016,-0.0064,-0.0112,-0.016,-0.023,-0.023,-0.0198,-0.0224,-0.0256,-0.031,-0.039,-0.0475,-0.0561,-0.0705,-0.0908,-0.1009,-0.0817,-0.0582,-0.0561,-0.0689,-0.0715,-0.0609,-0.0657,-0.0763,-0.0758,-0.0838,-0.1116,-0.1383,-0.15,-0.1516,-0.1111,-0.1538,-0.2397,-0.2301,-0.1858,0,0,-0.1794,-0.3374,-0.3396,-0.3999,-0.48,-0.2173,0.0886,0,0,0,0,0,0,0,0,-0.0107,-0.0214,-0.0187,-0.0176,-0.0219,-0.0363,-0.0507,-0.0726,-0.1426,-0.2248,-0.2579,-0.2408,-0.2093,-0.1719,-0.1223,-0.0934,-0.0886,-0.0822,-0.0801,-0.0924,-0.11,-0.1164,-0.1111,-0.1116,-0.1351,-0.2467,-0.3118,-0.3518,-0.3593,-0.3828,-0.3353,-0.2584,-0.1746,-0.1068,0,0,0,-0.1714,-0.4469,-0.4522,-0.3075,-0.2152,-0.1105,-0.0149,0.0198,0.0182,0,0,0,0,0,0,0,-0.0214,-0.0657,-0.1474,-0.2493,-0.2985,-0.2536,-0.204,-0.1815,-0.1319,-0.0844,-0.0582,-0.0497,-0.0523,-0.0619,-0.0689,-0.0758,-0.0822,-0.0913,-0.0993,-0.228,-0.2413,-0.2461,-0.2936,-0.3631,-0.4058,-0.3721,-0.4084,-0.559,-0.6241,-0.5467,-0.2504,-0.0486,-0.1292,-0.2056,-0.22,-0.1639,-0.0961,-0.0593,-0.0491,-0.0454,0,0,0,0,0,0,0,0,0,0,0,0,-0.0763,-0.1591,-0.1308,-0.0694,-0.0416,-0.0283,-0.0166,-0.0166,-0.0214,-0.0262,-0.0304,-0.0395,-0.0459,-0.0475,0,-0.0523,-0.1148,-0.1175,-0.1025,-0.0956,0,0,0,0,0,-0.0667,-0.15,-0.1959,-0.2301,-0.2002,-0.1255,-0.0566,-0.0219,-0.0171,0,0,0,0,0,0,0,0,0,0,0,0,0,0,0,0,-0.0902,-0.0545,0,0,-0.0272,-0.0278,-0.0246,-0.0224,-0.0198,-0.0192,-0.0224,0,0,0,-0.0112,-0.0149,-0.0075,0,0,0,0,0,-0.0315,-0.1095,-0.1986,-0.2381,-0.1938,-0.1073,-0.0571,-0.0454,0,0,0,0,0,0,0,0,0,0,0,0,0,0,0,0,0,0,-0.3534,-0.4303,0,0,0,0,0,0,0,-0.0048,0,0,0,0,0,0,0,0,0,0,0,-0.0315,-0.1111,-0.2018,-0.228,-0.1682,-0.0689,-0.0128,0,0,0,0,0,0,0,0,0,0,0,0,0,0,0,0,0,0,0,0,-0.181,-0.2456,-0.1223,-0.1148,0,0,0,0,0,0,0,0,0,0,0,0,0,0,0,0,-0.0438,-0.1223,-0.2002,-0.2104,-0.1388,-0.0998,0,0,0,0,0,0,0,0,0,0,0,0,0,0,0,0,0,0,0,0,0,0,-0.1223,-0.2723,-0.3054,-0.2269,-0.1137,-0.0838,0,0,0,0,0,0,0,0,0,0,0,0,0,0,-0.1522,-0.1986,-0.2093,-0.1415,-0.1095,0,0,0,0,0,0,0,0,0,0,0,0,0,0,0,0,0,0,0,0,0,0,0,0,0,0,-0.0235,-0.0464,0,0,0,0,0,0,0,0,0,0,0,0,0,0,-0.0689,-0.1714,-0.1794,-0.1159,-0.079,0,0,0,0,0,0,0,0,0,0,0,0,0,0,0,0,0,0,0,0,0,0,0,0,0,0,0,0,0,0,0,0,0,0,0,0,0,0,0,0,0,0,-0.0454,-0.0924,-0.1014,-0.0753,-0.0422,0,0,0,0,0,0,0,0,0,0,0,0,0,0,0,0,0,0,0,0,0,0,0,0,0,0,0,0,0,0,0,0,0,0,0,0,0,0,0,0,0,0,-0.0123,-0.0037,-0.0203,-0.0358,-0.0149,0,0,0,0,0,0,0,0,0,0,0,0,0,0,0,0,0,0,0,0,0,0,0,0,0,0,0,0,0,0,0,0,0,0,0,0,0,0,0,0,0,0,0,-0.0246,-0.0123,0.0219,0.0198,0,0,0,0,0,0,0,0,0,0,0,0,0,0,0,0,0,0,0,0,0,0,0,0,0,0,0,0,0,0,0,0,0,0,0,0,0,0,0,0,0,0,0,0.0374,0.1335,0.1596,0.126,0,0,0,0,0,0,0,0,0,0,0,0,0,0,0,0,0,0,0,0,0,0,0,0,0,0,0,0,0,0,0,0,0,0,0,0,0,0,0,0,0,0,0,0,0.0838,0.1676,0,0,0,0,0,0,0,0,0,0,0,0,0,0,0,0,0,0,0,0,0,0,0,0,0,0,0,0,0,0,0,0,0,0,0,0,0,0,0,0,0,0,0,0,0,0,0,0,0,0,0,0,0,0,0,0,0,0,0,0,0,0,0,0,0,0,0,0,0,0,0,0,0,0,0,0,0,0,0,0,0,0,0,0,0,0,0,0,0,0,0,0,0,0,0,0,0,0,0,0,0,0,0,0,0,0,0,0,0,0,0,0,0,0,0,0,0,0,0,0,0,0,0,0,0,0,0,0,0,0,0,0,0,0,0,0,0,0,0,0,0,0,0,0,0,0,0,0,0,0,0,0,0,0,0,0,0,0,0,0,0,0,0,0,0,0,0,0,0,0,0,0,0,0,0,0,0,0,0,0,0,0,0,0,0,0,0,0,0,0,0,0,0,0,0,0,0,0,0,0,0,0,0,0,0,0,0,0,0,0,0,0,0,0,0,0,0,0,0,0,0,0,0,0,0,0,0,0,0,0,0,0,0,0,0,0,0,0,0,0,0,0,0,0,0,0,0,0,0,0,0,0,0,0,0,0,0,0,0,0,0,0,0,0,0,0,0,0,0,0,0,0,0,0,0,0,0,0,0,0,0,0,0,0,0,0,0,0,0,0,0,0,0,0,0,0,0,0,0,0,0,0,0,0,0,0,0,0,0,0,0,0,0]}],[{"header":{"parameterUnit":"kt","parameterCategory":2,"dx":1,"dy":1,"la1":29.764190673828125,"la2":30.86408042907715,"lo1":-88.46762084960938,"lo2":-86.9344482421875,"nx":47,"ny":34,"refTime":"2022-10-07T00:00:00:Z","depth":"2","parameterNumber":3,"parameterNumberName":"V-component_of_CURRENTS"},"data":[-0.2595,-0.1655,-0.0737,-0.0368,0.0053,0.031,0.0422,0.0454,0.0566,0.0513,0.0117,-0.047,-0.0336,-0.0048,-0.0053,-0.0032,-0.0133,-0.0176,-0.0144,-0.0112,-0.0411,-0.0689,-0.0507,-0.0246,-0.0459,-0.1297,-0.2002,-0.2098,-0.1767,-0.1564,-0.1789,-0.2189,-0.2413,-0.236,-0.2013,-0.141,-0.087,-0.0427,-0.0171,-0.0155,-0.0358,-0.0726,-0.1143,-0.1543,-0.2007,-0.2627,-0.331,-0.2605,-0.1831,-0.0822,-0.0497,-0.0091,0.024,0.0395,0.0432,0.0454,0.0219,-0.0246,-0.0406,-0.0091,-0.0043,-0.0139,-0.0208,-0.0256,-0.0208,-0.0144,-0.0101,-0.0411,-0.071,-0.0432,0.0016,-0.0235,-0.1127,-0.1869,-0.2184,-0.1959,-0.1532,-0.1308,-0.1506,-0.1842,-0.204,-0.2002,-0.1794,-0.1655,-0.149,-0.1308,-0.1239,-0.1313,-0.1559,-0.1901,-0.2306,-0.2755,-0.3235,-0.3647,-0.2312,-0.1927,-0.1073,-0.0582,-0.0219,0.0048,0.0144,0.0187,0.0059,-0.024,-0.0358,-0.0091,0.0048,-0.0166,-0.0288,-0.0379,-0.0299,-0.0192,-0.008,-0.0075,-0.04,-0.0635,-0.0294,0.0256,0.0101,-0.0913,-0.157,-0.2056,-0.2152,-0.1901,-0.1575,-0.1324,-0.134,-0.149,-0.1596,-0.1602,-0.165,-0.1692,-0.1725,-0.1757,-0.1762,-0.1805,-0.1975,-0.2253,-0.2579,-0.2862,-0.307,-0.1826,-0.1735,-0.1255,-0.0721,-0.0416,-0.0224,-0.0166,-0.0198,-0.0304,-0.0336,-0.0139,0.0053,-0.0101,-0.0331,-0.0459,-0.0416,-0.0283,-0.0139,-0.0016,-0.0043,-0.032,-0.0534,-0.0294,0.0214,0.0278,-0.0523,-0.1287,-0.1778,-0.2002,-0.2007,-0.1821,-0.1618,-0.1436,-0.1276,-0.1111,-0.1084,-0.1164,-0.1303,-0.1388,-0.1436,-0.1372,-0.1303,-0.1319,-0.1436,-0.1618,-0.1799,-0.1949,-0.1329,-0.1351,-0.1105,-0.0726,-0.0545,-0.039,-0.0336,-0.0331,-0.0342,-0.0283,-0.016,-0.0187,-0.039,-0.0475,-0.0486,-0.0342,-0.0208,-0.0091,-0.0016,-0.0016,-0.0171,-0.0416,-0.039,-0.0101,0.0048,-0.031,-0.094,-0.1431,-0.1687,-0.1826,-0.1815,-0.1762,-0.1719,-0.1644,-0.1249,-0.0785,-0.0614,-0.0593,-0.0769,-0.086,-0.0822,-0.0849,-0.0812,-0.0753,-0.0774,-0.0844,-0.087,-0.0886,-0.0934,-0.0785,-0.0662,-0.0593,-0.0513,-0.047,-0.0459,-0.0459,-0.0454,-0.0438,-0.0443,-0.0491,-0.0491,-0.0374,-0.024,-0.0144,-0.008,-0.0053,-0.0043,-0.0085,-0.0283,-0.0422,-0.0384,-0.0315,-0.0384,-0.0646,-0.103,-0.1329,-0.1516,-0.165,-0.1703,-0.1746,-0.1815,-0.1762,-0.141,-0.0892,-0.0358,-0.0182,-0.0112,-0.0246,-0.04,-0.0363,-0.0278,-0.0203,-0.0101,0.0021,-0.0593,-0.0598,-0.0555,-0.0593,-0.0619,-0.063,-0.0646,-0.0662,-0.0651,-0.0593,-0.0523,-0.0454,-0.0406,-0.0368,-0.0272,-0.0192,-0.0139,-0.0112,-0.0112,-0.0117,-0.0139,-0.0251,-0.0427,-0.0491,-0.0491,-0.0438,-0.047,-0.0662,-0.0902,-0.1089,-0.1292,-0.1468,-0.1644,-0.1746,-0.1757,-0.1757,-0.1602,-0.1377,-0.0731,-0.0203,-0.0027,0.016,0.0139,0.0112,0.0203,0.0416,0.0614,-0.0566,-0.0513,-0.0481,-0.0502,-0.0561,-0.0641,-0.0715,-0.0742,-0.0683,-0.0566,-0.0443,-0.0347,-0.0299,-0.0256,-0.0214,-0.0192,-0.0171,-0.0166,-0.0176,-0.0203,-0.0256,-0.0358,-0.0502,-0.0566,-0.0518,-0.0438,-0.0379,-0.0443,-0.0571,-0.0731,-0.0902,-0.1078,-0.1319,-0.1602,-0.1634,-0.15,-0.1511,-0.1762,-0.1863,-0.1639,-0.094,-0.0262,-0.0139,0.0053,0.0192,0.0358,0.0518,-0.0785,-0.0785,-0.0737,-0.0603,-0.0561,-0.0614,-0.071,-0.0758,-0.0694,-0.0545,-0.0416,-0.032,-0.0251,-0.0192,-0.0176,-0.0214,-0.023,-0.023,-0.0246,-0.0288,-0.0368,-0.0481,-0.0582,-0.0609,-0.0545,-0.0443,-0.0363,-0.0368,-0.0448,-0.0566,-0.0683,-0.079,-0.0902,-0.1217,-0.1479,-0.1452,-0.1217,-0.1207,-0.1644,-0.2072,-0.2248,-0.1901,-0.1159,-0.0582,-0.0507,-0.0475,-0.0411,-0.1052,-0.1201,-0.118,-0.0902,-0.0678,-0.0635,-0.0657,-0.071,-0.0737,-0.0651,-0.0593,-0.0582,-0.0555,-0.04,-0.0251,-0.0256,-0.0278,-0.0288,-0.0304,-0.0358,-0.0454,-0.0545,-0.0593,-0.0582,-0.0523,-0.0427,-0.0358,-0.0363,-0.0432,-0.0534,-0.0609,-0.0641,-0.0619,-0.0833,-0.1201,-0.1351,-0.1308,-0.1137,-0.0918,-0.1046,-0.1762,-0.236,-0.2376,-0.2045,-0.1671,-0.1463,-0.149,-0.1132,-0.1442,-0.142,-0.1116,-0.0806,-0.0737,-0.071,-0.0726,-0.0651,-0.0641,-0.078,-0.1004,-0.1159,-0.102,-0.0657,-0.04,-0.0358,-0.0342,-0.0358,-0.0416,-0.0491,-0.0539,-0.0539,-0.0507,-0.0459,-0.0411,-0.039,-0.0422,-0.0497,-0.0561,-0.0582,-0.0587,-0.0539,-0.0582,-0.087,-0.1148,-0.1297,-0.1281,-0.1062,-0.0801,-0.071,-0.1121,-0.189,-0.2483,-0.2621,-0.2686,-0.2792,-0.1143,-0.1511,-0.149,-0.1185,-0.1201,-0.1287,-0.1223,-0.0918,-0.032,-0.0406,-0.087,-0.1329,-0.1805,-0.2178,-0.1111,-0.0561,-0.0481,-0.0422,-0.039,-0.0422,-0.0464,-0.0486,-0.0475,-0.0422,-0.0395,-0.0395,-0.0438,-0.0513,-0.0598,-0.0641,-0.0625,-0.0587,-0.0507,-0.0438,-0.0571,-0.0929,-0.1137,-0.1159,-0.1132,-0.1036,-0.0908,-0.0993,-0.118,-0.1458,-0.1682,-0.2258,-0.283,-0.1148,-0.149,-0.1639,-0.1148,-0.1522,-0.1741,-0.1746,-0.1511,-0.0363,-0.0443,-0.1089,-0.1442,-0.1895,-0.449,-0.1351,-0.0614,-0.0518,-0.0422,-0.0358,-0.0347,-0.0358,-0.0374,-0.0422,-0.0331,-0.031,-0.0342,-0.0432,-0.0561,-0.0699,-0.0769,-0.0785,-0.0662,-0.0491,-0.0363,-0.0347,-0.0614,-0.0993,-0.0977,-0.0876,-0.086,-0.0977,-0.1372,-0.1468,-0.1116,-0.0844,-0.1345,-0.1869,0,0,-0.0838,-0.1089,-0.1292,-0.1687,-0.1778,-0.2621,-0.0982,-0.0956,-0.1596,-0.2456,0,-0.7085,-0.1431,-0.0603,-0.0481,-0.0374,-0.0315,-0.0283,-0.0283,-0.0304,-0.0395,-0.0214,-0.0182,-0.0235,-0.0326,-0.0481,-0.071,-0.0849,-0.11,-0.103,-0.0801,-0.0598,-0.0326,-0.0363,-0.0785,-0.0966,-0.079,-0.0625,-0.0758,-0.1089,-0.1148,-0.0961,-0.0998,-0.1377,-0.1532,-0.0139,-0.0117,-0.0144,-0.1783,-0.2173,0,0,-0.2242,-0.165,-0.1548,-0.2317,-0.355,-0.4501,-0.646,0,0,0,0,0,0,0,0,-0.039,-0.0155,-0.0112,-0.0171,-0.0251,-0.0395,-0.0614,-0.0774,-0.1377,-0.1377,-0.1185,-0.1116,-0.0694,-0.0737,-0.11,-0.1175,-0.0844,-0.0577,-0.0646,-0.0812,-0.0833,-0.0731,-0.0726,-0.0876,-0.1014,-0.0368,-0.0005,-0.0112,-0.1767,-0.2392,-0.0715,-0.0737,-0.1313,-0.2221,0,0,0,-0.6946,-0.4213,-0.1383,-0.0929,-0.0737,-0.0678,-0.0374,0.0053,0.0144,0,0,0,0,0,0,0,-0.031,-0.0475,-0.142,-0.1393,-0.1233,-0.1522,-0.086,-0.1276,-0.2072,-0.1991,-0.1127,-0.0603,-0.0497,-0.0571,-0.0619,-0.0699,-0.0657,-0.0582,-0.0598,-0.0454,-0.0363,0.0529,-0.0043,-0.0497,-0.0336,-0.1474,-0.1495,-0.2605,0.0,0.0,-0.346,-0.4175,-0.3027,-0.2296,-0.1863,-0.1612,-0.1244,-0.0667,0.0037,0.0288,0,0,0,0,0,0,0,0,0,0,0,0,-0.1676,-0.0705,-0.1703,-0.2942,-0.3166,-0.1292,-0.0475,-0.0315,-0.0368,-0.0395,-0.0459,-0.04,-0.0368,-0.0416,0,-0.0945,0.0913,0.0694,0.04,-0.0117,0,0,0,0,0,-0.5884,-0.3454,-0.1991,-0.1746,-0.213,-0.1965,-0.11,-0.0432,0.0059,0,0,0,0,0,0,0,0,0,0,0,0,0,0,0,0,-0.3615,-0.3412,0,0,-0.0224,-0.0214,-0.0251,-0.0278,-0.0214,-0.0267,-0.0288,0,0,0,0.0347,0.0101,-0.0988,0,0,0,0,0,-0.4383,-0.2974,-0.126,-0.173,-0.2702,-0.2584,-0.0892,-0.0272,0,0,0,0,0,0,0,0,0,0,0,0,0,0,0,0,0,0,-0.3241,-0.2072,0,0,0,0,0,0,0,-0.0219,0,0,0,0,0,0,0,0,0,0,0,-0.3481,-0.2301,-0.0838,-0.1954,-0.3326,-0.3401,-0.0715,0,0,0,0,0,0,0,0,0,0,0,0,0,0,0,0,0,0,0,0,-0.4148,-0.166,-0.0603,-0.0747,0,0,0,0,0,0,0,0,0,0,0,0,0,0,0,0,-0.2627,-0.1981,-0.0566,-0.2258,-0.3844,-0.3898,0,0,0,0,0,0,0,0,0,0,0,0,0,0,0,0,0,0,0,0,0,0,-0.3321,-0.1201,-0.1495,0.0,-0.0283,-0.0117,0,0,0,0,0,0,0,0,0,0,0,0,0,0,-0.1858,-0.0502,-0.2589,-0.4116,-0.3892,0,0,0,0,0,0,0,0,0,0,0,0,0,0,0,0,0,0,0,0,0,0,0,0,0,0,-0.0566,-0.0235,0,0,0,0,0,0,0,0,0,0,0,0,0,0,-0.1388,-0.0796,-0.2856,-0.425,-0.3695,0,0,0,0,0,0,0,0,0,0,0,0,0,0,0,0,0,0,0,0,0,0,0,0,0,0,0,0,0,0,0,0,0,0,0,0,0,0,0,0,0,0,-0.0651,-0.1127,-0.2621,-0.4298,-0.3417,0,0,0,0,0,0,0,0,0,0,0,0,0,0,0,0,0,0,0,0,0,0,0,0,0,0,0,0,0,0,0,0,0,0,0,0,0,0,0,0,0,0,-0.0384,-0.126,-0.1671,-0.4197,-0.2819,0,0,0,0,0,0,0,0,0,0,0,0,0,0,0,0,0,0,0,0,0,0,0,0,0,0,0,0,0,0,0,0,0,0,0,0,0,0,0,0,0,0,0,-0.1116,-0.0812,-0.3764,-0.1895,0,0,0,0,0,0,0,0,0,0,0,0,0,0,0,0,0,0,0,0,0,0,0,0,0,0,0,0,0,0,0,0,0,0,0,0,0,0,0,0,0,0,0,-0.0929,0.0112,-0.2814,-0.1447,0,0,0,0,0,0,0,0,0,0,0,0,0,0,0,0,0,0,0,0,0,0,0,0,0,0,0,0,0,0,0,0,0,0,0,0,0,0,0,0,0,0,0,0,0.0806,-0.221,0,0,0,0,0,0,0,0,0,0,0,0,0,0,0,0,0,0,0,0,0,0,0,0,0,0,0,0,0,0,0,0,0,0,0,0,0,0,0,0,0,0,0,0,0,0,0,0,0,0,0,0,0,0,0,0,0,0,0,0,0,0,0,0,0,0,0,0,0,0,0,0,0,0,0,0,0,0,0,0,0,0,0,0,0,0,0,0,0,0,0,0,0,0,0,0,0,0,0,0,0,0,0,0,0,0,0,0,0,0,0,0,0,0,0,0,0,0,0,0,0,0,0,0,0,0,0,0,0,0,0,0,0,0,0,0,0,0,0,0,0,0,0,0,0,0,0,0,0,0,0,0,0,0,0,0,0,0,0,0,0,0,0,0,0,0,0,0,0,0,0,0,0,0,0,0,0,0,0,0,0,0,0,0,0,0,0,0,0,0,0,0,0,0,0,0,0,0,0,0,0,0,0,0,0,0,0,0,0,0,0,0,0,0,0,0,0,0,0,0,0,0,0,0,0,0,0,0,0,0,0,0,0,0,0,0,0,0,0,0,0,0,0,0,0,0,0,0,0,0,0,0,0,0,0,0,0,0,0,0,0,0,0,0,0,0,0,0,0,0,0,0,0,0,0,0,0,0,0,0,0,0,0,0,0,0,0,0,0,0,0,0,0,0,0,0,0,0,0,0,0,0,0,0,0,0,0,0,0,0,0,0,0]}]],[[{"header":{"parameterUnit":"kt","parameterCategory":2,"dx":1,"dy":1,"la1":29.764190673828125,"la2":30.86408042907715,"lo1":-88.46762084960938,"lo2":-86.9344482421875,"nx":47,"ny":34,"refTime":"2022-10-07T00:00:00:Z","depth":"4","parameterNumber":2,"parameterNumberName":"U-component_of_CURRENTS"},"data":[-0.0529,-0.0486,-0.039,-0.0208,-0.0027,0.0005,-0.0171,-0.0342,-0.0368,-0.0427,-0.0481,-0.0454,-0.0614,-0.0913,-0.0956,-0.0796,-0.0662,-0.0598,-0.0609,-0.0598,-0.047,-0.0331,-0.0374,-0.0635,-0.095,-0.0988,-0.0897,-0.0897,-0.071,-0.0368,0.0027,0.0331,0.0443,0.0502,0.0432,0.0395,0.0598,0.0924,0.1276,0.1586,0.1778,0.1837,0.1794,0.1655,0.1468,0.1271,0.1084,-0.1169,-0.1212,-0.1068,-0.087,-0.0673,-0.0534,-0.055,-0.0657,-0.0796,-0.0758,-0.0513,-0.0497,-0.0769,-0.0961,-0.0918,-0.0699,-0.0486,-0.0379,-0.0443,-0.0625,-0.0619,-0.0432,-0.0416,-0.0721,-0.1159,-0.1415,-0.1383,-0.1335,-0.1255,-0.0913,-0.0523,-0.0112,0.0288,0.0534,0.0705,0.0849,0.0993,0.118,0.1393,0.1591,0.1751,0.1831,0.1858,0.1826,0.1735,0.1628,0.1586,-0.1618,-0.1741,-0.165,-0.1415,-0.1292,-0.1265,-0.1265,-0.1265,-0.1052,-0.0577,-0.0331,-0.0571,-0.0892,-0.094,-0.0763,-0.0539,-0.039,-0.0358,-0.0416,-0.0539,-0.0593,-0.0523,-0.0502,-0.0625,-0.0929,-0.1292,-0.1532,-0.1612,-0.1554,-0.1345,-0.1057,-0.079,-0.0438,0.0166,0.0721,0.0945,0.1143,0.1442,0.173,0.1954,0.213,0.2253,0.2344,0.2403,0.2408,0.2381,0.2339,-0.1778,-0.1885,-0.1943,-0.1911,-0.1799,-0.1623,-0.1415,-0.1046,-0.0651,-0.0539,-0.0731,-0.094,-0.0897,-0.0753,-0.0571,-0.0432,-0.0406,-0.0448,-0.0475,-0.0475,-0.0523,-0.0582,-0.0561,-0.0491,-0.0593,-0.0806,-0.1073,-0.1361,-0.1548,-0.1591,-0.1383,-0.1057,-0.0838,-0.063,-0.008,0.0651,0.1233,0.1655,0.1906,0.2125,0.2392,0.2616,0.2771,0.2867,0.2894,0.2846,0.2707,-0.1506,-0.1746,-0.1709,-0.1612,-0.1495,-0.1356,-0.1201,-0.11,-0.1095,-0.1105,-0.1041,-0.086,-0.0646,-0.0507,-0.0448,-0.0481,-0.0555,-0.0587,-0.055,-0.0502,-0.0539,-0.0657,-0.0694,-0.0555,-0.0368,-0.0422,-0.0603,-0.0758,-0.1025,-0.1351,-0.1548,-0.1458,-0.1073,-0.0678,-0.047,-0.0176,0.04,0.1175,0.1773,0.2146,0.2472,0.267,0.2819,0.2958,0.3017,0.2979,0.2883,-0.0523,-0.0982,-0.1426,-0.1564,-0.1495,-0.1388,-0.1287,-0.1196,-0.1062,-0.0865,-0.0673,-0.0534,-0.0491,-0.0529,-0.0598,-0.0667,-0.0689,-0.0646,-0.0545,-0.0416,-0.0304,-0.0299,-0.0326,-0.0214,0.0032,0.0198,0.0064,-0.023,-0.0507,-0.0822,-0.1207,-0.1516,-0.1554,-0.1175,-0.0571,-0.0304,-0.0235,0.0048,0.0593,0.141,0.1991,0.2306,0.2621,0.2862,0.3006,0.3054,0.3033,-0.0262,-0.0374,-0.0486,-0.0593,-0.0715,-0.0785,-0.0769,-0.0678,-0.0566,-0.0513,-0.0513,-0.0555,-0.0625,-0.0705,-0.0758,-0.0753,-0.0694,-0.0593,-0.0475,-0.0342,-0.0187,-0.0032,0.0096,0.0214,0.0342,0.0454,0.0507,0.0416,0.0123,-0.024,-0.0593,-0.0966,-0.1335,-0.1447,-0.1116,-0.0518,-0.0064,-0.008,-0.0085,0.0283,0.0742,0.1383,0.1943,0.2232,0.2483,0.2675,0.2744,-0.032,-0.0352,-0.0395,-0.047,-0.0555,-0.0593,-0.0577,-0.0539,-0.0534,-0.0577,-0.0651,-0.0731,-0.0785,-0.0806,-0.079,-0.0726,-0.0625,-0.0502,-0.0384,-0.0256,-0.0112,0.0048,0.0187,0.0278,0.0326,0.0358,0.0368,0.0336,0.024,0.0107,-0.0096,-0.0384,-0.0731,-0.1062,-0.1148,-0.0918,-0.0454,0.0208,0.0464,0.0101,-0.0016,0.0459,0.094,0.1281,0.1586,0.1767,0.1858,-0.1522,-0.141,-0.1089,-0.0796,-0.0657,-0.0635,-0.0657,-0.0689,-0.0731,-0.0774,-0.0796,-0.078,-0.0747,-0.0726,-0.0705,-0.0641,-0.0545,-0.0427,-0.031,-0.0187,-0.0053,0.0075,0.0155,0.0166,0.0149,0.0128,0.0117,0.0117,0.0112,0.0101,0.0085,0.0032,-0.016,-0.0486,-0.0721,-0.079,-0.0673,-0.0336,0.0208,0.0796,0.0705,0.0091,0.0064,0.0555,0.0817,0.0817,0.0844,-0.2194,-0.1986,-0.1596,-0.1153,-0.0844,-0.0737,-0.0763,-0.0929,-0.1303,-0.1778,-0.2082,-0.2077,-0.1687,-0.11,-0.0721,-0.0566,-0.0459,-0.0342,-0.0224,-0.0112,-0.0011,0.0053,0.0053,0.0011,-0.0048,-0.008,-0.0075,-0.0032,0.0032,0.0085,0.0096,0.0069,0.0011,-0.0133,-0.0368,-0.0486,-0.0481,-0.0459,-0.0262,0.0149,0.063,0.0993,0.0747,0.0166,0.0155,0.0577,0.0902,-0.229,-0.2088,-0.1709,-0.134,-0.1207,-0.1313,-0.1554,-0.2002,-0.276,-0.3337,-0.3385,-0.3102,-0.2632,-0.1938,-0.1127,-0.0598,-0.039,-0.0262,-0.0155,-0.0069,-0.0021,-0.0027,-0.0069,-0.0123,-0.0171,-0.0182,-0.0144,-0.0069,0.0011,0.0064,0.0096,0.0101,0.0091,0.0032,-0.016,-0.0342,-0.032,-0.0267,-0.0304,-0.0288,-0.0166,0.0176,0.0721,0.0908,0.0753,0.0721,0.0833,-0.2696,-0.2563,-0.2461,-0.2675,-0.3102,-0.3273,-0.3118,-0.299,-0.3198,-0.338,-0.3219,-0.2947,-0.2627,-0.1991,-0.1132,-0.0561,-0.0326,-0.0182,-0.0085,-0.0053,-0.0064,-0.0112,-0.0155,-0.0192,-0.023,-0.024,-0.0208,-0.0144,-0.0069,0.0005,0.0075,0.0123,0.0128,0.0091,-0.0048,-0.0278,-0.0336,-0.0224,-0.0288,-0.0427,-0.0411,-0.0283,-0.0128,0.0091,0.0577,0.1004,0.0988,-0.2557,-0.2787,-0.2728,-0.2819,-0.3161,-0.3454,-0.3615,-0.3417,-0.3369,-0.3294,-0.2862,-0.2301,-0.2248,-0.1506,-0.055,-0.0198,-0.0091,-0.0069,-0.0059,-0.0064,-0.0101,-0.0155,-0.0182,-0.0192,-0.023,-0.0256,-0.0272,-0.0272,-0.0246,-0.0176,-0.0069,0.0027,0.0027,-0.0032,-0.0117,-0.0299,-0.0443,-0.0368,-0.0283,-0.0336,-0.0395,-0.039,-0.039,-0.0368,-0.0352,-0.0438,-0.0571,0,0,-0.1095,-0.2274,-0.2296,-0.2648,-0.323,-0.2744,-0.2253,-0.1532,-0.0481,0.0123,0,0.0598,0.0966,0.0539,0.0224,0.0069,-0.0011,-0.0059,-0.0112,-0.0182,-0.0187,-0.0155,-0.0187,-0.0219,-0.0267,-0.0342,-0.0427,-0.0507,-0.0635,-0.0833,-0.0924,-0.0737,-0.0507,-0.0491,-0.0625,-0.0651,-0.0545,-0.0582,-0.0689,-0.0689,-0.0769,-0.1041,-0.1313,-0.1431,-0.1452,-0.1041,-0.1319,-0.1805,-0.1095,-0.0278,0,0,-0.1052,-0.15,-0.0945,-0.126,-0.2221,-0.0459,0.2045,0,0,0,0,0,0,0,0,-0.0091,-0.0182,-0.016,-0.0144,-0.0187,-0.0326,-0.0464,-0.0662,-0.1244,-0.197,-0.2312,-0.22,-0.1933,-0.1602,-0.1143,-0.087,-0.0817,-0.0747,-0.0726,-0.0854,-0.1036,-0.1095,-0.1046,-0.1052,-0.1292,-0.2221,-0.2568,-0.2493,-0.189,-0.1564,-0.0929,-0.0224,0.0737,0.1602,0,0,0,-0.1271,-0.3449,-0.3625,-0.2525,-0.1858,-0.0993,-0.008,0.0235,0.0208,0,0,0,0,0,0,0,-0.0187,-0.0561,-0.1164,-0.1986,-0.2509,-0.2136,-0.1687,-0.1474,-0.1084,-0.0731,-0.0523,-0.0438,-0.0459,-0.055,-0.0625,-0.0699,-0.0769,-0.086,-0.094,-0.2088,-0.1975,-0.1452,-0.1169,-0.1132,-0.11,-0.0908,-0.1217,-0.1943,-0.2344,-0.3177,-0.1927,-0.0219,-0.0945,-0.1639,-0.1799,-0.1345,-0.0801,-0.0513,-0.0438,-0.0416,0,0,0,0,0,0,0,0,0,0,0,0,-0.0651,-0.1046,-0.0625,-0.0187,0.0117,-0.0005,-0.0128,-0.0123,-0.0155,-0.0203,-0.0256,-0.0347,-0.0411,-0.0432,0,-0.0422,-0.0667,-0.0304,0.0416,0.0876,0,0,0,0,0,-0.0619,-0.1276,-0.158,-0.189,-0.1639,-0.1036,-0.0464,-0.0149,-0.0101,0,0,0,0,0,0,0,0,0,0,0,0,0,0,0,0,0.0288,0.0705,0,0,-0.024,-0.024,-0.0208,-0.0192,-0.0166,-0.016,-0.0192,0,0,0,-0.0091,-0.0085,0.0005,0,0,0,0,0,-0.0288,-0.0902,-0.1591,-0.1853,-0.1436,-0.0763,-0.0443,-0.0416,0,0,0,0,0,0,0,0,0,0,0,0,0,0,0,0,0,0,-0.1393,-0.1522,0,0,0,0,0,0,0,-0.0037,0,0,0,0,0,0,0,0,0,0,0,-0.0294,-0.0886,-0.1516,-0.165,-0.1025,-0.0294,0.0005,0,0,0,0,0,0,0,0,0,0,0,0,0,0,0,0,0,0,0,0,-0.1628,-0.1965,-0.0486,-0.031,0,0,0,0,0,0,0,0,0,0,0,0,0,0,0,0,-0.0363,-0.0913,-0.1351,-0.1377,-0.0715,-0.0278,0,0,0,0,0,0,0,0,0,0,0,0,0,0,0,0,0,0,0,0,0,0,-0.086,-0.1356,-0.095,-0.0886,-0.0534,-0.0219,0,0,0,0,0,0,0,0,0,0,0,0,0,0,-0.1025,-0.1303,-0.1297,-0.0683,-0.0283,0,0,0,0,0,0,0,0,0,0,0,0,0,0,0,0,0,0,0,0,0,0,0,0,0,0,-0.0208,-0.0416,0,0,0,0,0,0,0,0,0,0,0,0,0,0,-0.0619,-0.126,-0.1004,-0.047,-0.0203,0,0,0,0,0,0,0,0,0,0,0,0,0,0,0,0,0,0,0,0,0,0,0,0,0,0,0,0,0,0,0,0,0,0,0,0,0,0,0,0,0,0,-0.0331,-0.0507,-0.039,-0.008,0.0294,0,0,0,0,0,0,0,0,0,0,0,0,0,0,0,0,0,0,0,0,0,0,0,0,0,0,0,0,0,0,0,0,0,0,0,0,0,0,0,0,0,0,0.0192,0.0625,0.0603,0.0267,0.0214,0,0,0,0,0,0,0,0,0,0,0,0,0,0,0,0,0,0,0,0,0,0,0,0,0,0,0,0,0,0,0,0,0,0,0,0,0,0,0,0,0,0,0,0.0705,0.1191,0.0742,0.0486,0,0,0,0,0,0,0,0,0,0,0,0,0,0,0,0,0,0,0,0,0,0,0,0,0,0,0,0,0,0,0,0,0,0,0,0,0,0,0,0,0,0,0,-0.0171,-0.023,-0.0448,-0.0753,0,0,0,0,0,0,0,0,0,0,0,0,0,0,0,0,0,0,0,0,0,0,0,0,0,0,0,0,0,0,0,0,0,0,0,0,0,0,0,0,0,0,0,0,0.0128,0.0256,0,0,0,0,0,0,0,0,0,0,0,0,0,0,0,0,0,0,0,0,0,0,0,0,0,0,0,0,0,0,0,0,0,0,0,0,0,0,0,0,0,0,0,0,0,0,0,0,0,0,0,0,0,0,0,0,0,0,0,0,0,0,0,0,0,0,0,0,0,0,0,0,0,0,0,0,0,0,0,0,0,0,0,0,0,0,0,0,0,0,0,0,0,0,0,0,0,0,0,0,0,0,0,0,0,0,0,0,0,0,0,0,0,0,0,0,0,0,0,0,0,0,0,0,0,0,0,0,0,0,0,0,0,0,0,0,0,0,0,0,0,0,0,0,0,0,0,0,0,0,0,0,0,0,0,0,0,0,0,0,0,0,0,0,0,0,0,0,0,0,0,0,0,0,0,0,0,0,0,0,0,0,0,0,0,0,0,0,0,0,0,0,0,0,0,0,0,0,0,0,0,0,0,0,0,0,0,0,0,0,0,0,0,0,0,0,0,0,0,0,0,0,0,0,0,0,0,0,0,0,0,0,0,0,0,0,0,0,0,0,0,0,0,0,0,0,0,0,0,0,0,0,0,0,0,0,0,0,0,0,0,0,0,0,0,0,0,0,0,0,0,0,0,0,0,0,0,0,0,0,0,0,0,0,0,0,0,0,0,0,0,0,0,0,0,0,0,0,0,0,0,0,0,0,0,0,0,0,0,0,0,0,0]}],[{"header":{"parameterUnit":"kt","parameterCategory":2,"dx":1,"dy":1,"la1":29.764190673828125,"la2":30.86408042907715,"lo1":-88.46762084960938,"lo2":-86.9344482421875,"nx":47,"ny":34,"refTime":"2022-10-07T00:00:00:Z","depth":"4","parameterNumber":3,"parameterNumberName":"V-component_of_CURRENTS"},"data":[-0.2461,-0.1522,-0.0603,-0.0235,0.0187,0.0443,0.055,0.0587,0.0699,0.0651,0.0256,-0.0331,-0.0208,0.008,0.008,0.0096,-0.0005,-0.0048,-0.0016,0.0016,-0.0288,-0.0566,-0.039,-0.0123,-0.0331,-0.1164,-0.1874,-0.1965,-0.1639,-0.1442,-0.166,-0.2061,-0.2285,-0.2237,-0.189,-0.1287,-0.0747,-0.031,-0.0053,-0.0037,-0.024,-0.0614,-0.103,-0.1436,-0.1901,-0.252,-0.3209,-0.2467,-0.1698,-0.0694,-0.0363,0.0037,0.0368,0.0529,0.0571,0.0598,0.0368,-0.0101,-0.0267,0.0043,0.0091,-0.0011,-0.0075,-0.0128,-0.0085,-0.0016,0.0027,-0.0288,-0.0587,-0.0315,0.0139,-0.0107,-0.0993,-0.1735,-0.2045,-0.1826,-0.1404,-0.118,-0.1377,-0.1714,-0.1906,-0.1874,-0.1666,-0.1532,-0.1361,-0.1185,-0.1116,-0.1196,-0.1442,-0.1783,-0.2189,-0.2643,-0.3129,-0.354,-0.2168,-0.1783,-0.0934,-0.0448,-0.0085,0.0187,0.0288,0.0331,0.0208,-0.0096,-0.0219,0.0037,0.0182,-0.0037,-0.0155,-0.0251,-0.0176,-0.0069,0.0043,0.0053,-0.0272,-0.0513,-0.0171,0.0379,0.023,-0.078,-0.1436,-0.1917,-0.2013,-0.1762,-0.1436,-0.1185,-0.1201,-0.1356,-0.1463,-0.1468,-0.1522,-0.1559,-0.1596,-0.1628,-0.1634,-0.1682,-0.1858,-0.2136,-0.2461,-0.275,-0.2963,-0.1687,-0.1591,-0.1105,-0.0577,-0.0272,-0.0075,-0.0016,-0.0048,-0.016,-0.0198,-0.0005,0.0182,0.0032,-0.0203,-0.0326,-0.0288,-0.0155,-0.0011,0.0112,0.0085,-0.0192,-0.0406,-0.0166,0.0342,0.0406,-0.0395,-0.1153,-0.1639,-0.1858,-0.1863,-0.1676,-0.1474,-0.1292,-0.1132,-0.0966,-0.095,-0.103,-0.1169,-0.1255,-0.1303,-0.1239,-0.1175,-0.1196,-0.1313,-0.15,-0.1687,-0.1837,-0.1191,-0.1207,-0.0961,-0.0582,-0.04,-0.0246,-0.0192,-0.0192,-0.0203,-0.0149,-0.0021,-0.0053,-0.0256,-0.0347,-0.0358,-0.0214,-0.0075,0.0043,0.0117,0.0117,-0.0043,-0.0288,-0.0256,0.0032,0.0176,-0.0187,-0.0812,-0.1303,-0.1548,-0.1682,-0.1676,-0.1612,-0.157,-0.1484,-0.11,-0.0641,-0.0475,-0.0454,-0.0635,-0.0726,-0.0689,-0.0721,-0.0683,-0.063,-0.0657,-0.0731,-0.0758,-0.0753,-0.0801,-0.0651,-0.0523,-0.0454,-0.0374,-0.0331,-0.032,-0.032,-0.032,-0.0299,-0.0304,-0.0352,-0.0352,-0.024,-0.0107,-0.0011,0.0053,0.0075,0.0085,0.0043,-0.0149,-0.0288,-0.0251,-0.0187,-0.0256,-0.0518,-0.0908,-0.1201,-0.1377,-0.1511,-0.1559,-0.1602,-0.166,-0.1602,-0.1249,-0.0742,-0.0214,-0.0043,0.0021,-0.0107,-0.0267,-0.0235,-0.0149,-0.008,0.0016,0.0139,-0.0464,-0.0464,-0.0422,-0.0459,-0.0481,-0.0497,-0.0513,-0.0529,-0.0513,-0.0454,-0.0384,-0.031,-0.0262,-0.0224,-0.0128,-0.0053,0.0,0.0021,0.0016,0.0011,-0.0016,-0.0128,-0.0304,-0.0374,-0.0368,-0.032,-0.0352,-0.0539,-0.078,-0.0961,-0.1159,-0.1329,-0.15,-0.1596,-0.1602,-0.1596,-0.1442,-0.1223,-0.0582,-0.0059,0.0117,0.0304,0.0283,0.0246,0.0336,0.0545,0.0737,-0.0427,-0.0374,-0.0342,-0.0368,-0.0427,-0.0507,-0.0577,-0.0609,-0.0545,-0.0422,-0.0299,-0.0198,-0.0149,-0.0112,-0.0069,-0.0053,-0.0037,-0.0032,-0.0043,-0.0075,-0.0133,-0.024,-0.0384,-0.0454,-0.0411,-0.0326,-0.0272,-0.0331,-0.0454,-0.0609,-0.0774,-0.094,-0.118,-0.1458,-0.1484,-0.1345,-0.1351,-0.1596,-0.1703,-0.1479,-0.078,-0.0107,0.0016,0.0203,0.0336,0.0497,0.0651,-0.0619,-0.0619,-0.0577,-0.0459,-0.0422,-0.0475,-0.0571,-0.0614,-0.0545,-0.0395,-0.0262,-0.0166,-0.0096,-0.0048,-0.0032,-0.0069,-0.0085,-0.0096,-0.0112,-0.016,-0.0246,-0.0363,-0.0464,-0.0497,-0.0438,-0.0336,-0.0256,-0.0256,-0.0331,-0.0448,-0.0561,-0.0662,-0.0774,-0.1084,-0.1335,-0.1303,-0.1068,-0.1046,-0.1484,-0.1911,-0.2082,-0.1741,-0.1004,-0.0427,-0.0352,-0.032,-0.0267,-0.0854,-0.1009,-0.0998,-0.0742,-0.0529,-0.0491,-0.0513,-0.0555,-0.0571,-0.0464,-0.039,-0.0379,-0.0363,-0.0246,-0.0101,-0.0112,-0.0139,-0.0149,-0.0176,-0.0235,-0.0331,-0.0427,-0.0475,-0.047,-0.0416,-0.0326,-0.0256,-0.0256,-0.0326,-0.0422,-0.0491,-0.0523,-0.0497,-0.0705,-0.1062,-0.1207,-0.1164,-0.0988,-0.0763,-0.0892,-0.1602,-0.22,-0.2216,-0.1885,-0.1516,-0.1308,-0.1335,-0.0908,-0.1228,-0.1233,-0.094,-0.0641,-0.0566,-0.0534,-0.0545,-0.0416,-0.0342,-0.0432,-0.0625,-0.0822,-0.0774,-0.0486,-0.0251,-0.0219,-0.0208,-0.023,-0.0294,-0.0368,-0.0427,-0.0427,-0.04,-0.0358,-0.031,-0.0288,-0.032,-0.039,-0.0454,-0.047,-0.047,-0.0422,-0.0454,-0.0737,-0.1004,-0.1153,-0.1137,-0.0918,-0.0657,-0.0561,-0.0956,-0.173,-0.2322,-0.2467,-0.2536,-0.2643,-0.0918,-0.1271,-0.1287,-0.0972,-0.0924,-0.0934,-0.0865,-0.0587,0.0064,0.0101,-0.024,-0.0539,-0.0822,-0.1575,-0.0881,-0.0432,-0.0336,-0.0283,-0.0262,-0.0294,-0.0342,-0.0368,-0.0363,-0.032,-0.0299,-0.0299,-0.0342,-0.0411,-0.0491,-0.0529,-0.0513,-0.047,-0.039,-0.0315,-0.0443,-0.0785,-0.0993,-0.1014,-0.0988,-0.0892,-0.0763,-0.0838,-0.102,-0.1303,-0.1532,-0.2104,-0.268,-0.0908,-0.1212,-0.1356,-0.0731,-0.087,-0.0865,-0.0785,-0.0822,0.0294,0.0368,0.0139,-0.0069,-0.039,-0.3177,-0.0913,-0.0518,-0.0374,-0.0288,-0.023,-0.0224,-0.024,-0.0262,-0.0315,-0.0235,-0.0219,-0.0251,-0.0336,-0.0464,-0.0593,-0.0657,-0.0667,-0.0545,-0.0368,-0.024,-0.0219,-0.0475,-0.0849,-0.0838,-0.0737,-0.0715,-0.0828,-0.1223,-0.1319,-0.0966,-0.0699,-0.1196,-0.1719,0,0,-0.0379,-0.0144,-0.0117,-0.0144,-0.0299,-0.1468,0.0304,0.0673,0.0059,-0.0416,0,-0.4869,-0.0459,-0.0534,-0.0347,-0.0246,-0.0187,-0.016,-0.0166,-0.0192,-0.0299,-0.0133,-0.0107,-0.016,-0.0246,-0.039,-0.0603,-0.0737,-0.0966,-0.0881,-0.0635,-0.0448,-0.0182,-0.0219,-0.0641,-0.0828,-0.0651,-0.0481,-0.0609,-0.094,-0.0998,-0.0812,-0.0854,-0.1233,-0.1393,-0.0085,0.0091,0.0513,-0.0368,-0.0085,0,0,-0.0678,0.0075,0.0566,-0.0416,-0.0977,-0.3262,-0.4533,0,0,0,0,0,0,0,0,-0.0304,-0.0075,-0.0043,-0.0096,-0.0171,-0.031,-0.0518,-0.0667,-0.1121,-0.1046,-0.0881,-0.0854,-0.0459,-0.0523,-0.0908,-0.102,-0.0699,-0.0438,-0.0497,-0.0662,-0.0678,-0.0582,-0.0587,-0.0742,-0.0886,-0.0192,0.04,0.0603,-0.0577,-0.0427,-0.0064,0.0123,0.0224,-0.0005,0,0,0,-0.5083,-0.3017,-0.102,-0.0571,-0.0497,-0.055,-0.0283,0.0101,0.0182,0,0,0,0,0,0,0,-0.024,-0.0374,-0.0945,-0.0774,-0.063,-0.1073,-0.0304,-0.0763,-0.1538,-0.1703,-0.0982,-0.0491,-0.0347,-0.0427,-0.0475,-0.0561,-0.0529,-0.0464,-0.0481,-0.0214,-0.0037,0.094,0.0363,-0.0224,-0.0048,0.024,-0.0272,-0.0005,0.0,0.0,-0.2557,-0.3086,-0.2264,-0.1639,-0.1212,-0.1127,-0.1004,-0.0475,0.0219,0.0358,0,0,0,0,0,0,0,0,0,0,0,0,-0.1281,0.0304,-0.0641,-0.1719,-0.1885,-0.1137,-0.0406,-0.0208,-0.023,-0.0267,-0.0336,-0.0294,-0.0267,-0.032,0,-0.0699,0.1111,0.0753,0.0171,-0.04,0,0,0,0,0,-0.4079,-0.2371,-0.1468,-0.1116,-0.1458,-0.1452,-0.0881,-0.0267,0.0256,0,0,0,0,0,0,0,0,0,0,0,0,0,0,0,0,-0.197,-0.1372,0,0,-0.0171,-0.0085,-0.0139,-0.0166,-0.0112,-0.0176,-0.0214,0,0,0,0.0411,0.0224,-0.078,0,0,0,0,0,-0.2712,-0.1799,-0.0747,-0.1004,-0.1799,-0.1778,-0.0641,-0.0149,0,0,0,0,0,0,0,0,0,0,0,0,0,0,0,0,0,0,-0.1078,-0.1527,0,0,0,0,0,0,0,-0.0155,0,0,0,0,0,0,0,0,0,0,0,-0.212,-0.1265,-0.0235,-0.1137,-0.2066,-0.197,-0.0411,0,0,0,0,0,0,0,0,0,0,0,0,0,0,0,0,0,0,0,0,-0.3054,-0.11,-0.0005,0.0139,0,0,0,0,0,0,0,0,0,0,0,0,0,0,0,0,-0.1575,-0.1014,0.0155,-0.1319,-0.2296,-0.1858,0,0,0,0,0,0,0,0,0,0,0,0,0,0,0,0,0,0,0,0,0,0,-0.22,-0.0011,0.0278,0.0,-0.0235,0.0021,0,0,0,0,0,0,0,0,0,0,0,0,0,0,-0.095,0.0304,-0.1452,-0.2435,-0.1692,0,0,0,0,0,0,0,0,0,0,0,0,0,0,0,0,0,0,0,0,0,0,0,0,0,0,-0.047,0.0043,0,0,0,0,0,0,0,0,0,0,0,0,0,0,-0.0731,0.0048,-0.1671,-0.2472,-0.1762,0,0,0,0,0,0,0,0,0,0,0,0,0,0,0,0,0,0,0,0,0,0,0,0,0,0,0,0,0,0,0,0,0,0,0,0,0,0,0,0,0,0,-0.0064,-0.0342,-0.1442,-0.2638,-0.15,0,0,0,0,0,0,0,0,0,0,0,0,0,0,0,0,0,0,0,0,0,0,0,0,0,0,0,0,0,0,0,0,0,0,0,0,0,0,0,0,0,0,0.0336,-0.0352,-0.0422,-0.2365,-0.0918,0,0,0,0,0,0,0,0,0,0,0,0,0,0,0,0,0,0,0,0,0,0,0,0,0,0,0,0,0,0,0,0,0,0,0,0,0,0,0,0,0,0,0,0.008,0.0192,-0.118,-0.0331,0,0,0,0,0,0,0,0,0,0,0,0,0,0,0,0,0,0,0,0,0,0,0,0,0,0,0,0,0,0,0,0,0,0,0,0,0,0,0,0,0,0,0,0.04,0.0214,-0.0411,0.0005,0,0,0,0,0,0,0,0,0,0,0,0,0,0,0,0,0,0,0,0,0,0,0,0,0,0,0,0,0,0,0,0,0,0,0,0,0,0,0,0,0,0,0,0,0.0176,-0.0411,0,0,0,0,0,0,0,0,0,0,0,0,0,0,0,0,0,0,0,0,0,0,0,0,0,0,0,0,0,0,0,0,0,0,0,0,0,0,0,0,0,0,0,0,0,0,0,0,0,0,0,0,0,0,0,0,0,0,0,0,0,0,0,0,0,0,0,0,0,0,0,0,0,0,0,0,0,0,0,0,0,0,0,0,0,0,0,0,0,0,0,0,0,0,0,0,0,0,0,0,0,0,0,0,0,0,0,0,0,0,0,0,0,0,0,0,0,0,0,0,0,0,0,0,0,0,0,0,0,0,0,0,0,0,0,0,0,0,0,0,0,0,0,0,0,0,0,0,0,0,0,0,0,0,0,0,0,0,0,0,0,0,0,0,0,0,0,0,0,0,0,0,0,0,0,0,0,0,0,0,0,0,0,0,0,0,0,0,0,0,0,0,0,0,0,0,0,0,0,0,0,0,0,0,0,0,0,0,0,0,0,0,0,0,0,0,0,0,0,0,0,0,0,0,0,0,0,0,0,0,0,0,0,0,0,0,0,0,0,0,0,0,0,0,0,0,0,0,0,0,0,0,0,0,0,0,0,0,0,0,0,0,0,0,0,0,0,0,0,0,0,0,0,0,0,0,0,0,0,0,0,0,0,0,0,0,0,0,0,0,0,0,0,0,0,0,0,0,0,0,0,0,0,0,0,0,0,0,0,0,0,0,0]}]],[[{"header":{"parameterUnit":"kt","parameterCategory":2,"dx":1,"dy":1,"la1":29.764190673828125,"la2":30.86408042907715,"lo1":-88.46762084960938,"lo2":-86.9344482421875,"nx":47,"ny":34,"refTime":"2022-10-07T00:00:00:Z","depth":"6","parameterNumber":2,"parameterNumberName":"U-component_of_CURRENTS"},"data":[-0.0486,-0.0427,-0.0336,-0.0166,0.0011,0.0043,-0.0133,-0.0299,-0.032,-0.0374,-0.0422,-0.04,-0.0571,-0.0865,-0.0908,-0.0747,-0.0619,-0.0561,-0.0571,-0.0555,-0.0432,-0.0299,-0.0342,-0.0603,-0.0913,-0.0945,-0.086,-0.086,-0.0673,-0.0331,0.0064,0.0363,0.0475,0.0539,0.0464,0.0427,0.063,0.0956,0.1303,0.1612,0.1805,0.1863,0.1815,0.1676,0.149,0.1297,0.1105,-0.1127,-0.1159,-0.102,-0.0828,-0.0635,-0.0497,-0.0507,-0.0609,-0.0737,-0.0694,-0.0454,-0.0454,-0.0726,-0.0918,-0.087,-0.0657,-0.0443,-0.0342,-0.04,-0.0582,-0.0582,-0.04,-0.0384,-0.0689,-0.1121,-0.1377,-0.1351,-0.1303,-0.1217,-0.0881,-0.0486,-0.0075,0.0326,0.0571,0.0742,0.0886,0.103,0.1217,0.1426,0.1623,0.1778,0.1858,0.1885,0.1853,0.1757,0.1655,0.1607,-0.158,-0.1698,-0.1607,-0.1372,-0.1249,-0.1217,-0.1212,-0.1207,-0.0993,-0.0523,-0.0288,-0.0529,-0.0849,-0.0897,-0.0721,-0.0497,-0.0347,-0.032,-0.0374,-0.0497,-0.0555,-0.0491,-0.047,-0.0587,-0.0886,-0.1249,-0.15,-0.158,-0.1516,-0.1313,-0.102,-0.0747,-0.04,0.0203,0.0758,0.0982,0.118,0.1479,0.1767,0.1986,0.2162,0.228,0.2371,0.2429,0.2435,0.2408,0.236,-0.173,-0.1842,-0.1901,-0.1869,-0.1757,-0.1575,-0.1361,-0.0993,-0.0603,-0.0497,-0.0694,-0.0897,-0.0854,-0.071,-0.0529,-0.039,-0.0368,-0.0406,-0.0432,-0.0432,-0.0491,-0.0555,-0.0529,-0.0459,-0.055,-0.0763,-0.1036,-0.1324,-0.1511,-0.1559,-0.1345,-0.102,-0.0796,-0.0593,-0.0043,0.0694,0.1271,0.1692,0.1943,0.2157,0.2424,0.2648,0.2803,0.2894,0.292,0.2872,0.2728,-0.1463,-0.1709,-0.1666,-0.157,-0.1447,-0.1308,-0.1153,-0.1057,-0.1052,-0.1068,-0.0998,-0.0817,-0.0603,-0.0464,-0.0406,-0.0438,-0.0513,-0.0545,-0.0507,-0.0459,-0.0502,-0.0625,-0.0667,-0.0518,-0.0331,-0.0379,-0.0566,-0.0726,-0.0993,-0.1319,-0.1511,-0.142,-0.1036,-0.0641,-0.0432,-0.0139,0.0443,0.1212,0.181,0.2184,0.2504,0.2702,0.2851,0.2985,0.3043,0.3001,0.2904,-0.0486,-0.0945,-0.1388,-0.1522,-0.1452,-0.1351,-0.1249,-0.1159,-0.1025,-0.0828,-0.0635,-0.0497,-0.0448,-0.0486,-0.0555,-0.0625,-0.0646,-0.0598,-0.0502,-0.0379,-0.0267,-0.0267,-0.0294,-0.0182,0.0064,0.0235,0.0101,-0.0192,-0.047,-0.079,-0.1175,-0.1479,-0.1511,-0.1132,-0.0534,-0.0272,-0.0198,0.0085,0.0635,0.1447,0.2029,0.2339,0.2654,0.2894,0.3033,0.3081,0.3059,-0.0224,-0.0331,-0.0448,-0.0555,-0.0678,-0.0747,-0.0731,-0.0641,-0.0529,-0.047,-0.047,-0.0507,-0.0582,-0.0662,-0.0715,-0.071,-0.0646,-0.055,-0.0432,-0.0304,-0.0155,0.0,0.0128,0.0246,0.0379,0.0486,0.0545,0.0448,0.016,-0.0208,-0.0555,-0.0934,-0.1297,-0.1404,-0.1073,-0.0481,-0.0027,-0.0043,-0.0048,0.032,0.078,0.142,0.1975,0.2264,0.2515,0.2702,0.2776,-0.0283,-0.0315,-0.0358,-0.0432,-0.0513,-0.055,-0.0534,-0.0502,-0.0491,-0.0534,-0.0603,-0.0683,-0.0737,-0.0758,-0.0747,-0.0683,-0.0582,-0.0464,-0.0347,-0.0219,-0.008,0.008,0.0219,0.031,0.0358,0.039,0.04,0.0368,0.0278,0.0139,-0.0064,-0.0352,-0.0699,-0.1025,-0.1105,-0.0876,-0.0406,0.0251,0.0507,0.0144,0.0027,0.0497,0.0977,0.1319,0.1618,0.1799,0.189,-0.1463,-0.1351,-0.1041,-0.0753,-0.0619,-0.0593,-0.0614,-0.0651,-0.0689,-0.0726,-0.0747,-0.0731,-0.0699,-0.0683,-0.0662,-0.0603,-0.0502,-0.039,-0.0272,-0.0149,-0.0021,0.0107,0.0182,0.0198,0.0182,0.0166,0.0155,0.0149,0.0149,0.0139,0.0123,0.0069,-0.0128,-0.0454,-0.0689,-0.0747,-0.063,-0.0288,0.0256,0.0844,0.0747,0.0139,0.0107,0.0593,0.0854,0.0854,0.0876,-0.2088,-0.1895,-0.1527,-0.1105,-0.0806,-0.0694,-0.0721,-0.0876,-0.1233,-0.1666,-0.1933,-0.1938,-0.1586,-0.1041,-0.0678,-0.0523,-0.0416,-0.0304,-0.0192,-0.008,0.0021,0.008,0.0085,0.0037,-0.0016,-0.0048,-0.0043,0.0,0.0064,0.0117,0.0128,0.0101,0.0043,-0.0101,-0.0331,-0.0443,-0.0438,-0.0416,-0.0219,0.0198,0.0678,0.1041,0.0796,0.0208,0.0192,0.0614,0.094,-0.2141,-0.1981,-0.1639,-0.1292,-0.1164,-0.1265,-0.149,-0.1874,-0.2472,-0.2894,-0.2915,-0.2686,-0.2322,-0.1757,-0.1036,-0.055,-0.0352,-0.023,-0.0123,-0.0037,0.0005,0.0,-0.0037,-0.0096,-0.0144,-0.0155,-0.0112,-0.0043,0.0043,0.0101,0.0128,0.0139,0.0128,0.0069,-0.0123,-0.0304,-0.0278,-0.023,-0.0262,-0.0246,-0.0117,0.0235,0.0769,0.095,0.0796,0.0758,0.087,-0.229,-0.2296,-0.2296,-0.2515,-0.284,-0.2899,-0.2707,-0.2531,-0.2611,-0.268,-0.2509,-0.2285,-0.2077,-0.1618,-0.0966,-0.0518,-0.0294,-0.0149,-0.0053,-0.0021,-0.0032,-0.008,-0.0123,-0.0166,-0.0203,-0.0214,-0.0182,-0.0117,-0.0037,0.0037,0.0107,0.0155,0.016,0.0128,-0.0011,-0.024,-0.0294,-0.0187,-0.0256,-0.039,-0.0374,-0.024,-0.008,0.0144,0.0619,0.103,0.1014,-0.1799,-0.2274,-0.2349,-0.2456,-0.2621,-0.267,-0.2776,-0.267,-0.2493,-0.2168,-0.1671,-0.0726,-0.1479,-0.1014,-0.0384,-0.0176,-0.0069,-0.0037,-0.0027,-0.0027,-0.0069,-0.0123,-0.0149,-0.0166,-0.0203,-0.023,-0.0246,-0.0246,-0.0219,-0.0149,-0.0037,0.0059,0.0064,0.0005,-0.008,-0.0262,-0.0406,-0.0331,-0.0246,-0.0299,-0.0352,-0.0352,-0.0352,-0.0331,-0.0315,-0.039,-0.0523,0,0,-0.0545,-0.102,-0.0833,-0.1618,-0.2152,-0.181,-0.0886,0.0518,0.1249,0.1692,0,0.0812,0.1196,0.055,0.0246,0.0096,0.0021,-0.0032,-0.0085,-0.0155,-0.016,-0.0133,-0.016,-0.0198,-0.024,-0.032,-0.04,-0.0475,-0.0587,-0.0753,-0.0838,-0.0667,-0.0464,-0.0459,-0.0593,-0.0619,-0.0507,-0.0545,-0.0651,-0.0651,-0.0731,-0.1004,-0.1276,-0.1399,-0.1415,-0.0977,-0.0945,-0.055,0.0747,0.1671,0,0,0.0053,0.055,0.1073,0.0886,-0.0021,0.0753,0.2232,0,0,0,0,0,0,0,0,-0.008,-0.016,-0.0139,-0.0128,-0.0166,-0.0299,-0.0438,-0.0614,-0.0876,-0.1265,-0.1591,-0.1602,-0.1543,-0.1415,-0.1073,-0.0838,-0.0785,-0.071,-0.0689,-0.0817,-0.1004,-0.1062,-0.1009,-0.1025,-0.126,-0.1644,-0.1345,-0.0342,0.0379,0.055,0.0315,0.0454,0.1372,0.1751,0,0,0,-0.0683,-0.1698,-0.1522,-0.0849,-0.0518,-0.0144,0.0171,0.0256,0.0219,0,0,0,0,0,0,0,-0.0166,-0.0374,-0.0545,-0.071,-0.094,-0.0961,-0.0785,-0.0865,-0.0769,-0.0582,-0.0475,-0.0411,-0.0422,-0.0513,-0.0593,-0.0673,-0.0742,-0.0838,-0.0913,-0.1522,-0.0838,0.0005,-0.0304,-0.0763,-0.0497,-0.0149,0.0043,0.0475,0.0785,0.0577,0.1132,0.1244,0.0368,-0.0203,-0.0486,-0.047,-0.0416,-0.039,-0.0395,-0.039,0,0,0,0,0,0,0,0,0,0,0,0,-0.0064,0.039,0.0731,0.0609,0.0561,0.0139,-0.0112,-0.0112,-0.0128,-0.0176,-0.023,-0.0326,-0.039,-0.0411,0,0.0021,0.0304,0.055,0.0315,0.0043,0,0,0,0,0,-0.0454,-0.0481,-0.0374,-0.0801,-0.0769,-0.0497,-0.024,-0.0091,-0.0075,0,0,0,0,0,0,0,0,0,0,0,0,0,0,0,0,0.1399,0.1239,0,0,-0.0219,-0.0224,-0.0192,-0.0176,-0.0144,-0.0144,-0.0176,0,0,0,0.0326,0.047,0.0283,0,0,0,0,0,-0.0144,-0.04,-0.0742,-0.0721,-0.0347,-0.008,-0.0192,-0.0368,0,0,0,0,0,0,0,0,0,0,0,0,0,0,0,0,0,0,0.0096,-0.016,0,0,0,0,0,0,0,-0.0032,0,0,0,0,0,0,0,0,0,0,0,-0.0198,-0.0352,-0.0342,0.0064,0.0571,0.0352,0.0043,0,0,0,0,0,0,0,0,0,0,0,0,0,0,0,0,0,0,0,0,0.0432,0.0635,0.0491,0.0662,0,0,0,0,0,0,0,0,0,0,0,0,0,0,0,0,0.0,0.0112,0.0518,0.1095,0.1025,0.0683,0,0,0,0,0,0,0,0,0,0,0,0,0,0,0,0,0,0,0,0,0,0,-0.0011,0.0326,0.1057,0.086,0.031,0.0347,0,0,0,0,0,0,0,0,0,0,0,0,0,0,0.0529,0.1025,0.1655,0.1217,0.0908,0,0,0,0,0,0,0,0,0,0,0,0,0,0,0,0,0,0,0,0,0,0,0,0,0,0,-0.0091,-0.0182,0,0,0,0,0,0,0,0,0,0,0,0,0,0,-0.008,0.0956,0.1906,0.1426,0.1052,0,0,0,0,0,0,0,0,0,0,0,0,0,0,0,0,0,0,0,0,0,0,0,0,0,0,0,0,0,0,0,0,0,0,0,0,0,0,0,0,0,0,0.0416,0.1794,0.2189,0.1527,0.1292,0,0,0,0,0,0,0,0,0,0,0,0,0,0,0,0,0,0,0,0,0,0,0,0,0,0,0,0,0,0,0,0,0,0,0,0,0,0,0,0,0,0,0.1442,0.2819,0.2088,0.1201,0.0972,0,0,0,0,0,0,0,0,0,0,0,0,0,0,0,0,0,0,0,0,0,0,0,0,0,0,0,0,0,0,0,0,0,0,0,0,0,0,0,0,0,0,0,0.0582,0.1014,0.0769,0.0689,0,0,0,0,0,0,0,0,0,0,0,0,0,0,0,0,0,0,0,0,0,0,0,0,0,0,0,0,0,0,0,0,0,0,0,0,0,0,0,0,0,0,0,-0.0203,-0.0513,-0.0593,-0.0555,0,0,0,0,0,0,0,0,0,0,0,0,0,0,0,0,0,0,0,0,0,0,0,0,0,0,0,0,0,0,0,0,0,0,0,0,0,0,0,0,0,0,0,0,-0.0235,-0.0475,0,0,0,0,0,0,0,0,0,0,0,0,0,0,0,0,0,0,0,0,0,0,0,0,0,0,0,0,0,0,0,0,0,0,0,0,0,0,0,0,0,0,0,0,0,0,0,0,0,0,0,0,0,0,0,0,0,0,0,0,0,0,0,0,0,0,0,0,0,0,0,0,0,0,0,0,0,0,0,0,0,0,0,0,0,0,0,0,0,0,0,0,0,0,0,0,0,0,0,0,0,0,0,0,0,0,0,0,0,0,0,0,0,0,0,0,0,0,0,0,0,0,0,0,0,0,0,0,0,0,0,0,0,0,0,0,0,0,0,0,0,0,0,0,0,0,0,0,0,0,0,0,0,0,0,0,0,0,0,0,0,0,0,0,0,0,0,0,0,0,0,0,0,0,0,0,0,0,0,0,0,0,0,0,0,0,0,0,0,0,0,0,0,0,0,0,0,0,0,0,0,0,0,0,0,0,0,0,0,0,0,0,0,0,0,0,0,0,0,0,0,0,0,0,0,0,0,0,0,0,0,0,0,0,0,0,0,0,0,0,0,0,0,0,0,0,0,0,0,0,0,0,0,0,0,0,0,0,0,0,0,0,0,0,0,0,0,0,0,0,0,0,0,0,0,0,0,0,0,0,0,0,0,0,0,0,0,0,0,0,0,0,0,0,0,0,0,0,0,0,0,0,0,0,0,0,0,0,0,0,0,0,0]}],[{"header":{"parameterUnit":"kt","parameterCategory":2,"dx":1,"dy":1,"la1":29.764190673828125,"la2":30.86408042907715,"lo1":-88.46762084960938,"lo2":-86.9344482421875,"nx":47,"ny":34,"refTime":"2022-10-07T00:00:00:Z","depth":"6","parameterNumber":3,"parameterNumberName":"V-component_of_CURRENTS"},"data":[-0.2392,-0.1458,-0.0534,-0.0166,0.0251,0.0507,0.0614,0.0651,0.0774,0.0726,0.0331,-0.0256,-0.0139,0.0149,0.0144,0.0166,0.0059,0.0016,0.0048,0.0075,-0.0224,-0.0502,-0.0331,-0.0064,-0.0267,-0.1095,-0.1805,-0.1895,-0.1575,-0.1377,-0.1596,-0.1997,-0.2221,-0.2173,-0.1821,-0.1228,-0.0683,-0.0251,0.0011,0.0021,-0.0182,-0.0555,-0.0972,-0.1377,-0.1842,-0.2467,-0.3155,-0.2397,-0.1623,-0.063,-0.0299,0.0101,0.0432,0.0598,0.0646,0.0673,0.0448,-0.0027,-0.0192,0.0107,0.016,0.0059,-0.0011,-0.0064,-0.0027,0.0043,0.0091,-0.0224,-0.0529,-0.0256,0.0198,-0.0043,-0.0918,-0.166,-0.1975,-0.1757,-0.1335,-0.1116,-0.1308,-0.1644,-0.1842,-0.1805,-0.1596,-0.1463,-0.1292,-0.1116,-0.1052,-0.1132,-0.1377,-0.1725,-0.213,-0.2584,-0.307,-0.3486,-0.2093,-0.1709,-0.0865,-0.0379,-0.0016,0.0262,0.0368,0.0416,0.0294,-0.0016,-0.0149,0.0107,0.0246,0.0032,-0.0091,-0.0182,-0.0112,-0.0005,0.0107,0.0117,-0.0208,-0.0448,-0.0112,0.0443,0.0294,-0.0705,-0.1367,-0.1837,-0.1938,-0.1692,-0.1361,-0.1116,-0.1132,-0.1281,-0.1393,-0.1399,-0.1452,-0.149,-0.1527,-0.1559,-0.1564,-0.1618,-0.1794,-0.2077,-0.2403,-0.2691,-0.2904,-0.1607,-0.1511,-0.1025,-0.0497,-0.0192,0.0005,0.0064,0.0032,-0.008,-0.0128,0.0059,0.0251,0.0101,-0.0133,-0.0262,-0.0224,-0.0091,0.0053,0.0182,0.0149,-0.0128,-0.0342,-0.0101,0.0406,0.047,-0.0326,-0.1084,-0.1564,-0.1778,-0.1783,-0.1602,-0.1393,-0.1207,-0.1046,-0.0892,-0.0876,-0.0961,-0.1095,-0.1185,-0.1233,-0.1169,-0.1105,-0.1132,-0.1255,-0.1442,-0.1628,-0.1783,-0.1121,-0.1137,-0.0881,-0.0507,-0.032,-0.0171,-0.0117,-0.0117,-0.0133,-0.008,0.0048,0.0016,-0.0187,-0.0278,-0.0288,-0.0144,-0.0011,0.0112,0.0187,0.0182,0.0027,-0.0219,-0.0187,0.0101,0.0246,-0.0117,-0.0747,-0.1233,-0.1474,-0.1602,-0.1596,-0.1538,-0.1484,-0.1393,-0.1009,-0.0555,-0.04,-0.0384,-0.0566,-0.0657,-0.0619,-0.0646,-0.0614,-0.0566,-0.0598,-0.0673,-0.0699,-0.0683,-0.0731,-0.0577,-0.0454,-0.0379,-0.0299,-0.0256,-0.0246,-0.0251,-0.0251,-0.023,-0.0235,-0.0283,-0.0283,-0.0166,-0.0037,0.0064,0.0123,0.0144,0.0155,0.0112,-0.0085,-0.0219,-0.0182,-0.0117,-0.0192,-0.0454,-0.0838,-0.1132,-0.1303,-0.1442,-0.1484,-0.1527,-0.1575,-0.1516,-0.1164,-0.0662,-0.0133,0.0032,0.0096,-0.0037,-0.0198,-0.016,-0.0085,-0.0016,0.0075,0.0198,-0.0406,-0.0395,-0.0352,-0.039,-0.0411,-0.0427,-0.0438,-0.0459,-0.0443,-0.0384,-0.031,-0.0235,-0.0187,-0.0144,-0.0053,0.0021,0.0069,0.0091,0.0085,0.0075,0.0048,-0.0064,-0.024,-0.031,-0.031,-0.0256,-0.0288,-0.0481,-0.0715,-0.0892,-0.1084,-0.1255,-0.142,-0.1516,-0.1511,-0.1506,-0.1351,-0.1132,-0.0502,0.0021,0.0198,0.0379,0.0358,0.032,0.0406,0.0609,0.0801,-0.0358,-0.0299,-0.0272,-0.0299,-0.0358,-0.0438,-0.0507,-0.0534,-0.0475,-0.0347,-0.0219,-0.0117,-0.0069,-0.0032,0.0011,0.0027,0.0037,0.0037,0.0021,-0.0011,-0.0069,-0.0176,-0.0326,-0.0395,-0.0352,-0.0272,-0.0214,-0.0272,-0.0395,-0.0545,-0.071,-0.087,-0.1105,-0.1383,-0.1404,-0.126,-0.1255,-0.15,-0.1612,-0.1393,-0.0689,-0.0021,0.0101,0.0283,0.0416,0.0571,0.0721,-0.0518,-0.0518,-0.0486,-0.0374,-0.0342,-0.04,-0.0497,-0.0539,-0.0464,-0.031,-0.0171,-0.0075,-0.0005,0.0032,0.0048,0.0011,-0.0011,-0.0021,-0.0043,-0.0091,-0.0182,-0.0299,-0.0406,-0.0443,-0.0384,-0.0283,-0.0203,-0.0203,-0.0278,-0.0395,-0.0502,-0.0598,-0.0705,-0.1009,-0.126,-0.1223,-0.0982,-0.0956,-0.1388,-0.1815,-0.1986,-0.165,-0.0913,-0.0336,-0.0267,-0.0235,-0.0182,-0.0705,-0.087,-0.0876,-0.0641,-0.0448,-0.0416,-0.0432,-0.047,-0.0459,-0.0315,-0.0208,-0.0203,-0.0214,-0.0149,-0.0016,-0.0032,-0.0064,-0.008,-0.0107,-0.0166,-0.0267,-0.0368,-0.0416,-0.0416,-0.0363,-0.0272,-0.0203,-0.0208,-0.0272,-0.0368,-0.0438,-0.0464,-0.0438,-0.0635,-0.0993,-0.1132,-0.1084,-0.0908,-0.0678,-0.0801,-0.1516,-0.2098,-0.2125,-0.1794,-0.1426,-0.1217,-0.1249,-0.0699,-0.1041,-0.1095,-0.0828,-0.0539,-0.0459,-0.0422,-0.04,-0.0166,0.0,-0.0027,-0.0187,-0.0432,-0.0534,-0.0358,-0.0182,-0.0139,-0.0139,-0.0166,-0.0224,-0.031,-0.0363,-0.0368,-0.0342,-0.0304,-0.0256,-0.024,-0.0272,-0.0342,-0.04,-0.0416,-0.0411,-0.0363,-0.039,-0.0667,-0.0929,-0.1073,-0.1062,-0.0838,-0.0577,-0.0481,-0.086,-0.1639,-0.2221,-0.2371,-0.2445,-0.2557,-0.0593,-0.0924,-0.1062,-0.0769,-0.0635,-0.0555,-0.0486,-0.0235,0.0491,0.0625,0.04,0.016,-0.0021,-0.0998,-0.0598,-0.0374,-0.0251,-0.0214,-0.0192,-0.023,-0.0278,-0.0304,-0.0304,-0.0262,-0.024,-0.0246,-0.0288,-0.0363,-0.0438,-0.0475,-0.0459,-0.0411,-0.0331,-0.0251,-0.0374,-0.071,-0.0913,-0.094,-0.0913,-0.0812,-0.0683,-0.0753,-0.0934,-0.1201,-0.1442,-0.2007,-0.2589,-0.0374,-0.0614,-0.0956,-0.0336,-0.032,-0.0021,0.0053,-0.0176,0.0886,0.103,0.095,0.0448,0.0587,-0.1959,-0.0374,-0.0486,-0.0294,-0.0214,-0.0155,-0.0149,-0.0171,-0.0198,-0.0251,-0.0176,-0.016,-0.0203,-0.0288,-0.0406,-0.0534,-0.0598,-0.0609,-0.0475,-0.0299,-0.0171,-0.0149,-0.04,-0.0769,-0.0763,-0.0662,-0.0635,-0.0753,-0.1143,-0.1233,-0.0886,-0.0619,-0.11,-0.1628,0,0,0.0294,0.0699,0.0774,0.0758,0.0619,-0.0427,0.1212,0.0705,0.0085,0.0133,0,-0.2109,0.0438,-0.0513,-0.0272,-0.0166,-0.0107,-0.0085,-0.0096,-0.0128,-0.024,-0.008,-0.0053,-0.0107,-0.0192,-0.0336,-0.0539,-0.0673,-0.0865,-0.0758,-0.0491,-0.0331,-0.0096,-0.0139,-0.0555,-0.0753,-0.0582,-0.04,-0.0529,-0.0854,-0.0913,-0.0731,-0.0774,-0.1148,-0.1313,-0.0043,0.0358,0.1388,0.0812,0.1511,0,0,0.0507,0.0705,0.047,-0.0411,0.0902,-0.1265,-0.2157,0,0,0,0,0,0,0,0,-0.0251,-0.0027,0.0005,-0.0053,-0.0123,-0.0251,-0.0454,-0.0593,-0.0715,-0.0464,-0.024,-0.0203,-0.0069,-0.0278,-0.0737,-0.0918,-0.063,-0.0374,-0.0411,-0.0577,-0.0593,-0.0502,-0.0507,-0.0667,-0.0806,0.0027,0.0812,0.0924,-0.0128,0.1009,-0.0085,-0.0043,0.1014,0.0683,0,0,0,-0.1815,-0.1228,-0.0315,0.0016,0.0048,-0.0085,-0.0091,0.0128,0.0203,0,0,0,0,0,0,0,-0.0192,-0.0214,-0.0149,0.0166,0.0529,-0.0021,0.0593,0.0021,-0.0902,-0.1313,-0.087,-0.0443,-0.0272,-0.0336,-0.039,-0.0481,-0.0454,-0.0395,-0.0411,0.0144,0.0411,0.0256,-0.102,-0.0635,-0.0902,-0.0085,0.0395,0.1057,0.0,0.0,-0.0459,-0.0545,-0.055,-0.0464,-0.0112,-0.0133,-0.0278,-0.0133,0.0379,0.04,0,0,0,0,0,0,0,0,0,0,0,0,-0.0133,0.0966,0.1078,0.0219,-0.0667,-0.0934,-0.0368,-0.0166,-0.0144,-0.0198,-0.0262,-0.023,-0.0214,-0.0267,0,-0.0101,0.0155,-0.0566,-0.102,-0.0945,0,0,0,0,0,-0.0694,-0.0246,-0.0342,-0.016,-0.0363,-0.0555,-0.0352,0.0005,0.0427,0,0,0,0,0,0,0,0,0,0,0,0,0,0,0,0,0.0464,0.0481,0,0,-0.0123,-0.0011,-0.0075,-0.0096,-0.0059,-0.0123,-0.0171,0,0,0,0.0128,-0.078,-0.024,0,0,0,0,0,-0.032,-0.0288,0.008,0.0048,-0.047,-0.0486,-0.0144,0.0101,0,0,0,0,0,0,0,0,0,0,0,0,0,0,0,0,0,0,0.0988,-0.0422,0,0,0,0,0,0,0,-0.0123,0,0,0,0,0,0,0,0,0,0,0,0.0,0.0224,0.0635,0.0128,-0.0294,-0.0123,0.0011,0,0,0,0,0,0,0,0,0,0,0,0,0,0,0,0,0,0,0,0,-0.0838,-0.0224,-0.0016,0.0545,0,0,0,0,0,0,0,0,0,0,0,0,0,0,0,0,0.1009,0.063,0.1111,0.0139,0.0117,-0.0027,0,0,0,0,0,0,0,0,0,0,0,0,0,0,0,0,0,0,0,0,0,0,-0.0448,-0.0037,0.1084,0.0,-0.008,0.0128,0,0,0,0,0,0,0,0,0,0,0,0,0,0,0.1057,0.1516,0.0368,0.0384,0.0027,0,0,0,0,0,0,0,0,0,0,0,0,0,0,0,0,0,0,0,0,0,0,0,0,0,0,-0.0155,0.0256,0,0,0,0,0,0,0,0,0,0,0,0,0,0,0.1607,0.1879,0.0539,0.0384,-0.0032,0,0,0,0,0,0,0,0,0,0,0,0,0,0,0,0,0,0,0,0,0,0,0,0,0,0,0,0,0,0,0,0,0,0,0,0,0,0,0,0,0,0,0.1922,0.1666,0.0198,0.0464,0.0198,0,0,0,0,0,0,0,0,0,0,0,0,0,0,0,0,0,0,0,0,0,0,0,0,0,0,0,0,0,0,0,0,0,0,0,0,0,0,0,0,0,0,0.2018,0.1062,0.0352,0.0769,0.0731,0,0,0,0,0,0,0,0,0,0,0,0,0,0,0,0,0,0,0,0,0,0,0,0,0,0,0,0,0,0,0,0,0,0,0,0,0,0,0,0,0,0,0,0.0037,0.1052,0.1143,0.0806,0,0,0,0,0,0,0,0,0,0,0,0,0,0,0,0,0,0,0,0,0,0,0,0,0,0,0,0,0,0,0,0,0,0,0,0,0,0,0,0,0,0,0,-0.0699,0.0699,0.1244,0.0683,0,0,0,0,0,0,0,0,0,0,0,0,0,0,0,0,0,0,0,0,0,0,0,0,0,0,0,0,0,0,0,0,0,0,0,0,0,0,0,0,0,0,0,0,0.0101,0.118,0,0,0,0,0,0,0,0,0,0,0,0,0,0,0,0,0,0,0,0,0,0,0,0,0,0,0,0,0,0,0,0,0,0,0,0,0,0,0,0,0,0,0,0,0,0,0,0,0,0,0,0,0,0,0,0,0,0,0,0,0,0,0,0,0,0,0,0,0,0,0,0,0,0,0,0,0,0,0,0,0,0,0,0,0,0,0,0,0,0,0,0,0,0,0,0,0,0,0,0,0,0,0,0,0,0,0,0,0,0,0,0,0,0,0,0,0,0,0,0,0,0,0,0,0,0,0,0,0,0,0,0,0,0,0,0,0,0,0,0,0,0,0,0,0,0,0,0,0,0,0,0,0,0,0,0,0,0,0,0,0,0,0,0,0,0,0,0,0,0,0,0,0,0,0,0,0,0,0,0,0,0,0,0,0,0,0,0,0,0,0,0,0,0,0,0,0,0,0,0,0,0,0,0,0,0,0,0,0,0,0,0,0,0,0,0,0,0,0,0,0,0,0,0,0,0,0,0,0,0,0,0,0,0,0,0,0,0,0,0,0,0,0,0,0,0,0,0,0,0,0,0,0,0,0,0,0,0,0,0,0,0,0,0,0,0,0,0,0,0,0,0,0,0,0,0,0,0,0,0,0,0,0,0,0,0,0,0,0,0,0,0,0,0,0,0,0,0,0,0,0,0,0,0,0,0,0,0,0,0,0,0,0]}]],[[{"header":{"parameterUnit":"kt","parameterCategory":2,"dx":1,"dy":1,"la1":29.764190673828125,"la2":30.86408042907715,"lo1":-88.46762084960938,"lo2":-86.9344482421875,"nx":47,"ny":34,"refTime":"2022-10-07T00:00:00:Z","depth":"8","parameterNumber":2,"parameterNumberName":"U-component_of_CURRENTS"},"data":[-0.0454,-0.039,-0.0299,-0.0133,0.0043,0.0069,-0.0107,-0.0272,-0.0283,-0.0331,-0.0379,-0.0363,-0.0539,-0.0833,-0.0876,-0.0721,-0.0593,-0.0529,-0.0539,-0.0529,-0.0406,-0.0278,-0.032,-0.0582,-0.0886,-0.0918,-0.0838,-0.0833,-0.0646,-0.0304,0.0085,0.039,0.0502,0.0561,0.0486,0.0448,0.0657,0.0977,0.1324,0.1634,0.1821,0.1879,0.1837,0.1698,0.1506,0.1313,0.1121,-0.1095,-0.1121,-0.0982,-0.0796,-0.0609,-0.0475,-0.0481,-0.0571,-0.0694,-0.0641,-0.0406,-0.0422,-0.0699,-0.0886,-0.0838,-0.0625,-0.0416,-0.0315,-0.0374,-0.055,-0.0555,-0.0379,-0.0368,-0.0667,-0.1095,-0.1351,-0.1324,-0.1281,-0.1191,-0.0854,-0.0464,-0.0053,0.0352,0.0598,0.0769,0.0908,0.1052,0.1239,0.1447,0.1644,0.1799,0.1874,0.1901,0.1869,0.1778,0.1671,0.1623,-0.1554,-0.1671,-0.1575,-0.134,-0.1223,-0.1185,-0.1175,-0.1164,-0.0945,-0.0481,-0.0256,-0.0502,-0.0822,-0.0865,-0.0689,-0.047,-0.0326,-0.0294,-0.0347,-0.0464,-0.0529,-0.047,-0.0448,-0.0561,-0.0854,-0.1217,-0.1474,-0.1559,-0.1495,-0.1292,-0.0993,-0.0726,-0.0374,0.023,0.0785,0.1009,0.1207,0.1506,0.1789,0.2007,0.2178,0.2301,0.2387,0.2451,0.2451,0.2424,0.2376,-0.1703,-0.1815,-0.1869,-0.1837,-0.1725,-0.1538,-0.1319,-0.095,-0.0571,-0.047,-0.0667,-0.087,-0.0828,-0.0678,-0.0502,-0.0363,-0.0342,-0.0379,-0.04,-0.04,-0.0464,-0.0534,-0.0513,-0.0432,-0.0518,-0.0731,-0.1009,-0.1303,-0.149,-0.1538,-0.1324,-0.0993,-0.0769,-0.0561,-0.0011,0.0721,0.1297,0.1714,0.197,0.2184,0.2445,0.267,0.2819,0.2915,0.2936,0.2888,0.2744,-0.1436,-0.1676,-0.1634,-0.1538,-0.1415,-0.1276,-0.1116,-0.102,-0.1025,-0.1036,-0.0972,-0.079,-0.0577,-0.0432,-0.0379,-0.0411,-0.0481,-0.0513,-0.0481,-0.0432,-0.0475,-0.0603,-0.0646,-0.0497,-0.0299,-0.0347,-0.0534,-0.0699,-0.0972,-0.1297,-0.149,-0.1399,-0.1009,-0.0614,-0.0411,-0.0112,0.047,0.1239,0.1837,0.2205,0.2525,0.2723,0.2872,0.3006,0.3059,0.3017,0.292,-0.0464,-0.0918,-0.1361,-0.1495,-0.1426,-0.1324,-0.1223,-0.1132,-0.0998,-0.0801,-0.0609,-0.047,-0.0416,-0.0454,-0.0523,-0.0593,-0.0614,-0.0571,-0.0475,-0.0352,-0.0246,-0.024,-0.0272,-0.016,0.0091,0.0262,0.0128,-0.0171,-0.0448,-0.0769,-0.1153,-0.1458,-0.1484,-0.1105,-0.0507,-0.0246,-0.0171,0.0112,0.0662,0.1474,0.2056,0.2365,0.268,0.2915,0.3049,0.3102,0.3075,-0.0198,-0.031,-0.0427,-0.0534,-0.0651,-0.0721,-0.0705,-0.0609,-0.0502,-0.0443,-0.0438,-0.0481,-0.055,-0.063,-0.0678,-0.0678,-0.0614,-0.0523,-0.0406,-0.0278,-0.0128,0.0021,0.0149,0.0267,0.04,0.0513,0.0566,0.047,0.0182,-0.0182,-0.0534,-0.0908,-0.1276,-0.1377,-0.1046,-0.0454,0.0,-0.0016,-0.0021,0.0347,0.0806,0.1447,0.2002,0.2285,0.2536,0.2723,0.2792,-0.0256,-0.0288,-0.0331,-0.0406,-0.0486,-0.0523,-0.0507,-0.0475,-0.0464,-0.0502,-0.0571,-0.0646,-0.0699,-0.0726,-0.0715,-0.0651,-0.0555,-0.0438,-0.032,-0.0198,-0.0053,0.0101,0.0235,0.0326,0.0379,0.0411,0.0427,0.0395,0.0299,0.016,-0.0043,-0.0331,-0.0678,-0.0998,-0.1078,-0.0844,-0.0374,0.0288,0.0539,0.0176,0.0059,0.0529,0.1004,0.134,0.1639,0.1815,0.1911,-0.1404,-0.1297,-0.1004,-0.0726,-0.0593,-0.0566,-0.0587,-0.0619,-0.0657,-0.0699,-0.0715,-0.0699,-0.0667,-0.0651,-0.063,-0.0571,-0.0475,-0.0363,-0.0251,-0.0128,0.0,0.0123,0.0198,0.0214,0.0203,0.0187,0.0176,0.0176,0.0171,0.016,0.0144,0.0091,-0.0107,-0.0432,-0.0662,-0.0721,-0.0598,-0.0256,0.0294,0.0876,0.0785,0.0171,0.0133,0.0619,0.0876,0.0881,0.0902,-0.1954,-0.1794,-0.1458,-0.1062,-0.078,-0.0667,-0.0689,-0.0833,-0.1143,-0.149,-0.1692,-0.1703,-0.1436,-0.0982,-0.0646,-0.0497,-0.039,-0.0278,-0.0171,-0.0059,0.0037,0.0101,0.0101,0.0059,0.0005,-0.0027,-0.0016,0.0027,0.0085,0.0139,0.0155,0.0123,0.0069,-0.008,-0.031,-0.0422,-0.0411,-0.0384,-0.0182,0.0235,0.071,0.1073,0.0828,0.0246,0.0224,0.0646,0.0966,-0.1895,-0.1821,-0.1559,-0.1249,-0.1132,-0.1217,-0.1404,-0.1671,-0.2018,-0.2274,-0.229,-0.212,-0.1853,-0.1442,-0.0902,-0.0513,-0.0326,-0.0203,-0.0101,-0.0021,0.0027,0.0021,-0.0016,-0.0075,-0.0123,-0.0133,-0.0091,-0.0021,0.0064,0.0123,0.0149,0.016,0.0149,0.0091,-0.0101,-0.0278,-0.0251,-0.0203,-0.0235,-0.0219,-0.008,0.0288,0.0812,0.0982,0.0822,0.078,0.0892,-0.166,-0.1826,-0.2024,-0.2274,-0.2488,-0.2445,-0.2221,-0.1975,-0.1826,-0.1671,-0.1308,-0.0865,-0.0924,-0.0966,-0.0715,-0.0475,-0.0278,-0.0128,-0.0037,0.0,-0.0016,-0.0059,-0.0101,-0.0144,-0.0182,-0.0192,-0.016,-0.0096,-0.0021,0.0059,0.0133,0.0176,0.0187,0.0155,0.0016,-0.0214,-0.0267,-0.016,-0.023,-0.0363,-0.0342,-0.0208,-0.0032,0.0198,0.0651,0.1041,0.1025,-0.0982,-0.1516,-0.165,-0.1586,-0.1511,-0.1655,-0.189,-0.1794,-0.1265,-0.0384,0.0085,0.0037,-0.0294,0.016,0.0139,-0.0144,-0.0053,-0.0021,0.0,-0.0005,-0.0043,-0.0101,-0.0128,-0.0144,-0.0182,-0.0214,-0.023,-0.023,-0.0198,-0.0128,-0.0016,0.0075,0.008,0.0027,-0.0059,-0.0235,-0.0379,-0.031,-0.0224,-0.0272,-0.0326,-0.0331,-0.0336,-0.031,-0.0283,-0.0352,-0.0481,0,0,0.0069,0.0075,0.0139,-0.0176,-0.0742,0.0432,0.0683,0.0838,0.0545,0.0422,0,0.0683,0.11,0.0582,0.0267,0.0117,0.0043,-0.0011,-0.0064,-0.0133,-0.0139,-0.0112,-0.0139,-0.0176,-0.0224,-0.0299,-0.0379,-0.0448,-0.0518,-0.0603,-0.0641,-0.0545,-0.0432,-0.0443,-0.0577,-0.0598,-0.0486,-0.0518,-0.0625,-0.0625,-0.071,-0.0977,-0.1249,-0.1372,-0.1399,-0.0854,-0.0304,0.0593,0.0646,0.024,0,0,0.0166,0.0796,0.1009,0.0395,-0.0144,0.0571,0.1463,0,0,0,0,0,0,0,0,-0.0075,-0.0144,-0.0123,-0.0112,-0.0149,-0.0283,-0.0416,-0.0507,-0.0566,-0.0657,-0.0812,-0.0982,-0.1132,-0.1137,-0.0966,-0.0817,-0.0763,-0.0683,-0.0657,-0.079,-0.0982,-0.1041,-0.0988,-0.1004,-0.1239,-0.0774,0.0117,0.0705,0.0486,0.0689,0.1036,0.0806,0.0192,-0.0224,0,0,0,-0.0027,0.0069,0.0438,0.1009,0.1276,0.0822,0.0363,0.0267,0.0219,0,0,0,0,0,0,0,-0.0149,-0.0304,-0.0336,-0.0278,-0.0139,0.0139,0.0384,0.0379,-0.0101,-0.0347,-0.0416,-0.039,-0.0395,-0.0481,-0.0571,-0.0651,-0.0726,-0.0822,-0.0897,-0.0587,0.0352,0.0694,0.0368,0.0518,0.0812,0.0368,0.0011,0.0384,0.0673,0.079,0.0897,0.0587,0.0539,0.1004,0.1212,0.1153,0.0635,-0.0075,-0.0342,-0.0363,0,0,0,0,0,0,0,0,0,0,0,0,0.0609,0.0956,0.0598,0.0545,0.0758,0.0368,-0.0075,-0.0091,-0.0107,-0.0155,-0.0208,-0.031,-0.0374,-0.04,0,0.0246,0.0865,0.095,0.0475,0.0294,0,0,0,0,0,0.0091,0.0331,0.0822,0.1217,0.1153,0.0918,0.0464,0.0021,-0.008,0,0,0,0,0,0,0,0,0,0,0,0,0,0,0,0,0.0101,0.0112,0,0,-0.0198,-0.0208,-0.0176,-0.0166,-0.0139,-0.0133,-0.0166,0,0,0,0.0422,0.0785,0.0726,0,0,0,0,0,0.0005,0.0326,0.1191,0.1543,0.1046,0.0427,-0.0128,-0.032,0,0,0,0,0,0,0,0,0,0,0,0,0,0,0,0,0,0,-0.0395,-0.0545,0,0,0,0,0,0,0,-0.0027,0,0,0,0,0,0,0,0,0,0,0,-0.0053,0.0454,0.1527,0.1564,0.0699,0.008,-0.0155,0,0,0,0,0,0,0,0,0,0,0,0,0,0,0,0,0,0,0,0,0.0069,0.0395,0.0582,0.0497,0,0,0,0,0,0,0,0,0,0,0,0,0,0,0,0,0.0064,0.0742,0.1532,0.1207,0.0513,0.0267,0,0,0,0,0,0,0,0,0,0,0,0,0,0,0,0,0,0,0,0,0,0,0.0166,0.0262,0.0481,0.0555,0.0336,0.0342,0,0,0,0,0,0,0,0,0,0,0,0,0,0,0.086,0.1062,0.0892,0.0502,0.0352,0,0,0,0,0,0,0,0,0,0,0,0,0,0,0,0,0,0,0,0,0,0,0,0,0,0,0.0128,0.0256,0,0,0,0,0,0,0,0,0,0,0,0,0,0,0.0246,0.0625,0.0731,0.0534,0.0352,0,0,0,0,0,0,0,0,0,0,0,0,0,0,0,0,0,0,0,0,0,0,0,0,0,0,0,0,0,0,0,0,0,0,0,0,0,0,0,0,0,0,0.0085,0.0368,0.0646,0.055,0.0384,0,0,0,0,0,0,0,0,0,0,0,0,0,0,0,0,0,0,0,0,0,0,0,0,0,0,0,0,0,0,0,0,0,0,0,0,0,0,0,0,0,0,0.0272,0.0481,0.0454,0.0315,0.0139,0,0,0,0,0,0,0,0,0,0,0,0,0,0,0,0,0,0,0,0,0,0,0,0,0,0,0,0,0,0,0,0,0,0,0,0,0,0,0,0,0,0,0,0.0112,0.0149,-0.0112,-0.0299,0,0,0,0,0,0,0,0,0,0,0,0,0,0,0,0,0,0,0,0,0,0,0,0,0,0,0,0,0,0,0,0,0,0,0,0,0,0,0,0,0,0,0,-0.0021,-0.0582,-0.0742,-0.0374,0,0,0,0,0,0,0,0,0,0,0,0,0,0,0,0,0,0,0,0,0,0,0,0,0,0,0,0,0,0,0,0,0,0,0,0,0,0,0,0,0,0,0,0,-0.0304,-0.0609,0,0,0,0,0,0,0,0,0,0,0,0,0,0,0,0,0,0,0,0,0,0,0,0,0,0,0,0,0,0,0,0,0,0,0,0,0,0,0,0,0,0,0,0,0,0,0,0,0,0,0,0,0,0,0,0,0,0,0,0,0,0,0,0,0,0,0,0,0,0,0,0,0,0,0,0,0,0,0,0,0,0,0,0,0,0,0,0,0,0,0,0,0,0,0,0,0,0,0,0,0,0,0,0,0,0,0,0,0,0,0,0,0,0,0,0,0,0,0,0,0,0,0,0,0,0,0,0,0,0,0,0,0,0,0,0,0,0,0,0,0,0,0,0,0,0,0,0,0,0,0,0,0,0,0,0,0,0,0,0,0,0,0,0,0,0,0,0,0,0,0,0,0,0,0,0,0,0,0,0,0,0,0,0,0,0,0,0,0,0,0,0,0,0,0,0,0,0,0,0,0,0,0,0,0,0,0,0,0,0,0,0,0,0,0,0,0,0,0,0,0,0,0,0,0,0,0,0,0,0,0,0,0,0,0,0,0,0,0,0,0,0,0,0,0,0,0,0,0,0,0,0,0,0,0,0,0,0,0,0,0,0,0,0,0,0,0,0,0,0,0,0,0,0,0,0,0,0,0,0,0,0,0,0,0,0,0,0,0,0,0,0,0,0,0,0,0,0,0,0,0,0,0,0,0,0,0,0,0,0,0,0,0]}],[{"header":{"parameterUnit":"kt","parameterCategory":2,"dx":1,"dy":1,"la1":29.764190673828125,"la2":30.86408042907715,"lo1":-88.46762084960938,"lo2":-86.9344482421875,"nx":47,"ny":34,"refTime":"2022-10-07T00:00:00:Z","depth":"8","parameterNumber":3,"parameterNumberName":"V-component_of_CURRENTS"},"data":[-0.2349,-0.141,-0.0486,-0.0117,0.0299,0.055,0.0651,0.0694,0.0822,0.078,0.0384,-0.0203,-0.0096,0.0198,0.0192,0.0208,0.0101,0.0053,0.0085,0.0117,-0.0182,-0.0459,-0.0288,-0.0021,-0.0224,-0.1046,-0.1757,-0.1847,-0.1532,-0.1335,-0.1554,-0.1949,-0.2173,-0.2125,-0.1778,-0.1185,-0.0641,-0.0208,0.0048,0.0059,-0.0144,-0.0518,-0.0934,-0.134,-0.181,-0.2429,-0.3118,-0.2349,-0.158,-0.0587,-0.0256,0.0144,0.0475,0.0646,0.0699,0.0726,0.0507,0.0027,-0.0144,0.0155,0.0208,0.0101,0.0032,-0.0021,0.0016,0.0085,0.0128,-0.0182,-0.0486,-0.0219,0.0235,0.0,-0.087,-0.1612,-0.1922,-0.1709,-0.1292,-0.1068,-0.126,-0.1602,-0.1794,-0.1757,-0.1548,-0.1415,-0.1244,-0.1073,-0.1009,-0.1089,-0.134,-0.1687,-0.2093,-0.2547,-0.3033,-0.3449,-0.204,-0.1655,-0.0817,-0.0331,0.0032,0.031,0.0422,0.0475,0.0358,0.0043,-0.0101,0.0155,0.0288,0.008,-0.0043,-0.0139,-0.0069,0.0032,0.0149,0.016,-0.0166,-0.0406,-0.0069,0.0481,0.0336,-0.0657,-0.1313,-0.1789,-0.1879,-0.1639,-0.1313,-0.1062,-0.1078,-0.1233,-0.134,-0.1351,-0.1404,-0.1436,-0.1474,-0.1511,-0.1522,-0.1575,-0.1751,-0.204,-0.2365,-0.2654,-0.2867,-0.1559,-0.1452,-0.0966,-0.0443,-0.0139,0.0059,0.0128,0.0091,-0.0027,-0.008,0.0107,0.0294,0.0144,-0.0091,-0.0219,-0.0182,-0.0048,0.0096,0.0224,0.0198,-0.008,-0.0299,-0.0053,0.0448,0.0507,-0.0278,-0.1036,-0.1511,-0.1725,-0.1725,-0.1543,-0.1335,-0.1148,-0.0988,-0.0833,-0.0822,-0.0913,-0.1046,-0.1137,-0.118,-0.1116,-0.1057,-0.1089,-0.1212,-0.1404,-0.1591,-0.1746,-0.1068,-0.1089,-0.0828,-0.0454,-0.0267,-0.0117,-0.0064,-0.0069,-0.0091,-0.0032,0.0096,0.0059,-0.0144,-0.0235,-0.0246,-0.0101,0.0037,0.016,0.0235,0.023,0.0075,-0.0171,-0.0139,0.0149,0.0288,-0.0075,-0.0705,-0.1185,-0.1426,-0.1543,-0.1543,-0.1479,-0.1426,-0.1329,-0.0945,-0.0497,-0.0347,-0.0331,-0.0523,-0.0609,-0.0571,-0.0598,-0.0571,-0.0529,-0.0561,-0.0635,-0.0662,-0.0641,-0.0683,-0.0529,-0.0406,-0.0331,-0.0251,-0.0208,-0.0198,-0.0203,-0.0203,-0.0182,-0.0187,-0.0235,-0.0235,-0.0117,0.0011,0.0112,0.0171,0.0192,0.0198,0.0155,-0.0037,-0.0171,-0.0133,-0.0069,-0.0144,-0.0411,-0.0796,-0.1084,-0.1255,-0.1388,-0.1431,-0.1468,-0.1511,-0.1447,-0.1095,-0.0603,-0.008,0.008,0.0144,0.0011,-0.0144,-0.0112,-0.0043,0.0021,0.0117,0.023,-0.0363,-0.0352,-0.0304,-0.0347,-0.0368,-0.0379,-0.0395,-0.0411,-0.04,-0.0336,-0.0262,-0.0187,-0.0133,-0.0091,0.0,0.0075,0.0123,0.0139,0.0133,0.0117,0.0091,-0.0021,-0.0198,-0.0272,-0.0267,-0.0219,-0.0246,-0.0438,-0.0673,-0.0844,-0.1036,-0.1201,-0.1367,-0.1458,-0.1447,-0.1431,-0.1287,-0.1068,-0.0443,0.008,0.0256,0.0438,0.0416,0.0368,0.0454,0.0651,0.0838,-0.031,-0.0251,-0.0224,-0.0251,-0.031,-0.039,-0.0459,-0.0486,-0.0427,-0.0299,-0.0166,-0.0064,-0.0011,0.0027,0.0064,0.008,0.0091,0.0085,0.0069,0.0037,-0.0027,-0.0139,-0.0288,-0.0363,-0.032,-0.024,-0.0182,-0.0235,-0.0358,-0.0502,-0.0662,-0.0822,-0.1057,-0.1329,-0.1345,-0.1191,-0.1185,-0.1426,-0.1543,-0.1324,-0.0625,0.0043,0.016,0.0347,0.0475,0.0625,0.0769,-0.0432,-0.0438,-0.0411,-0.0315,-0.0294,-0.0352,-0.0443,-0.0486,-0.0411,-0.0246,-0.0107,-0.0011,0.0059,0.0091,0.0101,0.0064,0.0043,0.0032,0.0005,-0.0043,-0.0139,-0.0262,-0.0368,-0.0406,-0.0352,-0.0251,-0.0171,-0.0171,-0.024,-0.0358,-0.0459,-0.0555,-0.0662,-0.0961,-0.1207,-0.1169,-0.0918,-0.0886,-0.1319,-0.1741,-0.1911,-0.1575,-0.0844,-0.0267,-0.0198,-0.0171,-0.0123,-0.0545,-0.0721,-0.0763,-0.0566,-0.039,-0.0358,-0.0374,-0.04,-0.0352,-0.0149,-0.0016,-0.0016,-0.0048,-0.0069,0.0048,0.0021,-0.0005,-0.0027,-0.0059,-0.0123,-0.023,-0.0326,-0.0379,-0.0374,-0.0326,-0.0235,-0.0171,-0.0171,-0.024,-0.0336,-0.04,-0.0427,-0.0395,-0.0593,-0.094,-0.1078,-0.103,-0.0849,-0.0614,-0.0737,-0.1442,-0.2013,-0.2056,-0.1719,-0.1351,-0.1148,-0.1185,-0.0406,-0.0774,-0.0929,-0.0731,-0.0454,-0.0358,-0.0315,-0.0235,0.0085,0.0326,0.0368,0.0246,-0.0016,-0.0262,-0.0203,-0.0128,-0.0085,-0.0091,-0.0117,-0.0182,-0.0267,-0.032,-0.0326,-0.0299,-0.0267,-0.0224,-0.0203,-0.024,-0.0304,-0.0368,-0.0379,-0.0374,-0.0326,-0.0347,-0.0619,-0.0876,-0.102,-0.1014,-0.0785,-0.0518,-0.0416,-0.0769,-0.1559,-0.213,-0.2285,-0.2371,-0.2488,-0.0101,-0.0422,-0.0774,-0.055,-0.0347,-0.023,-0.016,0.008,0.0812,0.0966,0.0854,0.0747,0.0561,-0.0438,-0.0246,-0.0336,-0.0192,-0.016,-0.0144,-0.0182,-0.023,-0.0256,-0.0256,-0.0219,-0.0203,-0.0208,-0.0251,-0.0326,-0.04,-0.0438,-0.0422,-0.0374,-0.0294,-0.0214,-0.0331,-0.0657,-0.0854,-0.0886,-0.086,-0.0758,-0.063,-0.0689,-0.0854,-0.11,-0.1361,-0.1917,-0.2509,0.0069,0.0032,-0.04,0.0315,0.031,0.0513,0.0448,0.032,0.118,0.102,-0.008,-0.0726,0.0048,-0.0721,0.0336,-0.0438,-0.024,-0.0155,-0.0096,-0.0091,-0.0117,-0.0144,-0.0198,-0.0128,-0.0123,-0.016,-0.0246,-0.0368,-0.0491,-0.0555,-0.0561,-0.0432,-0.0251,-0.0123,-0.0107,-0.0352,-0.0715,-0.071,-0.0614,-0.0577,-0.0699,-0.1084,-0.1169,-0.0833,-0.0566,-0.1009,-0.1543,0,0,0.0432,0.0892,0.0368,0.0481,0.0758,0.0187,0.0192,-0.0331,0.0075,-0.0149,0,-0.0961,0.0475,-0.0422,-0.0219,-0.0107,-0.0043,-0.0021,-0.0037,-0.0075,-0.0187,-0.0032,-0.0011,-0.0069,-0.0155,-0.0288,-0.0491,-0.0625,-0.0747,-0.055,-0.0246,-0.0139,-0.0027,-0.0091,-0.0491,-0.0699,-0.0529,-0.0347,-0.047,-0.0796,-0.0849,-0.0673,-0.0721,-0.1084,-0.1255,0.0011,0.0497,0.0966,0.0849,0.079,0,0,0.0737,-0.0043,0.0021,0.0641,0.0486,0.032,-0.095,0,0,0,0,0,0,0,0,-0.0203,0.0011,0.0043,-0.0011,-0.008,-0.0203,-0.0406,-0.0438,-0.0358,-0.0032,0.0331,0.0326,0.0267,0.0,-0.0507,-0.0838,-0.0571,-0.032,-0.0352,-0.0518,-0.0523,-0.0438,-0.0454,-0.0614,-0.0753,0.0192,0.0464,0.0182,0.0641,0.1121,0.0459,0.0555,0.0699,0.0048,0,0,0,0.0694,0.032,0.0443,0.04,0.0454,0.0534,0.0144,0.0144,0.0214,0,0,0,0,0,0,0,-0.0149,-0.0139,0.0107,0.0395,0.0753,0.0651,0.0972,0.0833,0.0288,-0.0801,-0.0726,-0.0406,-0.0219,-0.0267,-0.0326,-0.0416,-0.04,-0.0342,-0.0358,0.0358,-0.0037,-0.0667,-0.0021,0.0283,-0.0198,0.1116,0.0747,0.0822,0.0,0.0,0.0892,0.1127,0.1223,0.0966,0.0854,0.0886,0.1025,0.0497,0.0448,0.0432,0,0,0,0,0,0,0,0,0,0,0,0,0.0384,0.0523,0.1025,0.102,0.0769,-0.0256,-0.0294,-0.0112,-0.008,-0.0139,-0.0208,-0.0182,-0.0171,-0.0224,0,-0.0016,-0.0705,-0.0326,-0.0246,-0.0374,0,0,0,0,0,0.1527,0.1671,0.1249,0.1041,0.0881,0.0833,0.0833,0.0566,0.0497,0,0,0,0,0,0,0,0,0,0,0,0,0,0,0,0,0.0785,0.0518,0,0,-0.0075,0.0053,-0.0027,-0.0043,-0.0016,-0.0085,-0.0139,0,0,0,-0.0069,0.0,0.0561,0,0,0,0,0,0.1281,0.1805,0.1324,0.0966,0.0865,0.0844,0.0812,0.0432,0,0,0,0,0,0,0,0,0,0,0,0,0,0,0,0,0,0,0.0347,0.0075,0,0,0,0,0,0,0,-0.0096,0,0,0,0,0,0,0,0,0,0,0,0.1308,0.1981,0.1415,0.0817,0.0854,0.094,0.0945,0,0,0,0,0,0,0,0,0,0,0,0,0,0,0,0,0,0,0,0,0.0149,0.0416,0.0443,0.039,0,0,0,0,0,0,0,0,0,0,0,0,0,0,0,0,0.1265,0.1981,0.134,0.0763,0.0897,0.1052,0,0,0,0,0,0,0,0,0,0,0,0,0,0,0,0,0,0,0,0,0,0,0.0833,0.0881,0.0774,0.0,-0.0053,0.0107,0,0,0,0,0,0,0,0,0,0,0,0,0,0,0.1842,0.1399,0.0924,0.1009,0.1084,0,0,0,0,0,0,0,0,0,0,0,0,0,0,0,0,0,0,0,0,0,0,0,0,0,0,-0.0101,0.0208,0,0,0,0,0,0,0,0,0,0,0,0,0,0,0.1709,0.1612,0.1212,0.1078,0.1095,0,0,0,0,0,0,0,0,0,0,0,0,0,0,0,0,0,0,0,0,0,0,0,0,0,0,0,0,0,0,0,0,0,0,0,0,0,0,0,0,0,0,0.1356,0.1618,0.1372,0.1068,0.1105,0,0,0,0,0,0,0,0,0,0,0,0,0,0,0,0,0,0,0,0,0,0,0,0,0,0,0,0,0,0,0,0,0,0,0,0,0,0,0,0,0,0,0.1185,0.1516,0.1345,0.1052,0.102,0,0,0,0,0,0,0,0,0,0,0,0,0,0,0,0,0,0,0,0,0,0,0,0,0,0,0,0,0,0,0,0,0,0,0,0,0,0,0,0,0,0,0,0.1137,0.1297,0.1062,0.0892,0,0,0,0,0,0,0,0,0,0,0,0,0,0,0,0,0,0,0,0,0,0,0,0,0,0,0,0,0,0,0,0,0,0,0,0,0,0,0,0,0,0,0,0.0774,0.0678,0.0886,0.0838,0,0,0,0,0,0,0,0,0,0,0,0,0,0,0,0,0,0,0,0,0,0,0,0,0,0,0,0,0,0,0,0,0,0,0,0,0,0,0,0,0,0,0,0,0.0069,0.0715,0,0,0,0,0,0,0,0,0,0,0,0,0,0,0,0,0,0,0,0,0,0,0,0,0,0,0,0,0,0,0,0,0,0,0,0,0,0,0,0,0,0,0,0,0,0,0,0,0,0,0,0,0,0,0,0,0,0,0,0,0,0,0,0,0,0,0,0,0,0,0,0,0,0,0,0,0,0,0,0,0,0,0,0,0,0,0,0,0,0,0,0,0,0,0,0,0,0,0,0,0,0,0,0,0,0,0,0,0,0,0,0,0,0,0,0,0,0,0,0,0,0,0,0,0,0,0,0,0,0,0,0,0,0,0,0,0,0,0,0,0,0,0,0,0,0,0,0,0,0,0,0,0,0,0,0,0,0,0,0,0,0,0,0,0,0,0,0,0,0,0,0,0,0,0,0,0,0,0,0,0,0,0,0,0,0,0,0,0,0,0,0,0,0,0,0,0,0,0,0,0,0,0,0,0,0,0,0,0,0,0,0,0,0,0,0,0,0,0,0,0,0,0,0,0,0,0,0,0,0,0,0,0,0,0,0,0,0,0,0,0,0,0,0,0,0,0,0,0,0,0,0,0,0,0,0,0,0,0,0,0,0,0,0,0,0,0,0,0,0,0,0,0,0,0,0,0,0,0,0,0,0,0,0,0,0,0,0,0,0,0,0,0,0,0,0,0,0,0,0,0,0,0,0,0,0,0,0,0,0,0,0,0]}]],[[{"header":{"parameterUnit":"kt","parameterCategory":2,"dx":1,"dy":1,"la1":29.764190673828125,"la2":30.86408042907715,"lo1":-88.46762084960938,"lo2":-86.9344482421875,"nx":47,"ny":34,"refTime":"2022-10-07T00:00:00:Z","depth":"10","parameterNumber":2,"parameterNumberName":"U-component_of_CURRENTS"},"data":[-0.0427,-0.0352,-0.0262,-0.0107,0.0064,0.0085,-0.0091,-0.0246,-0.0256,-0.0299,-0.0336,-0.0326,-0.0518,-0.0812,-0.0849,-0.0694,-0.0571,-0.0507,-0.0518,-0.0502,-0.0384,-0.0262,-0.031,-0.0566,-0.0865,-0.0897,-0.0817,-0.0817,-0.0619,-0.0283,0.0107,0.0406,0.0518,0.0577,0.0507,0.047,0.0673,0.0993,0.134,0.165,0.1837,0.1895,0.1847,0.1709,0.1522,0.1324,0.1132,-0.1073,-0.1089,-0.095,-0.0774,-0.0593,-0.0459,-0.0459,-0.0545,-0.0657,-0.0593,-0.0358,-0.039,-0.0673,-0.086,-0.0812,-0.0603,-0.0395,-0.0294,-0.0352,-0.0529,-0.0534,-0.0363,-0.0352,-0.0646,-0.1073,-0.1329,-0.1308,-0.1265,-0.1175,-0.0833,-0.0443,-0.0032,0.0368,0.0614,0.0785,0.0929,0.1073,0.126,0.1463,0.166,0.181,0.189,0.1917,0.1885,0.1789,0.1682,0.1634,-0.1532,-0.165,-0.1554,-0.1319,-0.1201,-0.1159,-0.1143,-0.1127,-0.0897,-0.0443,-0.0235,-0.0481,-0.0796,-0.0838,-0.0662,-0.0448,-0.0304,-0.0272,-0.032,-0.0443,-0.0507,-0.0454,-0.0438,-0.0545,-0.0828,-0.1191,-0.1458,-0.1543,-0.1484,-0.1271,-0.0977,-0.0705,-0.0352,0.0251,0.0806,0.103,0.1228,0.1527,0.181,0.2024,0.2194,0.2317,0.2403,0.2461,0.2467,0.244,0.2387,-0.1676,-0.1789,-0.1847,-0.1815,-0.1698,-0.1506,-0.1281,-0.0913,-0.0539,-0.0448,-0.0646,-0.0849,-0.0801,-0.0657,-0.0481,-0.0342,-0.032,-0.0358,-0.0379,-0.0379,-0.0443,-0.0523,-0.0502,-0.0416,-0.0491,-0.0705,-0.0988,-0.1287,-0.1474,-0.1522,-0.1308,-0.0977,-0.0753,-0.0539,0.0011,0.0742,0.1319,0.1735,0.1991,0.2205,0.2467,0.2686,0.2835,0.2926,0.2953,0.2899,0.2755,-0.1415,-0.1655,-0.1612,-0.1516,-0.1388,-0.1244,-0.1089,-0.0993,-0.0998,-0.1014,-0.095,-0.0769,-0.055,-0.0411,-0.0352,-0.039,-0.0459,-0.0491,-0.0454,-0.0406,-0.0454,-0.0593,-0.0635,-0.0481,-0.0278,-0.0326,-0.0513,-0.0683,-0.0956,-0.1281,-0.1474,-0.1377,-0.0988,-0.0593,-0.0395,-0.0091,0.0497,0.126,0.1853,0.2221,0.2541,0.2739,0.2888,0.3022,0.307,0.3033,0.2931,-0.0443,-0.0902,-0.134,-0.1474,-0.141,-0.1303,-0.1201,-0.1111,-0.0977,-0.078,-0.0587,-0.0443,-0.0395,-0.0427,-0.0497,-0.0566,-0.0587,-0.0545,-0.0448,-0.0331,-0.0224,-0.0224,-0.0251,-0.0144,0.0107,0.0278,0.0149,-0.0149,-0.0432,-0.0753,-0.1137,-0.1442,-0.1463,-0.1084,-0.0491,-0.023,-0.0155,0.0128,0.0683,0.1495,0.2077,0.2387,0.2696,0.2931,0.3065,0.3113,0.3086,-0.0182,-0.0288,-0.0406,-0.0513,-0.0635,-0.0705,-0.0683,-0.0587,-0.0475,-0.0416,-0.0416,-0.0454,-0.0523,-0.0603,-0.0651,-0.0651,-0.0593,-0.0497,-0.0384,-0.0256,-0.0112,0.0037,0.0166,0.0283,0.0416,0.0529,0.0587,0.0486,0.0198,-0.0166,-0.0518,-0.0892,-0.1255,-0.1356,-0.1025,-0.0432,0.0021,0.0,-0.0005,0.0368,0.0828,0.1468,0.2024,0.2301,0.2552,0.2739,0.2808,-0.0235,-0.0267,-0.031,-0.0384,-0.0464,-0.0502,-0.0486,-0.0454,-0.0443,-0.0475,-0.0545,-0.0619,-0.0673,-0.0699,-0.0683,-0.0625,-0.0529,-0.0416,-0.0299,-0.0176,-0.0037,0.0112,0.0251,0.0342,0.0395,0.0432,0.0443,0.0411,0.0315,0.0182,-0.0027,-0.0315,-0.0662,-0.0982,-0.1057,-0.0822,-0.0347,0.0315,0.0566,0.0203,0.0085,0.055,0.1025,0.1356,0.1655,0.1831,0.1927,-0.1345,-0.1244,-0.0966,-0.0699,-0.0571,-0.0545,-0.0566,-0.0598,-0.0635,-0.0673,-0.0689,-0.0667,-0.0641,-0.0625,-0.0603,-0.0545,-0.0448,-0.0342,-0.023,-0.0112,0.0016,0.0133,0.0214,0.023,0.0219,0.0203,0.0198,0.0192,0.0187,0.0176,0.0166,0.0107,-0.0091,-0.0422,-0.0646,-0.0699,-0.0571,-0.0224,0.0326,0.0908,0.0817,0.0203,0.016,0.0641,0.0897,0.0897,0.0924,-0.1735,-0.1628,-0.1367,-0.102,-0.0758,-0.0646,-0.0667,-0.0796,-0.102,-0.1228,-0.134,-0.134,-0.1196,-0.0897,-0.0619,-0.0475,-0.0368,-0.0262,-0.0149,-0.0043,0.0048,0.0112,0.0117,0.0069,0.0021,-0.0011,0.0,0.0043,0.0107,0.0155,0.0171,0.0139,0.0085,-0.0064,-0.0288,-0.04,-0.039,-0.0363,-0.0155,0.0278,0.0747,0.1105,0.086,0.0278,0.0251,0.0667,0.0988,-0.1532,-0.1559,-0.1426,-0.1201,-0.1095,-0.1153,-0.1276,-0.1377,-0.1452,-0.15,-0.1393,-0.1185,-0.1046,-0.0886,-0.0667,-0.0481,-0.0304,-0.0187,-0.0085,-0.0005,0.0037,0.0037,0.0,-0.0059,-0.0107,-0.0117,-0.0075,-0.0005,0.008,0.0139,0.0171,0.0176,0.0171,0.0107,-0.0085,-0.0256,-0.023,-0.0182,-0.0219,-0.0192,-0.0032,0.0384,0.0865,0.0945,0.0849,0.0801,0.0913,-0.1137,-0.1329,-0.1586,-0.1815,-0.1901,-0.1778,-0.1591,-0.1303,-0.086,-0.0283,0.0395,0.0246,-0.0021,0.0032,-0.0171,-0.04,-0.0256,-0.0112,-0.0016,0.0016,0.0005,-0.0037,-0.0085,-0.0123,-0.0166,-0.0176,-0.0144,-0.008,-0.0005,0.0075,0.0149,0.0198,0.0203,0.0171,0.0037,-0.0192,-0.024,-0.0144,-0.0214,-0.0347,-0.0326,-0.0182,0.0032,0.0331,0.0689,0.0972,0.0966,-0.0246,-0.0881,-0.1009,-0.0844,-0.0432,-0.0262,-0.0459,-0.0251,0.0235,0.0432,0.0262,0.0454,0.0363,0.0448,0.0406,-0.0043,-0.0037,-0.0005,0.0021,0.0021,-0.0021,-0.008,-0.0107,-0.0123,-0.016,-0.0192,-0.0214,-0.0214,-0.0182,-0.0112,-0.0005,0.0085,0.0091,0.0043,-0.0037,-0.0214,-0.0363,-0.0294,-0.0203,-0.0251,-0.0304,-0.0315,-0.032,-0.0294,-0.0256,-0.0283,-0.0358,0,0,0.0235,0.0384,0.0326,0.0593,0.0715,0.0395,0.0507,0.0619,0.0491,0.0416,0,0.0459,0.0844,0.0577,0.0283,0.0139,0.0064,0.0011,-0.0043,-0.0112,-0.0117,-0.0096,-0.0123,-0.016,-0.0208,-0.0283,-0.0363,-0.0427,-0.0443,-0.0438,-0.0438,-0.0416,-0.039,-0.0427,-0.0561,-0.0582,-0.0464,-0.0497,-0.0603,-0.0609,-0.0689,-0.0961,-0.1228,-0.1356,-0.1388,-0.0689,-0.0149,0.0539,0.0448,0.0144,0,0,0.024,0.0587,0.0678,0.0347,-0.0059,0.0529,0.1212,0,0,0,0,0,0,0,0,-0.0069,-0.0133,-0.0112,-0.0101,-0.0133,-0.0262,-0.0384,-0.0454,-0.039,-0.0278,-0.0256,-0.0379,-0.0534,-0.063,-0.0763,-0.078,-0.0742,-0.0662,-0.0635,-0.0774,-0.0966,-0.1025,-0.0972,-0.0988,-0.1217,-0.0336,0.0331,0.0507,0.0347,0.0523,0.0753,0.0587,0.0251,0.0069,0,0,0,0.0091,0.0251,0.0395,0.0571,0.0747,0.0625,0.0374,0.0267,0.0219,0,0,0,0,0,0,0,-0.0144,-0.0267,0.0005,0.0251,0.0603,0.0721,0.0566,0.0438,0.0336,0.0144,-0.0272,-0.0358,-0.0368,-0.0459,-0.0555,-0.0641,-0.0715,-0.0812,-0.0886,-0.0139,0.0539,0.0577,0.0481,0.0571,0.063,0.0246,0.0005,0.0368,0.0646,0.0603,0.0513,0.0368,0.0448,0.0753,0.0908,0.0908,0.0539,-0.0053,-0.0326,-0.0347,0,0,0,0,0,0,0,0,0,0,0,0,0.0187,0.0438,0.0475,0.0481,0.0518,0.04,-0.0021,-0.0075,-0.0085,-0.0133,-0.0198,-0.0299,-0.0363,-0.039,0,0.0224,0.0673,0.0715,0.0491,0.0454,0,0,0,0,0,0.008,0.0208,0.0464,0.0854,0.0977,0.0833,0.0416,0.0005,-0.008,0,0,0,0,0,0,0,0,0,0,0,0,0,0,0,0,0.0059,0.0085,0,0,-0.0176,-0.0203,-0.0171,-0.016,-0.0128,-0.0123,-0.016,0,0,0,0.0283,0.0625,0.0683,0,0,0,0,0,0.0,0.0149,0.0593,0.0972,0.0881,0.04,-0.0123,-0.031,0,0,0,0,0,0,0,0,0,0,0,0,0,0,0,0,0,0,-0.0395,-0.0534,0,0,0,0,0,0,0,-0.0027,0,0,0,0,0,0,0,0,0,0,0,-0.0048,0.0166,0.0726,0.0972,0.0603,0.0069,-0.0149,0,0,0,0,0,0,0,0,0,0,0,0,0,0,0,0,0,0,0,0,0.0027,0.0059,0.0272,0.0475,0,0,0,0,0,0,0,0,0,0,0,0,0,0,0,0,0.0064,0.0411,0.0865,0.0854,0.0464,0.0246,0,0,0,0,0,0,0,0,0,0,0,0,0,0,0,0,0,0,0,0,0,0,0.016,0.0251,0.0347,0.0347,0.024,0.0304,0,0,0,0,0,0,0,0,0,0,0,0,0,0,0.0678,0.0769,0.0689,0.04,0.0251,0,0,0,0,0,0,0,0,0,0,0,0,0,0,0,0,0,0,0,0,0,0,0,0,0,0,0.0123,0.0251,0,0,0,0,0,0,0,0,0,0,0,0,0,0,0.0176,0.0384,0.0448,0.039,0.0299,0,0,0,0,0,0,0,0,0,0,0,0,0,0,0,0,0,0,0,0,0,0,0,0,0,0,0,0,0,0,0,0,0,0,0,0,0,0,0,0,0,0,0.0053,0.0117,0.0336,0.0395,0.0246,0,0,0,0,0,0,0,0,0,0,0,0,0,0,0,0,0,0,0,0,0,0,0,0,0,0,0,0,0,0,0,0,0,0,0,0,0,0,0,0,0,0,0.0166,0.0283,0.031,0.0251,0.0117,0,0,0,0,0,0,0,0,0,0,0,0,0,0,0,0,0,0,0,0,0,0,0,0,0,0,0,0,0,0,0,0,0,0,0,0,0,0,0,0,0,0,0,0.0064,0.008,-0.0107,-0.024,0,0,0,0,0,0,0,0,0,0,0,0,0,0,0,0,0,0,0,0,0,0,0,0,0,0,0,0,0,0,0,0,0,0,0,0,0,0,0,0,0,0,0,-0.0021,-0.0368,-0.0523,-0.0352,0,0,0,0,0,0,0,0,0,0,0,0,0,0,0,0,0,0,0,0,0,0,0,0,0,0,0,0,0,0,0,0,0,0,0,0,0,0,0,0,0,0,0,0,-0.0299,-0.0598,0,0,0,0,0,0,0,0,0,0,0,0,0,0,0,0,0,0,0,0,0,0,0,0,0,0,0,0,0,0,0,0,0,0,0,0,0,0,0,0,0,0,0,0,0,0,0,0,0,0,0,0,0,0,0,0,0,0,0,0,0,0,0,0,0,0,0,0,0,0,0,0,0,0,0,0,0,0,0,0,0,0,0,0,0,0,0,0,0,0,0,0,0,0,0,0,0,0,0,0,0,0,0,0,0,0,0,0,0,0,0,0,0,0,0,0,0,0,0,0,0,0,0,0,0,0,0,0,0,0,0,0,0,0,0,0,0,0,0,0,0,0,0,0,0,0,0,0,0,0,0,0,0,0,0,0,0,0,0,0,0,0,0,0,0,0,0,0,0,0,0,0,0,0,0,0,0,0,0,0,0,0,0,0,0,0,0,0,0,0,0,0,0,0,0,0,0,0,0,0,0,0,0,0,0,0,0,0,0,0,0,0,0,0,0,0,0,0,0,0,0,0,0,0,0,0,0,0,0,0,0,0,0,0,0,0,0,0,0,0,0,0,0,0,0,0,0,0,0,0,0,0,0,0,0,0,0,0,0,0,0,0,0,0,0,0,0,0,0,0,0,0,0,0,0,0,0,0,0,0,0,0,0,0,0,0,0,0,0,0,0,0,0,0,0,0,0,0,0,0,0,0,0,0,0,0,0,0,0,0,0,0,0]}],[{"header":{"parameterUnit":"kt","parameterCategory":2,"dx":1,"dy":1,"la1":29.764190673828125,"la2":30.86408042907715,"lo1":-88.46762084960938,"lo2":-86.9344482421875,"nx":47,"ny":34,"refTime":"2022-10-07T00:00:00:Z","depth":"10","parameterNumber":3,"parameterNumberName":"V-component_of_CURRENTS"},"data":[-0.2312,-0.1372,-0.0448,-0.0075,0.0331,0.0582,0.0683,0.0731,0.086,0.0817,0.0422,-0.016,-0.0059,0.0235,0.0224,0.024,0.0133,0.0085,0.0117,0.0149,-0.0149,-0.0432,-0.0262,0.0005,-0.0192,-0.1004,-0.1719,-0.181,-0.1495,-0.1297,-0.1516,-0.1911,-0.2136,-0.2088,-0.1735,-0.1148,-0.0603,-0.0182,0.008,0.0091,-0.0112,-0.0491,-0.0908,-0.1313,-0.1778,-0.2397,-0.3091,-0.2306,-0.1538,-0.0555,-0.0224,0.0176,0.0507,0.0678,0.0737,0.0774,0.0561,0.0069,-0.0101,0.0187,0.0246,0.0139,0.0069,0.0011,0.0043,0.0117,0.016,-0.0149,-0.0459,-0.0187,0.0267,0.0037,-0.0828,-0.1575,-0.1885,-0.1671,-0.1255,-0.1036,-0.1223,-0.1559,-0.1757,-0.1714,-0.1511,-0.1372,-0.1207,-0.1036,-0.0977,-0.1057,-0.1308,-0.1655,-0.2066,-0.2515,-0.3006,-0.3422,-0.1997,-0.1612,-0.078,-0.0299,0.0069,0.0347,0.047,0.0523,0.0406,0.0091,-0.0064,0.0192,0.0326,0.0112,-0.0011,-0.0112,-0.0037,0.0064,0.0182,0.0192,-0.0128,-0.0374,-0.0037,0.0513,0.0368,-0.0614,-0.1276,-0.1746,-0.1837,-0.1602,-0.1271,-0.102,-0.1036,-0.1191,-0.1297,-0.1313,-0.1361,-0.1388,-0.1436,-0.1468,-0.1484,-0.1538,-0.1719,-0.2007,-0.2333,-0.2621,-0.284,-0.1516,-0.1404,-0.0918,-0.04,-0.0091,0.0107,0.0176,0.0139,0.0021,-0.0037,0.0139,0.0326,0.0176,-0.0059,-0.0187,-0.0155,-0.0016,0.0128,0.0256,0.023,-0.0048,-0.0262,-0.0021,0.0481,0.0539,-0.0246,-0.0998,-0.1468,-0.1676,-0.1682,-0.15,-0.1287,-0.11,-0.0934,-0.0785,-0.078,-0.0876,-0.1004,-0.11,-0.1143,-0.1073,-0.102,-0.1052,-0.1185,-0.1377,-0.1559,-0.1714,-0.103,-0.1046,-0.0785,-0.0416,-0.0219,-0.008,-0.0016,-0.0027,-0.0053,0.0005,0.0133,0.0096,-0.0107,-0.0203,-0.0214,-0.0069,0.0069,0.0192,0.0267,0.0262,0.0107,-0.0133,-0.0101,0.0187,0.0326,-0.0043,-0.0667,-0.1148,-0.1383,-0.15,-0.1506,-0.1436,-0.1372,-0.1271,-0.0897,-0.0448,-0.031,-0.0294,-0.0486,-0.0571,-0.0534,-0.0561,-0.0534,-0.0497,-0.0534,-0.0609,-0.0635,-0.0609,-0.0646,-0.0491,-0.0368,-0.0294,-0.0214,-0.0166,-0.016,-0.0166,-0.0166,-0.0144,-0.0149,-0.0198,-0.0192,-0.008,0.0048,0.0149,0.0208,0.023,0.0235,0.0192,0.0,-0.0133,-0.0096,-0.0032,-0.0112,-0.0374,-0.0763,-0.1052,-0.1212,-0.1345,-0.1388,-0.1426,-0.1458,-0.1393,-0.1041,-0.0555,-0.0032,0.0117,0.0182,0.0048,-0.0107,-0.0069,-0.0011,0.0053,0.0144,0.0256,-0.0336,-0.032,-0.0272,-0.031,-0.0331,-0.0347,-0.0358,-0.0379,-0.0363,-0.0304,-0.0224,-0.0149,-0.0091,-0.0048,0.0043,0.0117,0.016,0.0176,0.0171,0.0155,0.0123,0.0011,-0.0166,-0.024,-0.0235,-0.0187,-0.0219,-0.0406,-0.0641,-0.0806,-0.0998,-0.1164,-0.1324,-0.141,-0.1388,-0.1367,-0.1228,-0.1014,-0.0395,0.0123,0.0299,0.0481,0.0464,0.0411,0.0491,0.0689,0.087,-0.0272,-0.0214,-0.0187,-0.0219,-0.0272,-0.0352,-0.0427,-0.0454,-0.039,-0.0262,-0.0128,-0.0021,0.0032,0.0069,0.0107,0.0123,0.0133,0.0128,0.0107,0.0069,0.0011,-0.0107,-0.0262,-0.0336,-0.0294,-0.0214,-0.016,-0.0208,-0.0326,-0.047,-0.0625,-0.0785,-0.1014,-0.1287,-0.1297,-0.1132,-0.1121,-0.1351,-0.1484,-0.1265,-0.0566,0.0096,0.0214,0.04,0.0523,0.0667,0.0806,-0.0342,-0.0363,-0.0342,-0.0267,-0.0251,-0.031,-0.0406,-0.0443,-0.0363,-0.0198,-0.0059,0.0043,0.0112,0.0133,0.0149,0.0107,0.0091,0.0069,0.0048,-0.0005,-0.0101,-0.023,-0.0342,-0.0379,-0.0326,-0.0224,-0.0144,-0.0144,-0.0214,-0.0331,-0.0432,-0.0523,-0.0625,-0.0924,-0.1169,-0.1121,-0.087,-0.0817,-0.1244,-0.1666,-0.1842,-0.1516,-0.079,-0.0208,-0.0144,-0.0112,-0.0075,-0.0326,-0.0529,-0.0619,-0.0491,-0.0342,-0.031,-0.0326,-0.0336,-0.023,0.0011,0.0166,0.0176,0.0133,0.0027,0.0096,0.0064,0.0037,0.0016,-0.0016,-0.0085,-0.0192,-0.0294,-0.0347,-0.0347,-0.0294,-0.0208,-0.0144,-0.0149,-0.0219,-0.0315,-0.0374,-0.04,-0.0368,-0.0555,-0.0902,-0.1036,-0.0988,-0.0806,-0.0555,-0.0667,-0.1367,-0.1911,-0.1981,-0.165,-0.1281,-0.1089,-0.1127,-0.0085,-0.0443,-0.0673,-0.0635,-0.0379,-0.024,-0.0198,-0.0075,0.0288,0.055,0.0646,0.0593,0.0406,0.0048,-0.0005,-0.0085,-0.0037,-0.0048,-0.008,-0.0149,-0.0235,-0.0288,-0.0294,-0.0267,-0.0235,-0.0192,-0.0176,-0.0214,-0.0283,-0.0342,-0.0358,-0.0347,-0.0299,-0.0315,-0.0587,-0.0833,-0.0972,-0.0972,-0.0742,-0.0481,-0.0352,-0.0625,-0.1393,-0.1901,-0.2184,-0.2296,-0.2419,0.0149,0.0011,-0.0374,-0.024,-0.0027,0.0112,0.0107,0.0299,0.086,0.0833,0.0171,-0.0085,0.0166,-0.0069,0.0267,-0.0251,-0.0144,-0.0112,-0.0101,-0.0139,-0.0187,-0.0214,-0.0219,-0.0182,-0.0171,-0.0176,-0.0224,-0.0294,-0.0374,-0.0411,-0.0395,-0.0347,-0.0267,-0.0182,-0.0294,-0.0614,-0.0801,-0.0844,-0.0822,-0.0715,-0.0587,-0.0635,-0.0731,-0.0876,-0.1164,-0.1725,-0.2333,0.0262,0.0374,0.0075,0.063,0.0448,0.0262,0.0331,0.0048,0.0587,-0.0443,-0.0539,-0.0294,0.0133,-0.0128,0.0459,-0.0294,-0.0192,-0.0101,-0.0043,-0.0037,-0.0064,-0.0096,-0.0149,-0.0091,-0.008,-0.0123,-0.0214,-0.0331,-0.0454,-0.0523,-0.0523,-0.0395,-0.0219,-0.0091,-0.0069,-0.0315,-0.0667,-0.0667,-0.0571,-0.0534,-0.0657,-0.1036,-0.1121,-0.079,-0.0507,-0.0865,-0.1335,0,0,0.0342,0.0486,0.0294,-0.0048,-0.0358,0.0395,0.0182,-0.0037,0.0144,-0.0053,0,-0.0507,0.0411,-0.0326,-0.0166,-0.0043,0.0021,0.0037,0.0027,-0.0016,-0.0139,0.0005,0.0027,-0.0021,-0.0112,-0.0246,-0.0448,-0.0577,-0.063,-0.0363,-0.0053,0.0027,0.0048,-0.0048,-0.0443,-0.0651,-0.0486,-0.0304,-0.0427,-0.0747,-0.0801,-0.063,-0.0673,-0.1036,-0.1217,0.0048,0.0374,0.0561,0.0577,0.0582,0,0,0.0459,0.0101,0.0251,0.055,0.0411,0.0315,-0.0694,0,0,0,0,0,0,0,0,-0.0171,0.0037,0.0069,0.0021,-0.0032,-0.0149,-0.0342,-0.0352,-0.016,0.0208,0.0577,0.0657,0.0577,0.0395,-0.016,-0.0694,-0.0518,-0.0278,-0.0299,-0.0464,-0.047,-0.0384,-0.0406,-0.0571,-0.071,0.0208,0.0315,0.0251,0.0539,0.0828,0.0278,0.0395,0.0561,0.0235,0,0,0,0.0646,0.0182,0.0304,0.0294,0.0331,0.0422,0.0166,0.0155,0.0219,0,0,0,0,0,0,0,-0.0128,-0.0096,0.0374,0.0448,0.0593,0.0555,0.0683,0.0902,0.0918,0.0182,-0.0374,-0.0363,-0.0166,-0.0208,-0.0272,-0.0368,-0.0352,-0.0299,-0.031,0.0315,0.0,-0.024,0.0176,0.0427,0.0096,0.079,0.0721,0.0763,0.0,0.0,0.0619,0.0849,0.0865,0.0694,0.0673,0.0715,0.086,0.0523,0.0459,0.0443,0,0,0,0,0,0,0,0,0,0,0,0,0.0539,0.0539,0.086,0.0918,0.0737,0.0758,-0.0166,-0.0059,-0.0011,-0.0091,-0.0149,-0.0139,-0.0133,-0.0192,0,0.0112,-0.04,-0.0027,0.0085,0.008,0,0,0,0,0,0.1191,0.1025,0.0833,0.0769,0.0758,0.0763,0.0753,0.0587,0.0507,0,0,0,0,0,0,0,0,0,0,0,0,0,0,0,0,0.0715,0.0486,0,0,0.0005,0.0123,0.0021,0.0011,0.0021,-0.0053,-0.0112,0,0,0,0.0107,0.0085,0.0529,0,0,0,0,0,0.1153,0.103,0.0753,0.0721,0.0774,0.0801,0.0742,0.0459,0,0,0,0,0,0,0,0,0,0,0,0,0,0,0,0,0,0,0.0331,0.0043,0,0,0,0,0,0,0,-0.0075,0,0,0,0,0,0,0,0,0,0,0,0.1084,0.1068,0.0806,0.0635,0.0785,0.0892,0.0849,0,0,0,0,0,0,0,0,0,0,0,0,0,0,0,0,0,0,0,0,0.008,0.0358,0.0416,0.0358,0,0,0,0,0,0,0,0,0,0,0,0,0,0,0,0,0.1041,0.1127,0.0902,0.0625,0.0833,0.0956,0,0,0,0,0,0,0,0,0,0,0,0,0,0,0,0,0,0,0,0,0,0,0.071,0.0833,0.0715,0.0,-0.0027,0.0096,0,0,0,0,0,0,0,0,0,0,0,0,0,0,0.1287,0.1041,0.0737,0.0892,0.0956,0,0,0,0,0,0,0,0,0,0,0,0,0,0,0,0,0,0,0,0,0,0,0,0,0,0,-0.0059,0.0192,0,0,0,0,0,0,0,0,0,0,0,0,0,0,0.1292,0.1116,0.0844,0.0924,0.0966,0,0,0,0,0,0,0,0,0,0,0,0,0,0,0,0,0,0,0,0,0,0,0,0,0,0,0,0,0,0,0,0,0,0,0,0,0,0,0,0,0,0,0.1057,0.1041,0.0924,0.0934,0.0972,0,0,0,0,0,0,0,0,0,0,0,0,0,0,0,0,0,0,0,0,0,0,0,0,0,0,0,0,0,0,0,0,0,0,0,0,0,0,0,0,0,0,0.0924,0.0972,0.0988,0.0924,0.0902,0,0,0,0,0,0,0,0,0,0,0,0,0,0,0,0,0,0,0,0,0,0,0,0,0,0,0,0,0,0,0,0,0,0,0,0,0,0,0,0,0,0,0,0.0844,0.0966,0.0833,0.0812,0,0,0,0,0,0,0,0,0,0,0,0,0,0,0,0,0,0,0,0,0,0,0,0,0,0,0,0,0,0,0,0,0,0,0,0,0,0,0,0,0,0,0,0.0731,0.0502,0.0689,0.0785,0,0,0,0,0,0,0,0,0,0,0,0,0,0,0,0,0,0,0,0,0,0,0,0,0,0,0,0,0,0,0,0,0,0,0,0,0,0,0,0,0,0,0,0,0.0069,0.0635,0,0,0,0,0,0,0,0,0,0,0,0,0,0,0,0,0,0,0,0,0,0,0,0,0,0,0,0,0,0,0,0,0,0,0,0,0,0,0,0,0,0,0,0,0,0,0,0,0,0,0,0,0,0,0,0,0,0,0,0,0,0,0,0,0,0,0,0,0,0,0,0,0,0,0,0,0,0,0,0,0,0,0,0,0,0,0,0,0,0,0,0,0,0,0,0,0,0,0,0,0,0,0,0,0,0,0,0,0,0,0,0,0,0,0,0,0,0,0,0,0,0,0,0,0,0,0,0,0,0,0,0,0,0,0,0,0,0,0,0,0,0,0,0,0,0,0,0,0,0,0,0,0,0,0,0,0,0,0,0,0,0,0,0,0,0,0,0,0,0,0,0,0,0,0,0,0,0,0,0,0,0,0,0,0,0,0,0,0,0,0,0,0,0,0,0,0,0,0,0,0,0,0,0,0,0,0,0,0,0,0,0,0,0,0,0,0,0,0,0,0,0,0,0,0,0,0,0,0,0,0,0,0,0,0,0,0,0,0,0,0,0,0,0,0,0,0,0,0,0,0,0,0,0,0,0,0,0,0,0,0,0,0,0,0,0,0,0,0,0,0,0,0,0,0,0,0,0,0,0,0,0,0,0,0,0,0,0,0,0,0,0,0,0,0,0,0,0,0,0,0,0,0,0,0,0,0,0,0,0,0,0,0]}]],[[{"header":{"parameterUnit":"kt","parameterCategory":2,"dx":1,"dy":1,"la1":29.764190673828125,"la2":30.86408042907715,"lo1":-88.46762084960938,"lo2":-86.9344482421875,"nx":47,"ny":34,"refTime":"2022-10-07T00:00:00:Z","depth":"12","parameterNumber":2,"parameterNumberName":"U-component_of_CURRENTS"},"data":[-0.04,-0.0315,-0.0224,-0.0085,0.008,0.0101,-0.0075,-0.0224,-0.0224,-0.0262,-0.0288,-0.0283,-0.0491,-0.0785,-0.0822,-0.0673,-0.055,-0.0491,-0.0497,-0.0486,-0.0363,-0.0246,-0.0299,-0.0555,-0.0849,-0.0881,-0.0801,-0.0801,-0.0603,-0.0262,0.0128,0.0427,0.0534,0.0593,0.0523,0.0486,0.0689,0.1004,0.1351,0.166,0.1847,0.1906,0.1858,0.1719,0.1532,0.134,0.1143,-0.1052,-0.1062,-0.0918,-0.0753,-0.0577,-0.0443,-0.0438,-0.0518,-0.0614,-0.0529,-0.0304,-0.0363,-0.0657,-0.0833,-0.079,-0.0582,-0.0374,-0.0278,-0.0336,-0.0507,-0.0518,-0.0352,-0.0347,-0.0635,-0.1057,-0.1308,-0.1297,-0.1255,-0.1159,-0.0817,-0.0427,-0.0016,0.0384,0.0635,0.0806,0.0945,0.1095,0.1276,0.1479,0.1676,0.1826,0.1901,0.1927,0.1895,0.1799,0.1692,0.1644,-0.1511,-0.1628,-0.1532,-0.1297,-0.118,-0.1137,-0.1105,-0.1084,-0.0844,-0.04,-0.0208,-0.0464,-0.078,-0.0812,-0.0641,-0.0427,-0.0288,-0.0256,-0.0304,-0.0422,-0.0491,-0.0443,-0.0427,-0.0529,-0.0801,-0.1164,-0.1442,-0.1532,-0.1468,-0.126,-0.0961,-0.0689,-0.0331,0.0272,0.0822,0.1046,0.1249,0.1548,0.1831,0.204,0.221,0.2328,0.2413,0.2477,0.2477,0.2451,0.2392,-0.1655,-0.1767,-0.1826,-0.1794,-0.1676,-0.1479,-0.1244,-0.087,-0.0507,-0.0427,-0.063,-0.0828,-0.078,-0.0635,-0.0459,-0.0326,-0.0304,-0.0336,-0.0358,-0.0358,-0.0427,-0.0513,-0.0491,-0.04,-0.047,-0.0683,-0.0972,-0.1271,-0.1463,-0.1506,-0.1292,-0.0961,-0.0737,-0.0523,0.0032,0.0758,0.1335,0.1751,0.2007,0.2221,0.2483,0.2702,0.2851,0.2942,0.2963,0.291,0.2766,-0.1399,-0.1634,-0.1591,-0.1495,-0.1361,-0.1212,-0.1057,-0.0966,-0.0977,-0.0998,-0.0934,-0.0747,-0.0534,-0.039,-0.0331,-0.0368,-0.0438,-0.047,-0.0432,-0.0384,-0.0438,-0.0577,-0.0625,-0.047,-0.0262,-0.0304,-0.0497,-0.0673,-0.0945,-0.1271,-0.1458,-0.1367,-0.0972,-0.0582,-0.0379,-0.008,0.0513,0.1281,0.1869,0.2237,0.2557,0.275,0.2899,0.3033,0.3081,0.3043,0.2942,-0.0427,-0.0886,-0.1324,-0.1458,-0.1388,-0.1281,-0.1185,-0.1089,-0.0956,-0.0763,-0.0571,-0.0427,-0.0374,-0.0406,-0.0475,-0.0545,-0.0566,-0.0523,-0.0427,-0.031,-0.0208,-0.0208,-0.024,-0.0128,0.0123,0.0299,0.0166,-0.0133,-0.0422,-0.0742,-0.1127,-0.1426,-0.1447,-0.1068,-0.0481,-0.0219,-0.0144,0.0144,0.0699,0.1516,0.2093,0.2403,0.2712,0.2942,0.3075,0.3129,0.3097,-0.0166,-0.0272,-0.039,-0.0497,-0.0619,-0.0689,-0.0667,-0.0571,-0.0459,-0.0395,-0.0395,-0.0432,-0.0502,-0.0577,-0.063,-0.0625,-0.0566,-0.0475,-0.0368,-0.024,-0.0096,0.0053,0.0176,0.0299,0.0432,0.0545,0.0603,0.0502,0.0208,-0.0155,-0.0502,-0.0876,-0.1239,-0.1335,-0.0998,-0.0411,0.0037,0.0016,0.0011,0.0379,0.0844,0.1484,0.204,0.2317,0.2563,0.275,0.2819,-0.0219,-0.0251,-0.0294,-0.0368,-0.0443,-0.0481,-0.047,-0.0432,-0.0427,-0.0454,-0.0523,-0.0593,-0.0646,-0.0673,-0.0662,-0.0603,-0.0507,-0.0395,-0.0283,-0.0166,-0.0027,0.0128,0.0262,0.0352,0.0406,0.0443,0.0459,0.0427,0.0331,0.0192,-0.0011,-0.0304,-0.0651,-0.0966,-0.1036,-0.0796,-0.0315,0.0347,0.0593,0.0224,0.0101,0.0566,0.1036,0.1372,0.1671,0.1847,0.1938,-0.126,-0.1175,-0.0924,-0.0673,-0.055,-0.0529,-0.0545,-0.0577,-0.0614,-0.0651,-0.0662,-0.0641,-0.0614,-0.0603,-0.0582,-0.0518,-0.0427,-0.032,-0.0214,-0.0096,0.0027,0.0144,0.0219,0.024,0.023,0.0219,0.0214,0.0208,0.0203,0.0192,0.0176,0.0123,-0.008,-0.0406,-0.063,-0.0678,-0.0545,-0.0176,0.0374,0.0961,0.0854,0.0235,0.0182,0.0657,0.0918,0.0918,0.094,-0.1404,-0.1361,-0.1207,-0.0956,-0.0737,-0.063,-0.0641,-0.0747,-0.0854,-0.0881,-0.0876,-0.0844,-0.0801,-0.0731,-0.0593,-0.0454,-0.0347,-0.024,-0.0139,-0.0032,0.0059,0.0123,0.0128,0.0085,0.0032,0.0005,0.0016,0.0059,0.0117,0.0171,0.0182,0.0155,0.0096,-0.0048,-0.0278,-0.0384,-0.0368,-0.0342,-0.0112,0.0358,0.0785,0.103,0.0902,0.032,0.0283,0.0694,0.1009,-0.1041,-0.1121,-0.1196,-0.1127,-0.1057,-0.1068,-0.1105,-0.103,-0.0833,-0.0593,-0.0267,0.0043,0.0059,-0.0091,-0.0336,-0.0432,-0.0283,-0.0166,-0.0075,0.0005,0.0048,0.0048,0.0011,-0.0043,-0.0091,-0.0101,-0.0064,0.0011,0.0091,0.0149,0.0182,0.0192,0.0182,0.0123,-0.0069,-0.024,-0.0214,-0.0171,-0.0203,-0.0176,0.0048,0.0539,0.079,0.0657,0.0662,0.0796,0.0913,-0.0427,-0.0737,-0.1153,-0.1361,-0.1201,-0.0988,-0.0838,-0.0497,0.0085,0.0523,0.0379,0.0347,0.0299,0.0432,0.0256,-0.0251,-0.0235,-0.0096,0.0,0.0032,0.0021,-0.0021,-0.0064,-0.0107,-0.0149,-0.016,-0.0133,-0.0069,0.0011,0.0091,0.016,0.0208,0.0219,0.0187,0.0053,-0.0171,-0.0219,-0.0123,-0.0203,-0.0336,-0.031,-0.0149,0.0149,0.0486,0.055,0.0555,0.055,0.0064,-0.0326,-0.0518,-0.024,0.0112,0.0139,0.0155,0.0107,0.0347,0.039,0.031,0,0.0347,0,0.0379,0.0,-0.0021,0.0005,0.0032,0.0032,-0.0005,-0.0059,-0.0091,-0.0112,-0.0144,-0.0176,-0.0198,-0.0198,-0.0171,-0.0101,0.0011,0.0101,0.0101,0.0053,-0.0027,-0.0192,-0.0342,-0.0278,-0.0192,-0.0235,-0.0288,-0.0304,-0.0315,-0.0283,-0.0198,-0.0117,-0.0091,0,0,0,0,0,0.0486,0.0566,0,0,0,0,0,0,0,0,0,0,0,0,0,0,0,0,0,0,0,-0.0192,-0.0256,-0.0347,-0.04,-0.0368,-0.0272,-0.024,-0.0294,-0.0352,-0.0416,-0.055,-0.0577,-0.0454,-0.0481,-0.0587,-0.0593,-0.0673,-0.0945,-0.1217,-0.1345,-0.1377,0,0,0,0,0,0,0,0,0,0,0,0,0,0,0,0,0,0,0,0,0,0,0,0,0,0,0,0,0,-0.04,-0.0059,0.0187,0.0331,0.0294,0.0117,-0.0117,-0.0513,-0.0715,-0.0726,-0.0641,-0.0614,-0.0758,-0.095,-0.1014,-0.0956,-0.0972,-0.1191,0,0,0,0,0,0,0,0,0,0,0,0,0,0,0,0,0,0,0,0,0,0,0,0,0,0,0,0,0,0,0,0,0,0,0,0,0.0267,0.031,-0.0011,-0.0288,-0.0336,-0.0432,-0.0539,-0.063,-0.071,-0.0801,-0.0881,0,0,0,0,0,0,0,0,0,0,0,0,0,0,0,0,0,0,0,0,0,0,0,0,0,0,0,0,0,0,0,0,0,0,0,0,0,0,0.0342,0.0037,-0.0048,-0.0059,-0.0117,-0.0182,-0.0288,-0.0352,-0.0379,0,0,0,0,0,0,0,0,0,0,0,0,0,0,0,0,0,0,0,0,0,0,0,0,0,0,0,0,0,0,0,0,0,0,0,0,0,0,0,0,0,-0.0187,-0.0166,-0.0155,-0.0123,-0.0117,-0.0149,0,0,0,0,0,0,0,0,0,0,0,0,0,0,0,0,0,0,0,0,0,0,0,0,0,0,0,0,0,0,0,0,0,0,0,0,0,0,0,0,0,0,0,0,0,0,-0.0021,0,0,0,0,0,0,0,0,0,0,0,0,0,0,0,0,0,0,0,0,0,0,0,0,0,0,0,0,0,0,0,0,0,0,0,0,0,0,0,0,0,0,0,0,0,0,0,0,0,0,0,0,0,0,0,0,0,0,0,0,0,0,0,0,0,0,0,0,0,0,0,0,0,0,0,0,0,0,0,0,0,0,0,0,0,0,0,0,0,0,0,0,0,0,0,0,0,0,0,0,0,0,0,0,0,0,0,0,0,0,0,0,0,0,0,0,0,0,0,0,0,0,0,0,0,0,0,0,0,0,0,0,0,0,0,0,0,0,0,0,0,0,0,0,0,0,0,0,0,0,0,0,0,0,0,0,0,0,0,0,0,0,0,0,0,0,0,0,0,0,0,0,0,0,0,0,0,0,0,0,0,0,0,0,0,0,0,0,0,0,0,0,0,0,0,0,0,0,0,0,0,0,0,0,0,0,0,0,0,0,0,0,0,0,0,0,0,0,0,0,0,0,0,0,0,0,0,0,0,0,0,0,0,0,0,0,0,0,0,0,0,0,0,0,0,0,0,0,0,0,0,0,0,0,0,0,0,0,0,0,0,0,0,0,0,0,0,0,0,0,0,0,0,0,0,0,0,0,0,0,0,0,0,0,0,0,0,0,0,0,0,0,0,0,0,0,0,0,0,0,0,0,0,0,0,0,0,0,0,0,0,0,0,0,0,0,0,0,0,0,0,0,0,0,0,0,0,0,0,0,0,0,0,0,0,0,0,0,0,0,0,0,0,0,0,0,0,0,0,0,0,0,0,0,0,0,0,0,0,0,0,0,0,0,0,0,0,0,0,0,0,0,0,0,0,0,0,0,0,0,0,0,0,0,0,0,0,0,0,0,0,0,0,0,0,0,0,0,0,0,0,0,0,0,0,0,0,0,0,0,0,0,0,0,0,0,0,0,0,0,0,0,0,0,0,0,0,0,0,0,0,0,0,0,0,0,0,0,0,0,0,0,0,0,0,0,0,0,0,0,0,0,0,0,0,0,0,0,0,0,0,0,0,0,0,0,0,0,0,0,0,0,0,0,0,0,0,0,0,0,0,0,0,0,0,0,0,0,0,0,0,0,0,0,0,0,0,0,0,0,0,0,0,0,0,0,0,0,0,0,0,0,0,0,0,0,0,0,0,0,0,0,0,0,0,0,0,0,0,0,0,0,0,0,0,0,0,0,0,0,0,0,0,0,0,0,0,0,0,0,0,0,0,0,0,0,0,0,0,0,0,0,0,0,0,0,0,0,0,0,0,0,0,0,0,0,0,0,0,0,0,0,0,0,0,0,0,0,0,0,0,0,0,0,0,0,0,0,0,0,0,0,0,0,0,0,0,0,0,0,0,0,0,0,0,0,0,0,0,0,0,0,0,0,0,0,0,0,0,0,0,0,0,0,0,0,0,0,0,0,0,0,0,0,0,0,0,0,0,0,0,0,0,0,0,0,0,0,0,0,0,0,0,0,0,0,0,0,0,0,0,0,0,0,0,0,0,0,0,0,0,0,0,0,0,0,0,0,0,0,0,0,0,0,0,0,0,0,0,0,0,0,0,0,0]}],[{"header":{"parameterUnit":"kt","parameterCategory":2,"dx":1,"dy":1,"la1":29.764190673828125,"la2":30.86408042907715,"lo1":-88.46762084960938,"lo2":-86.9344482421875,"nx":47,"ny":34,"refTime":"2022-10-07T00:00:00:Z","depth":"12","parameterNumber":3,"parameterNumberName":"V-component_of_CURRENTS"},"data":[-0.228,-0.1345,-0.0411,-0.0043,0.0363,0.0614,0.071,0.0758,0.0892,0.0854,0.0459,-0.0117,-0.0032,0.0267,0.0251,0.0272,0.016,0.0112,0.0144,0.0176,-0.0123,-0.0406,-0.024,0.0032,-0.016,-0.0972,-0.1687,-0.1773,-0.1463,-0.1271,-0.1484,-0.1879,-0.2104,-0.2056,-0.1703,-0.1121,-0.0577,-0.0155,0.0107,0.0117,-0.0091,-0.0464,-0.0881,-0.1287,-0.1757,-0.2376,-0.307,-0.2274,-0.1506,-0.0529,-0.0198,0.0203,0.0539,0.071,0.0769,0.0812,0.0614,0.0112,-0.0064,0.0214,0.0278,0.0166,0.0096,0.0032,0.0069,0.0144,0.0187,-0.0128,-0.0432,-0.0166,0.0288,0.0064,-0.079,-0.1543,-0.1847,-0.1639,-0.1223,-0.1004,-0.1191,-0.1532,-0.1725,-0.1671,-0.1479,-0.134,-0.1175,-0.1004,-0.0945,-0.1025,-0.1281,-0.1634,-0.204,-0.2493,-0.2979,-0.3396,-0.1959,-0.157,-0.0742,-0.0267,0.0101,0.0384,0.0513,0.0566,0.0459,0.0139,-0.0027,0.0219,0.0352,0.0144,0.0016,-0.0085,-0.0016,0.0085,0.0208,0.0219,-0.0101,-0.0347,-0.0011,0.0534,0.0395,-0.0582,-0.1244,-0.1709,-0.1799,-0.1564,-0.1239,-0.0982,-0.1004,-0.1153,-0.1255,-0.1276,-0.1324,-0.1345,-0.1399,-0.1431,-0.1447,-0.1511,-0.1692,-0.1981,-0.2312,-0.2595,-0.2814,-0.1479,-0.1361,-0.087,-0.0363,-0.0048,0.0149,0.0224,0.0182,0.0059,-0.0005,0.0171,0.0352,0.0208,-0.0032,-0.016,-0.0128,0.0011,0.0155,0.0283,0.0256,-0.0016,-0.0235,0.0011,0.0507,0.0566,-0.0214,-0.0966,-0.1431,-0.1634,-0.1639,-0.1463,-0.1249,-0.1057,-0.0892,-0.0742,-0.0737,-0.0844,-0.0972,-0.1068,-0.11,-0.103,-0.0988,-0.1025,-0.1159,-0.1351,-0.1538,-0.1692,-0.0998,-0.1014,-0.0742,-0.0379,-0.0182,-0.0043,0.0021,0.0011,-0.0021,0.0037,0.016,0.0123,-0.008,-0.0176,-0.0182,-0.0043,0.0101,0.0224,0.0299,0.0294,0.0139,-0.0107,-0.0069,0.0219,0.0352,-0.0016,-0.0641,-0.1116,-0.1345,-0.1458,-0.1468,-0.1399,-0.1329,-0.1223,-0.0849,-0.0406,-0.0278,-0.0256,-0.0459,-0.0539,-0.0497,-0.0523,-0.0502,-0.047,-0.0513,-0.0587,-0.0614,-0.0577,-0.0619,-0.0459,-0.0342,-0.0262,-0.0182,-0.0133,-0.0128,-0.0139,-0.0139,-0.0117,-0.0117,-0.0166,-0.016,-0.0048,0.008,0.0182,0.024,0.0262,0.0262,0.0219,0.0032,-0.0101,-0.0064,0.0,-0.008,-0.0347,-0.0731,-0.102,-0.118,-0.1313,-0.1356,-0.1388,-0.141,-0.1335,-0.0993,-0.0513,0.0,0.0149,0.0214,0.0085,-0.0064,-0.0032,0.0016,0.008,0.0166,0.0283,-0.031,-0.0294,-0.0246,-0.0283,-0.0304,-0.0315,-0.0331,-0.0347,-0.0331,-0.0272,-0.0192,-0.0112,-0.0053,-0.0011,0.0075,0.0149,0.0192,0.0208,0.0198,0.0182,0.0149,0.0037,-0.0139,-0.0214,-0.0208,-0.0166,-0.0192,-0.0379,-0.0614,-0.0774,-0.0961,-0.1132,-0.1287,-0.1367,-0.1335,-0.1308,-0.1175,-0.0966,-0.0358,0.016,0.0336,0.0523,0.0507,0.0448,0.0529,0.0715,0.0892,-0.024,-0.0182,-0.0155,-0.0192,-0.024,-0.032,-0.0395,-0.0422,-0.0358,-0.023,-0.0091,0.0016,0.0075,0.0107,0.0149,0.016,0.0166,0.016,0.0139,0.0101,0.0037,-0.0085,-0.0235,-0.0315,-0.0278,-0.0198,-0.0139,-0.0187,-0.0304,-0.0443,-0.0598,-0.0753,-0.0977,-0.1249,-0.1255,-0.1062,-0.1052,-0.1276,-0.1431,-0.1217,-0.0518,0.0139,0.0256,0.0448,0.0566,0.0705,0.0838,-0.0235,-0.0267,-0.0272,-0.0224,-0.0214,-0.0278,-0.0374,-0.0406,-0.032,-0.0155,-0.0011,0.0091,0.0155,0.0182,0.0182,0.0149,0.0128,0.0107,0.008,0.0027,-0.0075,-0.0203,-0.0315,-0.0358,-0.0304,-0.0208,-0.0128,-0.0123,-0.0192,-0.031,-0.0406,-0.0497,-0.0598,-0.0892,-0.1132,-0.1078,-0.0817,-0.0715,-0.1153,-0.1564,-0.1757,-0.1452,-0.0742,-0.0155,-0.0091,-0.0059,-0.0032,-0.0059,-0.0283,-0.0416,-0.0411,-0.0299,-0.0267,-0.0283,-0.0272,-0.0107,0.0144,0.031,0.0336,0.0294,0.0176,0.0133,0.0101,0.008,0.0053,0.0016,-0.0053,-0.0166,-0.0267,-0.032,-0.032,-0.0272,-0.0187,-0.0123,-0.0128,-0.0198,-0.0294,-0.0352,-0.0374,-0.0342,-0.0529,-0.087,-0.0993,-0.095,-0.0763,-0.0481,-0.0534,-0.1073,-0.1575,-0.1826,-0.1548,-0.1207,-0.1025,-0.1068,0.0224,-0.0048,-0.0336,-0.0502,-0.0315,-0.0112,-0.0069,0.0069,0.0395,0.0534,0.0513,0.0395,0.0379,0.0256,0.0219,-0.0016,0.0,-0.0011,-0.0043,-0.0117,-0.0203,-0.0256,-0.0262,-0.024,-0.0208,-0.0171,-0.0155,-0.0192,-0.0262,-0.0326,-0.0336,-0.0326,-0.0278,-0.0288,-0.0555,-0.0796,-0.0929,-0.0934,-0.071,-0.0443,-0.023,-0.0262,-0.087,-0.1426,-0.1837,-0.2077,-0.2242,0.0278,0.0315,-0.0021,0.0027,0.0192,0.0278,0.0235,0.0246,0.0411,-0.0235,-0.0347,-0.0246,0.0064,0.0021,0.0454,-0.0101,-0.0101,-0.0064,-0.0059,-0.0096,-0.0149,-0.0176,-0.0176,-0.0144,-0.0133,-0.0149,-0.0198,-0.0272,-0.0347,-0.039,-0.0368,-0.0326,-0.0246,-0.016,-0.0262,-0.0577,-0.0753,-0.0806,-0.0785,-0.0678,-0.0561,-0.0577,-0.0534,-0.0619,-0.0828,-0.1324,-0.1879,0.0267,0.0331,0.024,0.0475,0.0448,0.0187,-0.0219,-0.031,-0.0491,-0.0539,-0.0294,0,0.0251,0,0.0422,-0.0224,-0.0149,-0.0064,-0.0011,-0.0011,-0.0027,-0.0059,-0.0112,-0.0053,-0.0043,-0.008,-0.0176,-0.0299,-0.0422,-0.0497,-0.0491,-0.0363,-0.0187,-0.0059,-0.0037,-0.0278,-0.0619,-0.0625,-0.0534,-0.0491,-0.0625,-0.0998,-0.1089,-0.0758,-0.0384,-0.0587,-0.1062,0,0,0,0,0,0.0262,0.0064,0,0,0,0,0,0,0,0,0,0,0,0,0,0,0,0,0,0,0,-0.008,-0.0198,-0.0395,-0.0529,-0.0523,-0.0214,0.0107,0.0171,0.0112,-0.0016,-0.04,-0.0598,-0.0448,-0.0262,-0.0384,-0.071,-0.0758,-0.0587,-0.0635,-0.0993,-0.1175,0,0,0,0,0,0,0,0,0,0,0,0,0,0,0,0,0,0,0,0,0,0,0,0,0,0,0,0,0,-0.0288,0.0149,0.0395,0.0625,0.0683,0.0694,0.0518,0.0235,-0.0422,-0.0459,-0.0235,-0.0251,-0.0416,-0.0416,-0.0342,-0.0368,-0.0529,-0.0641,0,0,0,0,0,0,0,0,0,0,0,0,0,0,0,0,0,0,0,0,0,0,0,0,0,0,0,0,0,0,0,0,0,0,0,0,0.0886,0.0555,0.016,-0.0278,-0.0112,-0.0149,-0.0224,-0.0315,-0.031,-0.0262,-0.0272,0,0,0,0,0,0,0,0,0,0,0,0,0,0,0,0,0,0,0,0,0,0,0,0,0,0,0,0,0,0,0,0,0,0,0,0,0,0,0.087,-0.0021,0.0016,0.0064,-0.0037,-0.0096,-0.0101,-0.0101,-0.0166,0,0,0,0,0,0,0,0,0,0,0,0,0,0,0,0,0,0,0,0,0,0,0,0,0,0,0,0,0,0,0,0,0,0,0,0,0,0,0,0,0,0.0214,0.0091,0.008,0.0059,-0.0021,-0.0091,0,0,0,0,0,0,0,0,0,0,0,0,0,0,0,0,0,0,0,0,0,0,0,0,0,0,0,0,0,0,0,0,0,0,0,0,0,0,0,0,0,0,0,0,0,0,-0.0053,0,0,0,0,0,0,0,0,0,0,0,0,0,0,0,0,0,0,0,0,0,0,0,0,0,0,0,0,0,0,0,0,0,0,0,0,0,0,0,0,0,0,0,0,0,0,0,0,0,0,0,0,0,0,0,0,0,0,0,0,0,0,0,0,0,0,0,0,0,0,0,0,0,0,0,0,0,0,0,0,0,0,0,0,0,0,0,0,0,0,0,0,0,0,0,0,0,0,0,0,0,0,0,0,0,0,0,0,0,0,0,0,0,0,0,0,0,0,0,0,0,0,0,0,0,0,0,0,0,0,0,0,0,0,0,0,0,0,0,0,0,0,0,0,0,0,0,0,0,0,0,0,0,0,0,0,0,0,0,0,0,0,0,0,0,0,0,0,0,0,0,0,0,0,0,0,0,0,0,0,0,0,0,0,0,0,0,0,0,0,0,0,0,0,0,0,0,0,0,0,0,0,0,0,0,0,0,0,0,0,0,0,0,0,0,0,0,0,0,0,0,0,0,0,0,0,0,0,0,0,0,0,0,0,0,0,0,0,0,0,0,0,0,0,0,0,0,0,0,0,0,0,0,0,0,0,0,0,0,0,0,0,0,0,0,0,0,0,0,0,0,0,0,0,0,0,0,0,0,0,0,0,0,0,0,0,0,0,0,0,0,0,0,0,0,0,0,0,0,0,0,0,0,0,0,0,0,0,0,0,0,0,0,0,0,0,0,0,0,0,0,0,0,0,0,0,0,0,0,0,0,0,0,0,0,0,0,0,0,0,0,0,0,0,0,0,0,0,0,0,0,0,0,0,0,0,0,0,0,0,0,0,0,0,0,0,0,0,0,0,0,0,0,0,0,0,0,0,0,0,0,0,0,0,0,0,0,0,0,0,0,0,0,0,0,0,0,0,0,0,0,0,0,0,0,0,0,0,0,0,0,0,0,0,0,0,0,0,0,0,0,0,0,0,0,0,0,0,0,0,0,0,0,0,0,0,0,0,0,0,0,0,0,0,0,0,0,0,0,0,0,0,0,0,0,0,0,0,0,0,0,0,0,0,0,0,0,0,0,0,0,0,0,0,0,0,0,0,0,0,0,0,0,0,0,0,0,0,0,0,0,0,0,0,0,0,0,0,0,0,0,0,0,0,0,0,0,0,0,0,0,0,0,0,0,0,0,0,0,0,0,0,0,0,0,0,0,0,0,0,0,0,0,0,0,0,0,0,0,0,0,0,0,0,0,0,0,0,0,0,0,0,0,0,0,0,0,0,0,0,0,0,0,0,0,0,0,0,0,0,0,0,0,0,0,0,0,0,0,0,0,0,0,0,0,0,0,0,0,0,0,0,0,0,0,0,0,0,0,0,0,0,0,0,0,0,0,0,0,0,0,0,0,0,0,0,0,0,0,0,0,0,0,0,0,0,0,0,0,0,0,0,0,0,0,0,0,0,0,0,0,0,0,0,0,0,0,0,0,0,0,0,0,0,0,0,0,0,0,0,0,0,0,0,0,0,0,0,0,0,0,0,0,0,0,0,0,0,0,0,0,0,0,0,0,0,0,0,0,0,0,0,0,0,0,0,0,0,0,0,0,0,0,0,0]}]],[[{"header":{"parameterUnit":"kt","parameterCategory":2,"dx":1,"dy":1,"la1":29.764190673828125,"la2":30.86408042907715,"lo1":-88.46762084960938,"lo2":-86.9344482421875,"nx":47,"ny":34,"refTime":"2022-10-07T00:00:00:Z","depth":"15","parameterNumber":2,"parameterNumberName":"U-component_of_CURRENTS"},"data":[-0.0363,-0.0214,-0.0149,-0.0037,0.0112,0.0128,-0.0053,-0.0192,-0.0176,-0.0198,-0.016,-0.0155,-0.0448,-0.0753,-0.079,-0.0646,-0.0523,-0.0464,-0.047,-0.0454,-0.0342,-0.023,-0.0288,-0.0539,-0.0828,-0.0854,-0.0785,-0.0785,-0.0577,-0.0219,0.016,0.0459,0.0561,0.0614,0.0571,0.0518,0.071,0.1025,0.1372,0.1676,0.1863,0.1917,0.1874,0.1735,0.1548,0.1351,0.1159,-0.1009,-0.0961,-0.0844,-0.0721,-0.0555,-0.0422,-0.0411,-0.047,-0.0518,-0.0331,-0.0123,-0.0304,-0.0625,-0.0801,-0.0758,-0.0555,-0.0352,-0.0256,-0.031,-0.0475,-0.0491,-0.0336,-0.0336,-0.0619,-0.103,-0.1287,-0.1281,-0.1239,-0.1143,-0.0801,-0.0406,0.0021,0.0432,0.0678,0.0844,0.0982,0.1132,0.1308,0.1506,0.1692,0.1842,0.1922,0.1943,0.1911,0.1815,0.1709,0.1655,-0.149,-0.1602,-0.1495,-0.1265,-0.1153,-0.1095,-0.1052,-0.0988,-0.0683,-0.0267,-0.0166,-0.0432,-0.0753,-0.078,-0.0609,-0.0406,-0.0267,-0.0235,-0.0278,-0.039,-0.0464,-0.0432,-0.0416,-0.0507,-0.0763,-0.1127,-0.142,-0.1522,-0.1458,-0.1244,-0.0945,-0.0662,-0.0294,0.0315,0.0892,0.1121,0.1308,0.1612,0.1895,0.2077,0.2232,0.2344,0.2429,0.2493,0.2493,0.2461,0.2403,-0.1623,-0.1735,-0.1794,-0.1762,-0.1644,-0.1431,-0.1169,-0.0758,-0.0416,-0.0395,-0.0609,-0.0806,-0.0753,-0.0603,-0.0432,-0.0304,-0.0283,-0.0315,-0.0331,-0.0326,-0.0406,-0.0502,-0.0481,-0.0384,-0.0438,-0.0646,-0.0945,-0.1255,-0.1447,-0.149,-0.1281,-0.095,-0.071,-0.047,0.0085,0.0796,0.1367,0.1799,0.2061,0.2269,0.2515,0.2728,0.2867,0.2958,0.2979,0.292,0.2776,-0.1372,-0.1607,-0.1559,-0.1463,-0.1324,-0.1164,-0.0998,-0.0918,-0.0945,-0.0972,-0.0913,-0.0721,-0.0507,-0.0363,-0.0299,-0.0342,-0.0411,-0.0438,-0.0406,-0.0358,-0.0416,-0.0566,-0.0614,-0.0454,-0.0235,-0.0272,-0.047,-0.0651,-0.0934,-0.1255,-0.1447,-0.1345,-0.0956,-0.0566,-0.0352,-0.0037,0.055,0.1313,0.189,0.2258,0.2573,0.2766,0.2915,0.3043,0.3097,0.3054,0.2953,-0.0411,-0.0865,-0.1297,-0.1436,-0.1367,-0.126,-0.1164,-0.1068,-0.0934,-0.0742,-0.055,-0.04,-0.0342,-0.0368,-0.0443,-0.0513,-0.0534,-0.0491,-0.04,-0.0283,-0.0187,-0.0187,-0.0224,-0.0117,0.0139,0.032,0.0192,-0.0112,-0.0406,-0.0731,-0.1116,-0.141,-0.142,-0.1041,-0.0459,-0.0208,-0.0123,0.0166,0.0726,0.1548,0.2136,0.2435,0.2734,0.2958,0.3091,0.3145,0.3113,-0.0144,-0.0251,-0.0368,-0.0481,-0.0598,-0.0662,-0.0641,-0.0545,-0.0427,-0.0368,-0.0363,-0.04,-0.047,-0.0545,-0.0598,-0.0593,-0.0534,-0.0448,-0.0342,-0.0219,-0.0075,0.0069,0.0198,0.0315,0.0448,0.0566,0.0619,0.0518,0.0224,-0.0139,-0.0486,-0.086,-0.1217,-0.1297,-0.0956,-0.0406,0.0075,0.0037,0.0021,0.04,0.0865,0.1516,0.2072,0.2339,0.2584,0.2766,0.283,-0.0198,-0.023,-0.0272,-0.0347,-0.0416,-0.0448,-0.0443,-0.0411,-0.04,-0.0427,-0.0486,-0.055,-0.0603,-0.063,-0.0625,-0.0566,-0.0475,-0.0368,-0.0256,-0.0144,-0.0011,0.0139,0.0272,0.0363,0.0422,0.0459,0.0475,0.0443,0.0352,0.0214,0.0005,-0.0288,-0.0635,-0.0945,-0.0998,-0.071,-0.0224,0.0368,0.0721,0.0283,0.0139,0.0587,0.1057,0.1388,0.1687,0.1863,0.1954,-0.1041,-0.0993,-0.0828,-0.0635,-0.0529,-0.0502,-0.0518,-0.055,-0.0587,-0.0609,-0.0603,-0.0577,-0.0566,-0.0571,-0.0545,-0.0486,-0.0395,-0.0294,-0.0187,-0.008,0.0043,0.0155,0.023,0.0251,0.0246,0.024,0.0235,0.023,0.0219,0.0208,0.0198,0.0139,-0.0064,-0.0395,-0.0614,-0.0641,-0.0475,-0.0021,0.04,0.0801,0.0945,0.0416,0.0235,0.0689,0.095,0.0945,0.0961,-0.0694,-0.0715,-0.0758,-0.078,-0.0699,-0.0603,-0.0603,-0.0657,-0.0566,-0.0347,-0.0182,-0.008,-0.0187,-0.0464,-0.0539,-0.0416,-0.0304,-0.0208,-0.0112,-0.0016,0.0075,0.0133,0.0139,0.0101,0.0053,0.0027,0.0037,0.008,0.0133,0.0187,0.0198,0.0171,0.0112,-0.0037,-0.0256,-0.0358,-0.0342,-0.0299,0.0048,0.0384,0.0315,0.0192,0.047,0.047,0.0459,0.079,0.1084,0.0278,0.0128,-0.0363,-0.0849,-0.0972,-0.0934,-0.0828,-0.0513,0.0,0.04,0.0587,0.0603,0.0598,0.0416,-0.0069,-0.0347,-0.0251,-0.0144,-0.0053,0.0021,0.0064,0.0069,0.0032,-0.0021,-0.0069,-0.008,-0.0043,0.0032,0.0107,0.0171,0.0203,0.0208,0.0203,0.0139,-0.0053,-0.0214,-0.0187,-0.0149,-0.0176,-0.0107,0.0235,0.0272,-0.0278,-0.0641,-0.0299,0.0166,0.0502,0,0,-0.0699,-0.0838,-0.0619,-0.023,0.0101,0.0384,0.0577,0.0518,0.0379,0,0,0,0,0,0,0,0,0,0,0,0,0,-0.0128,-0.0133,-0.0107,-0.0048,0.0027,0.0107,0.0182,0.0224,0.0235,0.0208,0.008,-0.0133,-0.0166,-0.0096,-0.0192,-0.032,-0.0283,-0.0053,0.0304,0.0283,-0.0208,-0.0673,-0.0635,0,0,0,0,0,0,0.0352,0.0283,0,0,0,0,0,0,0,0,0,0,0,0,0,0,0,0,0,0,-0.0182,-0.0176,-0.0149,-0.008,0.0027,0.0117,0.0117,0.0069,-0.0005,-0.0166,-0.0315,-0.0256,-0.0171,-0.0208,-0.0256,-0.0288,-0.0299,-0.0272,-0.0117,-0.0011,-0.0064,0,0,0,0,0,0,0,0,0,0,0,0,0,0,0,0,0,0,0,0,0,0,0,0,0,0,0,0,-0.032,-0.0342,-0.0182,0.0021,0.008,-0.008,-0.0278,-0.039,-0.0523,-0.0561,-0.0432,-0.0459,-0.0561,-0.0571,-0.0646,-0.0908,-0.118,-0.1303,-0.1377,0,0,0,0,0,0,0,0,0,0,0,0,0,0,0,0,0,0,0,0,0,0,0,0,0,0,0,0,0,0,0,0,0,0,0,-0.0037,-0.0315,-0.0614,-0.0689,-0.0609,-0.0587,-0.0737,-0.094,-0.0998,-0.0934,-0.094,-0.1137,0,0,0,0,0,0,0,0,0,0,0,0,0,0,0,0,0,0,0,0,0,0,0,0,0,0,0,0,0,0,0,0,0,0,0,0,0,0,0.0171,-0.0166,-0.0267,-0.0379,-0.0513,-0.0614,-0.0699,-0.0796,-0.087,0,0,0,0,0,0,0,0,0,0,0,0,0,0,0,0,0,0,0,0,0,0,0,0,0,0,0,0,0,0,0,0,0,0,0,0,0,0,0,0,0,0.0096,0.0043,-0.0117,-0.0262,-0.0342,-0.0368,0,0,0,0,0,0,0,0,0,0,0,0,0,0,0,0,0,0,0,0,0,0,0,0,0,0,0,0,0,0,0,0,0,0,0,0,0,0,0,0,0,0,-0.016,-0.0144,-0.0117,-0.0112,-0.0144,0,0,0,0,0,0,0,0,0,0,0,0,0,0,0,0,0,0,0,0,0,0,0,0,0,0,0,0,0,0,0,0,0,0,0,0,0,0,0,0,0,0,0,0,0,0,-0.0021,0,0,0,0,0,0,0,0,0,0,0,0,0,0,0,0,0,0,0,0,0,0,0,0,0,0,0,0,0,0,0,0,0,0,0,0,0,0,0,0,0,0,0,0,0,0,0,0,0,0,0,0,0,0,0,0,0,0,0,0,0,0,0,0,0,0,0,0,0,0,0,0,0,0,0,0,0,0,0,0,0,0,0,0,0,0,0,0,0,0,0,0,0,0,0,0,0,0,0,0,0,0,0,0,0,0,0,0,0,0,0,0,0,0,0,0,0,0,0,0,0,0,0,0,0,0,0,0,0,0,0,0,0,0,0,0,0,0,0,0,0,0,0,0,0,0,0,0,0,0,0,0,0,0,0,0,0,0,0,0,0,0,0,0,0,0,0,0,0,0,0,0,0,0,0,0,0,0,0,0,0,0,0,0,0,0,0,0,0,0,0,0,0,0,0,0,0,0,0,0,0,0,0,0,0,0,0,0,0,0,0,0,0,0,0,0,0,0,0,0,0,0,0,0,0,0,0,0,0,0,0,0,0,0,0,0,0,0,0,0,0,0,0,0,0,0,0,0,0,0,0,0,0,0,0,0,0,0,0,0,0,0,0,0,0,0,0,0,0,0,0,0,0,0,0,0,0,0,0,0,0,0,0,0,0,0,0,0,0,0,0,0,0,0,0,0,0,0,0,0,0,0,0,0,0,0,0,0,0,0,0,0,0,0,0,0,0,0,0,0,0,0,0,0,0,0,0,0,0,0,0,0,0,0,0,0,0,0,0,0,0,0,0,0,0,0,0,0,0,0,0,0,0,0,0,0,0,0,0,0,0,0,0,0,0,0,0,0,0,0,0,0,0,0,0,0,0,0,0,0,0,0,0,0,0,0,0,0,0,0,0,0,0,0,0,0,0,0,0,0,0,0,0,0,0,0,0,0,0,0,0,0,0,0,0,0,0,0,0,0,0,0,0,0,0,0,0,0,0,0,0,0,0,0,0,0,0,0,0,0,0,0,0,0,0,0,0,0,0,0,0,0,0,0,0,0,0,0,0,0,0,0,0,0,0,0,0,0,0,0,0,0,0,0,0,0,0,0,0,0,0,0,0,0,0,0,0,0,0,0,0,0,0,0,0,0,0,0,0,0,0,0,0,0,0,0,0,0,0,0,0,0,0,0,0,0,0,0,0,0,0,0,0,0,0,0,0,0,0,0,0,0,0,0,0,0,0,0,0,0,0,0,0,0,0,0,0,0,0,0,0,0,0,0,0,0,0,0,0,0,0,0,0,0,0,0,0,0,0,0,0,0,0,0,0,0,0,0,0,0,0,0,0,0,0,0,0,0,0,0,0,0,0,0,0,0,0,0,0,0,0,0,0,0,0,0,0,0,0,0,0,0,0,0,0,0,0,0,0,0,0,0,0,0,0,0,0,0,0,0,0,0,0,0,0,0,0,0,0,0,0,0,0,0,0,0,0,0,0,0,0,0,0,0,0,0,0,0,0,0,0,0,0,0,0,0,0,0,0,0,0,0,0,0,0,0,0,0,0,0,0,0,0,0,0,0,0,0,0,0,0,0,0,0,0,0,0,0,0,0,0,0,0,0,0]}],[{"header":{"parameterUnit":"kt","parameterCategory":2,"dx":1,"dy":1,"la1":29.764190673828125,"la2":30.86408042907715,"lo1":-88.46762084960938,"lo2":-86.9344482421875,"nx":47,"ny":34,"refTime":"2022-10-07T00:00:00:Z","depth":"15","parameterNumber":3,"parameterNumberName":"V-component_of_CURRENTS"},"data":[-0.2232,-0.1287,-0.0342,0.0021,0.0406,0.0651,0.0742,0.0796,0.094,0.0918,0.0523,-0.0027,0.0016,0.0304,0.0288,0.0304,0.0198,0.0144,0.0176,0.0208,-0.0091,-0.0368,-0.0208,0.0064,-0.0128,-0.0924,-0.1644,-0.173,-0.1426,-0.1207,-0.1431,-0.1815,-0.2024,-0.197,-0.1623,-0.1078,-0.0529,-0.0123,0.0139,0.0149,-0.0059,-0.0432,-0.0849,-0.1255,-0.173,-0.2344,-0.3038,-0.2226,-0.1436,-0.0507,-0.016,0.0235,0.0577,0.0753,0.0817,0.0886,0.0715,0.0187,0.0021,0.0256,0.0315,0.0198,0.0128,0.0069,0.0096,0.0176,0.0219,-0.0091,-0.04,-0.0139,0.032,0.0101,-0.0737,-0.1495,-0.1799,-0.1596,-0.1185,-0.0966,-0.1137,-0.1436,-0.1591,-0.1511,-0.1377,-0.1276,-0.1111,-0.0956,-0.0902,-0.0988,-0.1244,-0.1596,-0.2007,-0.2456,-0.2947,-0.3364,-0.1906,-0.15,-0.0689,-0.0219,0.0144,0.0432,0.0571,0.0641,0.0587,0.024,0.0037,0.0267,0.0384,0.0182,0.0048,-0.0053,0.0016,0.0117,0.024,0.0251,-0.0064,-0.0315,0.0021,0.0566,0.0427,-0.0529,-0.1196,-0.1655,-0.1746,-0.1522,-0.1196,-0.0934,-0.0929,-0.1057,-0.1121,-0.1137,-0.1207,-0.1217,-0.1265,-0.1335,-0.1393,-0.1468,-0.1655,-0.1949,-0.2274,-0.2563,-0.2776,-0.142,-0.1297,-0.0806,-0.0304,0.0011,0.0203,0.0299,0.0272,0.0171,0.0059,0.0208,0.039,0.024,0.0,-0.0128,-0.0101,0.0043,0.0187,0.032,0.0294,0.0021,-0.0198,0.0048,0.0539,0.0598,-0.0171,-0.0924,-0.1377,-0.1575,-0.158,-0.141,-0.1207,-0.0977,-0.0763,-0.0614,-0.0646,-0.078,-0.0876,-0.0934,-0.0956,-0.0924,-0.0924,-0.0982,-0.1121,-0.1319,-0.1506,-0.1655,-0.095,-0.0972,-0.0683,-0.0331,-0.0128,0.0005,0.0085,0.0064,0.0011,0.008,0.0203,0.016,-0.0043,-0.0139,-0.0149,-0.0011,0.0139,0.0262,0.0336,0.0326,0.0176,-0.0064,-0.0027,0.0262,0.0395,0.0021,-0.0603,-0.1073,-0.1292,-0.1399,-0.142,-0.1351,-0.1271,-0.1153,-0.0753,-0.0299,-0.0203,-0.0192,-0.0416,-0.0481,-0.0432,-0.047,-0.0454,-0.0438,-0.0481,-0.0555,-0.0587,-0.0539,-0.0582,-0.0416,-0.0299,-0.0214,-0.0144,-0.0091,-0.0085,-0.0101,-0.0107,-0.0075,-0.0075,-0.0128,-0.0117,-0.0011,0.0123,0.0219,0.0283,0.0299,0.0299,0.0256,0.0075,-0.0059,-0.0021,0.0043,-0.0043,-0.031,-0.0694,-0.0977,-0.1132,-0.1265,-0.1308,-0.134,-0.1329,-0.1233,-0.0929,-0.0454,0.0059,0.0203,0.0267,0.0149,0.0011,0.0037,0.0059,0.0112,0.0198,0.031,-0.0283,-0.0256,-0.0208,-0.0246,-0.0267,-0.0278,-0.0294,-0.031,-0.0294,-0.0235,-0.0149,-0.0069,0.0,0.0043,0.0123,0.0198,0.024,0.0251,0.024,0.0219,0.0187,0.0069,-0.0101,-0.0182,-0.0176,-0.0133,-0.016,-0.0347,-0.0582,-0.0731,-0.0918,-0.1084,-0.1233,-0.1287,-0.1196,-0.1116,-0.1004,-0.087,-0.0315,0.0208,0.039,0.0593,0.0582,0.0507,0.0577,0.0753,0.0924,-0.0198,-0.0139,-0.0112,-0.0155,-0.0203,-0.0283,-0.0358,-0.0384,-0.032,-0.0187,-0.0037,0.0069,0.0128,0.0166,0.0203,0.0214,0.0214,0.0203,0.0182,0.0139,0.0069,-0.0053,-0.0208,-0.0288,-0.0251,-0.0176,-0.0117,-0.016,-0.0272,-0.0406,-0.0555,-0.0715,-0.0934,-0.1196,-0.118,-0.0812,-0.0683,-0.087,-0.1148,-0.1052,-0.0416,0.0198,0.0315,0.0513,0.063,0.0763,0.0881,-0.0037,-0.0091,-0.0123,-0.0149,-0.0166,-0.023,-0.0326,-0.0358,-0.0262,-0.0091,0.0069,0.0182,0.023,0.0246,0.0235,0.0203,0.0187,0.016,0.0128,0.0069,-0.0037,-0.0171,-0.0288,-0.0326,-0.0278,-0.0182,-0.0107,-0.0101,-0.0166,-0.0283,-0.0374,-0.0464,-0.0555,-0.0849,-0.1078,-0.1009,-0.0662,-0.0331,-0.0486,-0.0881,-0.118,-0.1111,-0.0571,-0.0069,0.0005,0.0021,0.0027,0.0347,0.0214,0.0048,-0.0214,-0.0235,-0.0203,-0.0224,-0.0171,0.0053,0.0246,0.0379,0.0384,0.0363,0.0347,0.0208,0.0171,0.0144,0.0117,0.0075,-0.0005,-0.0128,-0.023,-0.0283,-0.0283,-0.024,-0.016,-0.0101,-0.0107,-0.0176,-0.0272,-0.0326,-0.0347,-0.0315,-0.0486,-0.0822,-0.0934,-0.0892,-0.0683,-0.0166,0.0053,-0.0144,-0.0523,-0.0812,-0.1014,-0.0892,-0.0822,-0.0924,0.0278,0.0368,0.0192,-0.0117,-0.0203,0.0043,0.0096,0.0198,0.0331,0.0176,0.0064,0.0059,0.0219,0.0246,0.0368,0.0096,0.0059,0.0043,0.0005,-0.0064,-0.0155,-0.0208,-0.0208,-0.0187,-0.016,-0.0133,-0.0128,-0.0166,-0.024,-0.0299,-0.031,-0.0299,-0.0251,-0.0251,-0.0513,-0.0737,-0.0854,-0.0886,-0.0662,-0.0326,0.0091,0.0144,0.0,-0.0699,-0.0988,-0.126,-0.1479,0,0,0.0219,0.0262,0.0251,0.0352,0.0214,0.0,-0.0182,-0.0411,-0.0347,0,0,0,0,0,0,0,0,0,0,0,0,0,-0.0101,-0.0101,-0.0149,-0.0235,-0.0315,-0.0358,-0.0342,-0.0294,-0.0219,-0.0128,-0.0224,-0.0513,-0.0635,-0.0747,-0.0737,-0.0625,-0.0518,-0.0464,-0.0438,-0.0577,-0.0219,-0.0507,-0.1132,0,0,0,0,0,0,0.008,-0.0021,0,0,0,0,0,0,0,0,0,0,0,0,0,0,0,0,0,0,-0.0139,-0.0235,-0.0374,-0.0448,-0.0438,-0.0315,-0.0144,-0.0016,0.0011,-0.0219,-0.0529,-0.055,-0.0481,-0.0427,-0.0571,-0.0934,-0.1025,-0.0609,-0.0256,-0.0737,-0.1084,0,0,0,0,0,0,0,0,0,0,0,0,0,0,0,0,0,0,0,0,0,0,0,0,0,0,0,0,-0.0336,-0.0422,-0.0288,0.0,0.0283,0.0363,0.023,0.0032,-0.0251,-0.0464,-0.0395,-0.0203,-0.032,-0.0641,-0.0673,-0.0497,-0.0566,-0.0785,-0.0646,0,0,0,0,0,0,0,0,0,0,0,0,0,0,0,0,0,0,0,0,0,0,0,0,0,0,0,0,0,0,0,0,0,0,0,0.0529,0.0555,-0.0048,-0.032,-0.0149,-0.0187,-0.0342,-0.0342,-0.0283,-0.0304,-0.0342,-0.0251,0,0,0,0,0,0,0,0,0,0,0,0,0,0,0,0,0,0,0,0,0,0,0,0,0,0,0,0,0,0,0,0,0,0,0,0,0,0,0.0577,-0.0091,0.0005,-0.0032,-0.0133,-0.0246,-0.0251,-0.0208,-0.0235,0,0,0,0,0,0,0,0,0,0,0,0,0,0,0,0,0,0,0,0,0,0,0,0,0,0,0,0,0,0,0,0,0,0,0,0,0,0,0,0,0,0.0422,0.0278,0.0107,-0.0032,-0.0053,-0.0123,0,0,0,0,0,0,0,0,0,0,0,0,0,0,0,0,0,0,0,0,0,0,0,0,0,0,0,0,0,0,0,0,0,0,0,0,0,0,0,0,0,0,0.0171,0.0256,0.0133,0.0027,-0.0053,0,0,0,0,0,0,0,0,0,0,0,0,0,0,0,0,0,0,0,0,0,0,0,0,0,0,0,0,0,0,0,0,0,0,0,0,0,0,0,0,0,0,0,0,0,0,-0.0021,0,0,0,0,0,0,0,0,0,0,0,0,0,0,0,0,0,0,0,0,0,0,0,0,0,0,0,0,0,0,0,0,0,0,0,0,0,0,0,0,0,0,0,0,0,0,0,0,0,0,0,0,0,0,0,0,0,0,0,0,0,0,0,0,0,0,0,0,0,0,0,0,0,0,0,0,0,0,0,0,0,0,0,0,0,0,0,0,0,0,0,0,0,0,0,0,0,0,0,0,0,0,0,0,0,0,0,0,0,0,0,0,0,0,0,0,0,0,0,0,0,0,0,0,0,0,0,0,0,0,0,0,0,0,0,0,0,0,0,0,0,0,0,0,0,0,0,0,0,0,0,0,0,0,0,0,0,0,0,0,0,0,0,0,0,0,0,0,0,0,0,0,0,0,0,0,0,0,0,0,0,0,0,0,0,0,0,0,0,0,0,0,0,0,0,0,0,0,0,0,0,0,0,0,0,0,0,0,0,0,0,0,0,0,0,0,0,0,0,0,0,0,0,0,0,0,0,0,0,0,0,0,0,0,0,0,0,0,0,0,0,0,0,0,0,0,0,0,0,0,0,0,0,0,0,0,0,0,0,0,0,0,0,0,0,0,0,0,0,0,0,0,0,0,0,0,0,0,0,0,0,0,0,0,0,0,0,0,0,0,0,0,0,0,0,0,0,0,0,0,0,0,0,0,0,0,0,0,0,0,0,0,0,0,0,0,0,0,0,0,0,0,0,0,0,0,0,0,0,0,0,0,0,0,0,0,0,0,0,0,0,0,0,0,0,0,0,0,0,0,0,0,0,0,0,0,0,0,0,0,0,0,0,0,0,0,0,0,0,0,0,0,0,0,0,0,0,0,0,0,0,0,0,0,0,0,0,0,0,0,0,0,0,0,0,0,0,0,0,0,0,0,0,0,0,0,0,0,0,0,0,0,0,0,0,0,0,0,0,0,0,0,0,0,0,0,0,0,0,0,0,0,0,0,0,0,0,0,0,0,0,0,0,0,0,0,0,0,0,0,0,0,0,0,0,0,0,0,0,0,0,0,0,0,0,0,0,0,0,0,0,0,0,0,0,0,0,0,0,0,0,0,0,0,0,0,0,0,0,0,0,0,0,0,0,0,0,0,0,0,0,0,0,0,0,0,0,0,0,0,0,0,0,0,0,0,0,0,0,0,0,0,0,0,0,0,0,0,0,0,0,0,0,0,0,0,0,0,0,0,0,0,0,0,0,0,0,0,0,0,0,0,0,0,0,0,0,0,0,0,0,0,0,0,0,0,0,0,0,0,0,0,0,0,0,0,0,0,0,0,0,0,0,0,0,0,0,0,0,0,0,0,0,0,0,0,0,0,0,0,0,0,0,0,0,0,0,0,0,0,0,0,0,0,0,0,0,0,0,0,0,0,0,0,0,0,0,0,0,0,0,0,0,0,0,0,0,0,0,0,0,0,0,0,0,0,0,0,0,0,0,0,0,0,0,0,0,0,0,0,0,0,0,0,0,0,0,0,0,0,0,0,0,0,0,0,0,0,0,0,0,0,0,0,0,0,0,0,0,0,0,0,0,0,0,0,0,0,0,0,0,0,0,0,0]}]],[[{"header":{"parameterUnit":"kt","parameterCategory":2,"dx":1,"dy":1,"la1":29.764190673828125,"la2":30.86408042907715,"lo1":-88.46762084960938,"lo2":-86.9344482421875,"nx":47,"ny":34,"refTime":"2022-10-07T00:00:00:Z","depth":"20","parameterNumber":2,"parameterNumberName":"U-component_of_CURRENTS"},"data":[-0.0721,-0.0838,-0.0945,-0.0817,-0.071,-0.0481,-0.0182,0.0096,0.032,0.0475,0.0726,0.0384,-0.0283,-0.0657,-0.0715,-0.0593,-0.0486,-0.0422,-0.0422,-0.0411,-0.0304,-0.0208,-0.0272,-0.0518,-0.0774,-0.0731,-0.0742,-0.0726,-0.0422,-0.023,-0.0192,-0.0096,-0.0144,-0.0027,0.0128,0.039,0.0737,0.1121,0.1393,0.1714,0.1885,0.1943,0.1895,0.1751,0.157,0.1377,0.118,-0.1196,-0.126,-0.1682,-0.1751,-0.1169,-0.063,-0.0272,0.0096,0.0331,0.0614,0.0694,0.008,-0.0561,-0.0731,-0.0705,-0.0513,-0.031,-0.0219,-0.0267,-0.0427,-0.0454,-0.032,-0.032,-0.0598,-0.0988,-0.1228,-0.1217,-0.1175,-0.1062,-0.079,-0.04,-0.0246,-0.0096,-0.0037,0.0128,0.0502,0.0929,0.1271,0.15,0.1698,0.1901,0.1943,0.197,0.1938,0.1842,0.1714,0.1628,-0.1303,-0.1436,-0.1297,-0.1201,-0.0956,-0.0641,-0.0438,-0.0027,0.0427,0.0523,0.0149,-0.0363,-0.0657,-0.0715,-0.055,-0.0363,-0.0235,-0.0208,-0.0235,-0.0331,-0.0422,-0.0416,-0.04,-0.047,-0.0657,-0.1014,-0.1383,-0.1506,-0.1436,-0.1201,-0.0849,-0.0593,-0.0422,-0.0123,0.032,0.0657,0.0924,0.1217,0.1495,0.1692,0.2002,0.2317,0.2397,0.2472,0.2477,0.244,0.2381,-0.1447,-0.1431,-0.1516,-0.1596,-0.1522,-0.1095,-0.0326,0.0112,0.0112,-0.0208,-0.0571,-0.0705,-0.0694,-0.0545,-0.039,-0.0267,-0.0251,-0.0278,-0.0288,-0.0283,-0.0379,-0.0491,-0.047,-0.0358,-0.0374,-0.0561,-0.0881,-0.1212,-0.1415,-0.1468,-0.1255,-0.0886,-0.0561,-0.0443,-0.0096,0.0432,0.0945,0.1297,0.1468,0.1751,0.2178,0.2654,0.2856,0.299,0.3006,0.2947,0.2792,-0.1308,-0.1506,-0.141,-0.1303,-0.1078,-0.0742,-0.0534,-0.0571,-0.0678,-0.0828,-0.0865,-0.0678,-0.0464,-0.031,-0.0246,-0.0294,-0.0368,-0.0395,-0.0358,-0.031,-0.0379,-0.0545,-0.0598,-0.0432,-0.0198,-0.0219,-0.0422,-0.0625,-0.0913,-0.1239,-0.1404,-0.1281,-0.0929,-0.0395,-0.0304,0.0005,0.0571,0.1185,0.1639,0.1911,0.221,0.2584,0.2883,0.307,0.3113,0.307,0.2969,-0.0374,-0.0817,-0.1249,-0.1388,-0.1324,-0.1217,-0.1127,-0.1036,-0.0902,-0.0705,-0.0518,-0.0352,-0.0283,-0.031,-0.0384,-0.0459,-0.0481,-0.0443,-0.0352,-0.0246,-0.0149,-0.0155,-0.0198,-0.0091,0.0166,0.0352,0.023,-0.008,-0.0384,-0.0715,-0.11,-0.1372,-0.134,-0.1319,-0.0881,-0.0256,-0.0011,0.0342,0.0796,0.149,0.2007,0.2274,0.2648,0.2963,0.3107,0.3171,0.3134,-0.0112,-0.0219,-0.0342,-0.0454,-0.0566,-0.063,-0.0603,-0.0497,-0.0379,-0.0315,-0.0304,-0.0342,-0.0411,-0.0486,-0.0529,-0.0523,-0.0475,-0.0395,-0.0294,-0.0182,-0.0048,0.0096,0.0224,0.0342,0.0481,0.0603,0.0651,0.0539,0.0246,-0.0107,-0.0454,-0.0828,-0.1137,-0.1169,-0.1404,-0.1351,-0.0625,0.0336,0.0187,0.0534,0.0972,0.1559,0.2061,0.2344,0.2627,0.2798,0.2856,-0.016,-0.0198,-0.024,-0.0304,-0.0358,-0.039,-0.0395,-0.0374,-0.0358,-0.0379,-0.0422,-0.047,-0.0513,-0.0545,-0.0539,-0.0486,-0.04,-0.031,-0.0208,-0.0101,0.0021,0.016,0.0283,0.0379,0.0443,0.0486,0.0502,0.0475,0.0379,0.0235,0.0027,-0.0272,-0.0614,-0.0854,-0.0934,-0.0993,-0.1111,-0.1164,-0.0358,0.0368,0.0475,0.0796,0.1207,0.1463,0.1751,0.189,0.1981,-0.0331,-0.0272,-0.0427,-0.0518,-0.0475,-0.0448,-0.0459,-0.0486,-0.0507,-0.0507,-0.0475,-0.0459,0,0,0,0,0,-0.0251,-0.0149,-0.0048,0.0059,0.0171,0.024,0.0267,0.0272,0.0272,0.0267,0.0262,0.0251,0.0235,0.023,0.0171,-0.0037,-0.0368,-0.0662,-0.079,-0.0913,-0.1052,-0.1372,-0.1543,-0.0961,0.0075,0.0683,0.0945,0.1153,0.1137,0.11,0,0,0,0,-0.0625,-0.055,-0.0539,0,0,0,0,0,0,0,0,0,0,0,0,0,0,0,0,0,0.0075,0.0069,0.008,0.0112,0.016,0.0208,0.0219,0.0192,0.0133,-0.0011,-0.0224,-0.0481,-0.0683,-0.086,-0.0945,-0.1442,-0.2082,-0.2248,-0.1468,-0.0593,-0.0011,0.0523,0.0881,0,0,0,0,0,0,0,0,0,0,0,0,0,0,0,0,0,0,0,0,0,0,0,0,0,0,-0.0011,0.0064,0.0139,0.0198,0.023,0.0235,0.023,0.0171,-0.0011,-0.0187,-0.055,-0.0918,-0.1041,-0.0796,-0.087,-0.1575,-0.2194,-0.2178,-0.1746,-0.1474,-0.1297,0,0,0,0,0,0,0,0,0,0,0,0,0,0,0,0,0,0,0,0,0,0,0,0,0,0,0,0,0.0053,0.0139,0.0214,0.0256,0.0262,0.0251,0.0198,0.0112,-0.032,-0.0833,-0.0849,-0.0918,-0.103,-0.0812,-0.0475,-0.0721,-0.1383,-0.166,-0.1634,0,0,0,0,0,0,0,0,0,0,0,0,0,0,0,0,0,0,0,0,0,0,0,0,0,0,0,0,0,-0.0053,0.0059,0.0144,0.0149,0.0101,0.0037,0.0037,-0.0069,-0.055,-0.095,-0.0721,-0.0705,-0.0913,-0.1046,-0.1212,-0.1105,-0.0683,-0.0614,0,0,0,0,0,0,0,0,0,0,0,0,0,0,0,0,0,0,0,0,0,0,0,0,0,0,0,0,0,0,0,0,0,0,0,0,0,-0.0224,-0.0411,-0.0304,-0.023,-0.0667,-0.1164,-0.1062,-0.0908,-0.1052,-0.142,0,0,0,0,0,0,0,0,0,0,0,0,0,0,0,0,0,0,0,0,0,0,0,0,0,0,0,0,0,0,0,0,0,0,0,0,0,0,0.0144,0.0267,0.0053,-0.0278,-0.0657,-0.087,-0.0796,-0.1212,-0.1735,0,0,0,0,0,0,0,0,0,0,0,0,0,0,0,0,0,0,0,0,0,0,0,0,0,0,0,0,0,0,0,0,0,0,0,0,0,0,0,0,0,0.0326,0.0427,0.0278,-0.0251,-0.0587,-0.0715,0,0,0,0,0,0,0,0,0,0,0,0,0,0,0,0,0,0,0,0,0,0,0,0,0,0,0,0,0,0,0,0,0,0,0,0,0,0,0,0,0,0,0,0,-0.0064,-0.0214,-0.0326,0,0,0,0,0,0,0,0,0,0,0,0,0,0,0,0,0,0,0,0,0,0,0,0,0,0,0,0,0,0,0,0,0,0,0,0,0,0,0,0,0,0,0,0,0,-0.0096,-0.0133,0,0,0,0,0,0,0,0,0,0,0,0,0,0,0,0,0,0,0,0,0,0,0,0,0,0,0,0,0,0,0,0,0,0,0,0,0,0,0,0,0,0,0,0,0,0,0,0,0,0,0,0,0,0,0,0,0,0,0,0,0,0,0,0,0,0,0,0,0,0,0,0,0,0,0,0,0,0,0,0,0,0,0,0,0,0,0,0,0,0,0,0,0,0,0,0,0,0,0,0,0,0,0,0,0,0,0,0,0,0,0,0,0,0,0,0,0,0,0,0,0,0,0,0,0,0,0,0,0,0,0,0,0,0,0,0,0,0,0,0,0,0,0,0,0,0,0,0,0,0,0,0,0,0,0,0,0,0,0,0,0,0,0,0,0,0,0,0,0,0,0,0,0,0,0,0,0,0,0,0,0,0,0,0,0,0,0,0,0,0,0,0,0,0,0,0,0,0,0,0,0,0,0,0,0,0,0,0,0,0,0,0,0,0,0,0,0,0,0,0,0,0,0,0,0,0,0,0,0,0,0,0,0,0,0,0,0,0,0,0,0,0,0,0,0,0,0,0,0,0,0,0,0,0,0,0,0,0,0,0,0,0,0,0,0,0,0,0,0,0,0,0,0,0,0,0,0,0,0,0,0,0,0,0,0,0,0,0,0,0,0,0,0,0,0,0,0,0,0,0,0,0,0,0,0,0,0,0,0,0,0,0,0,0,0,0,0,0,0,0,0,0,0,0,0,0,0,0,0,0,0,0,0,0,0,0,0,0,0,0,0,0,0,0,0,0,0,0,0,0,0,0,0,0,0,0,0,0,0,0,0,0,0,0,0,0,0,0,0,0,0,0,0,0,0,0,0,0,0,0,0,0,0,0,0,0,0,0,0,0,0,0,0,0,0,0,0,0,0,0,0,0,0,0,0,0,0,0,0,0,0,0,0,0,0,0,0,0,0,0,0,0,0,0,0,0,0,0,0,0,0,0,0,0,0,0,0,0,0,0,0,0,0,0,0,0,0,0,0,0,0,0,0,0,0,0,0,0,0,0,0,0,0,0,0,0,0,0,0,0,0,0,0,0,0,0,0,0,0,0,0,0,0,0,0,0,0,0,0,0,0,0,0,0,0,0,0,0,0,0,0,0,0,0,0,0,0,0,0,0,0,0,0,0,0,0,0,0,0,0,0,0,0,0,0,0,0,0,0,0,0,0,0,0,0,0,0,0,0,0,0,0,0,0,0,0,0,0,0,0,0,0,0,0,0,0,0,0,0,0,0,0,0,0,0,0,0,0,0,0,0,0,0,0,0,0,0,0,0,0,0,0,0,0,0,0,0,0,0,0,0,0,0,0,0,0,0,0,0,0,0,0,0,0,0,0,0,0,0,0,0,0,0,0,0,0,0,0,0,0,0,0,0,0,0,0,0,0,0,0,0,0,0,0,0,0,0,0,0,0,0,0,0,0,0,0,0,0,0,0,0,0,0,0,0,0,0,0,0,0,0,0,0,0,0,0,0,0,0,0,0,0,0,0,0,0,0,0,0,0,0,0,0,0,0,0,0,0,0,0,0,0,0,0,0,0,0,0,0,0,0,0,0,0,0,0,0,0,0,0,0,0,0,0,0,0,0,0,0,0,0,0,0,0,0,0,0,0,0,0,0,0,0,0,0,0,0,0,0,0,0,0,0,0,0,0,0,0,0,0,0,0]}],[{"header":{"parameterUnit":"kt","parameterCategory":2,"dx":1,"dy":1,"la1":29.764190673828125,"la2":30.86408042907715,"lo1":-88.46762084960938,"lo2":-86.9344482421875,"nx":47,"ny":34,"refTime":"2022-10-07T00:00:00:Z","depth":"20","parameterNumber":3,"parameterNumberName":"V-component_of_CURRENTS"},"data":[-0.1975,-0.142,-0.0432,0.0678,0.0924,0.0844,0.086,0.0993,0.0977,0.0614,-0.0107,-0.0411,0.0208,0.0395,0.0347,0.0358,0.024,0.0192,0.0224,0.0256,-0.0043,-0.0315,-0.0171,0.0107,-0.0059,-0.0657,-0.1447,-0.1559,-0.1292,-0.0977,-0.0817,-0.1078,-0.1111,-0.0956,-0.0796,-0.0523,-0.0326,-0.0011,0.0214,0.0214,-0.0005,-0.0384,-0.0806,-0.1212,-0.1687,-0.2285,-0.2963,-0.1853,-0.1372,-0.0769,0.0155,0.0523,0.0619,0.079,0.0924,0.0796,0.0219,-0.0166,0.0112,0.0427,0.0384,0.0251,0.0182,0.0112,0.0133,0.0219,0.0267,-0.0043,-0.0352,-0.0096,0.0363,0.0155,-0.0529,-0.1324,-0.1644,-0.1516,-0.1143,-0.0678,-0.0635,-0.0812,-0.0897,-0.0838,-0.0694,-0.0635,-0.0593,-0.0593,-0.0646,-0.0881,-0.1121,-0.1532,-0.1943,-0.2387,-0.283,-0.3177,-0.15,-0.118,-0.0822,-0.0246,0.0246,0.0609,0.0913,0.0828,0.0352,-0.0294,0.0053,0.0448,0.0502,0.0235,0.0101,-0.0005,0.0059,0.0155,0.0283,0.0299,-0.0005,-0.0262,0.0075,0.0609,0.0475,-0.0352,-0.1095,-0.1554,-0.1634,-0.141,-0.1068,-0.0667,-0.0497,-0.0534,-0.0673,-0.0662,-0.0678,-0.0635,-0.0497,-0.0534,-0.0774,-0.1137,-0.1431,-0.181,-0.2146,-0.2392,-0.2616,-0.1089,-0.0966,-0.0587,-0.0208,0.0107,0.0481,0.0555,0.0294,0.0043,-0.0032,0.0352,0.0486,0.032,0.0048,-0.0075,-0.0059,0.0085,0.0235,0.0368,0.0342,0.0085,-0.0139,0.0107,0.0587,0.0646,-0.008,-0.0844,-0.1271,-0.1463,-0.1458,-0.1308,-0.0998,-0.0651,-0.0315,-0.0224,-0.0384,-0.0491,-0.0427,-0.0374,-0.0326,-0.0326,-0.0497,-0.0774,-0.1025,-0.1244,-0.1442,-0.1591,-0.0844,-0.0806,-0.039,-0.0155,0.0037,0.0133,0.0117,0.0043,0.0128,0.0278,0.0294,0.0224,0.0005,-0.0085,-0.0091,0.0037,0.0192,0.0315,0.0395,0.0379,0.0235,0.0,0.0043,0.0326,0.0448,0.0075,-0.0539,-0.0982,-0.1201,-0.1276,-0.1281,-0.1057,-0.0774,-0.0368,-0.024,0.0032,0.0032,0.0005,-0.0155,-0.0059,0.0048,-0.0091,-0.0208,-0.0347,-0.0427,-0.0513,-0.0539,-0.0475,-0.0502,-0.0326,-0.0208,-0.0123,-0.0048,-0.0005,-0.0016,-0.0032,-0.0053,-0.0011,-0.0011,-0.0059,-0.0043,0.0059,0.0182,0.0283,0.0342,0.0363,0.0358,0.0315,0.0139,0.0011,0.0048,0.0107,0.0016,-0.0246,-0.063,-0.0913,-0.1046,-0.1175,-0.118,-0.0913,-0.0422,-0.0027,-0.0085,0.0117,0.0502,0.0491,0.0481,0.0384,0.0294,0.0294,0.0176,0.0208,0.024,0.0347,-0.0246,-0.0198,-0.0155,-0.0192,-0.0198,-0.0203,-0.0224,-0.0246,-0.023,-0.0171,-0.0075,0.0,0.0085,0.0139,0.0208,0.0272,0.031,0.0315,0.0299,0.0278,0.0235,0.0123,-0.0048,-0.0128,-0.0128,-0.0085,-0.0107,-0.0294,-0.0529,-0.0657,-0.0833,-0.102,-0.1062,-0.0769,-0.0315,0.0395,0.0577,0.0021,0.0182,0.0635,0.0689,0.0865,0.0881,0.079,0.0763,0.0822,0.0977,-0.0133,-0.0069,-0.0048,-0.0096,-0.0133,-0.0214,-0.0304,-0.032,-0.0251,-0.0107,0.0069,0.0187,0.023,0.0256,0.0299,0.031,0.0304,0.0288,0.0256,0.0208,0.0133,0.0,-0.016,-0.0251,-0.0219,-0.0144,-0.0085,-0.0117,-0.023,-0.0347,-0.0486,-0.0651,-0.0849,-0.0934,-0.0796,-0.0155,0.0374,0.0555,0.0262,0.0043,0.032,0.0651,0.0838,0.0822,0.0865,0.0881,0.095,0.0278,0.0283,0.0251,0.0048,-0.0064,-0.0139,-0.0224,-0.0246,-0.0149,0.0027,0.0192,0.0288,0,0,0,0,0,0.023,0.0198,0.0133,0.0021,-0.0117,-0.0235,-0.0278,-0.024,-0.0149,-0.0075,-0.0064,-0.0128,-0.0246,-0.0326,-0.0411,-0.0502,-0.0699,-0.0812,-0.0593,-0.0262,0.0133,0.0464,0.0571,0.0331,0.032,0.0667,0.0603,0.0507,0.0379,0.0251,0,0,0,0,-0.0139,-0.0117,-0.0139,0,0,0,0,0,0,0,0,0,0,0,0,0,0,0,0,0,-0.0192,-0.0112,-0.0059,-0.0075,-0.0144,-0.024,-0.0288,-0.031,-0.0272,-0.0416,-0.0529,-0.0411,-0.047,-0.0251,0.008,0.0379,0.0598,0.0464,0.0208,0.0139,0.0379,0.0368,0.0128,0,0,0,0,0,0,0,0,0,0,0,0,0,0,0,0,0,0,0,0,0,0,0,0,0,0,-0.0085,-0.0123,-0.0203,-0.0262,-0.0272,-0.0262,-0.0214,-0.0192,-0.0427,-0.0107,-0.0069,0.0069,-0.0096,-0.0085,-0.0101,-0.0027,0.0149,-0.0192,-0.0347,-0.0448,-0.0603,0,0,0,0,0,0,0,0,0,0,0,0,0,0,0,0,0,0,0,0,0,0,0,0,0,0,0,0,-0.0256,-0.0299,-0.0288,-0.0246,-0.0171,-0.0069,-0.0064,-0.0064,0.0171,0.0481,0.0235,0.0144,0.0005,-0.031,-0.0368,-0.0016,0.023,-0.0123,-0.0849,0,0,0,0,0,0,0,0,0,0,0,0,0,0,0,0,0,0,0,0,0,0,0,0,0,0,0,0,0,-0.0379,-0.0342,-0.0219,-0.0064,0.0059,0.008,0.0101,0.0235,0.047,0.0721,0.039,0.0176,0.0139,0.0299,0.0203,-0.0304,-0.0422,-0.0304,0,0,0,0,0,0,0,0,0,0,0,0,0,0,0,0,0,0,0,0,0,0,0,0,0,0,0,0,0,0,0,0,0,0,0,0,0,0.0267,0.024,0.0454,0.0171,0.0096,0.0166,0.0294,0.0336,0.0192,-0.0027,0,0,0,0,0,0,0,0,0,0,0,0,0,0,0,0,0,0,0,0,0,0,0,0,0,0,0,0,0,0,0,0,0,0,0,0,0,0,0.0182,0.0107,0.0176,0.0219,0.0144,0.008,0.0176,-0.0267,-0.0251,0,0,0,0,0,0,0,0,0,0,0,0,0,0,0,0,0,0,0,0,0,0,0,0,0,0,0,0,0,0,0,0,0,0,0,0,0,0,0,0,0,0.0587,0.0742,0.0646,0.0272,0.0032,-0.0048,0,0,0,0,0,0,0,0,0,0,0,0,0,0,0,0,0,0,0,0,0,0,0,0,0,0,0,0,0,0,0,0,0,0,0,0,0,0,0,0,0,0,0,0,0.0497,0.0342,0.0059,0,0,0,0,0,0,0,0,0,0,0,0,0,0,0,0,0,0,0,0,0,0,0,0,0,0,0,0,0,0,0,0,0,0,0,0,0,0,0,0,0,0,0,0,0,0.0198,0.0005,0,0,0,0,0,0,0,0,0,0,0,0,0,0,0,0,0,0,0,0,0,0,0,0,0,0,0,0,0,0,0,0,0,0,0,0,0,0,0,0,0,0,0,0,0,0,0,0,0,0,0,0,0,0,0,0,0,0,0,0,0,0,0,0,0,0,0,0,0,0,0,0,0,0,0,0,0,0,0,0,0,0,0,0,0,0,0,0,0,0,0,0,0,0,0,0,0,0,0,0,0,0,0,0,0,0,0,0,0,0,0,0,0,0,0,0,0,0,0,0,0,0,0,0,0,0,0,0,0,0,0,0,0,0,0,0,0,0,0,0,0,0,0,0,0,0,0,0,0,0,0,0,0,0,0,0,0,0,0,0,0,0,0,0,0,0,0,0,0,0,0,0,0,0,0,0,0,0,0,0,0,0,0,0,0,0,0,0,0,0,0,0,0,0,0,0,0,0,0,0,0,0,0,0,0,0,0,0,0,0,0,0,0,0,0,0,0,0,0,0,0,0,0,0,0,0,0,0,0,0,0,0,0,0,0,0,0,0,0,0,0,0,0,0,0,0,0,0,0,0,0,0,0,0,0,0,0,0,0,0,0,0,0,0,0,0,0,0,0,0,0,0,0,0,0,0,0,0,0,0,0,0,0,0,0,0,0,0,0,0,0,0,0,0,0,0,0,0,0,0,0,0,0,0,0,0,0,0,0,0,0,0,0,0,0,0,0,0,0,0,0,0,0,0,0,0,0,0,0,0,0,0,0,0,0,0,0,0,0,0,0,0,0,0,0,0,0,0,0,0,0,0,0,0,0,0,0,0,0,0,0,0,0,0,0,0,0,0,0,0,0,0,0,0,0,0,0,0,0,0,0,0,0,0,0,0,0,0,0,0,0,0,0,0,0,0,0,0,0,0,0,0,0,0,0,0,0,0,0,0,0,0,0,0,0,0,0,0,0,0,0,0,0,0,0,0,0,0,0,0,0,0,0,0,0,0,0,0,0,0,0,0,0,0,0,0,0,0,0,0,0,0,0,0,0,0,0,0,0,0,0,0,0,0,0,0,0,0,0,0,0,0,0,0,0,0,0,0,0,0,0,0,0,0,0,0,0,0,0,0,0,0,0,0,0,0,0,0,0,0,0,0,0,0,0,0,0,0,0,0,0,0,0,0,0,0,0,0,0,0,0,0,0,0,0,0,0,0,0,0,0,0,0,0,0,0,0,0,0,0,0,0,0,0,0,0,0,0,0,0,0,0,0,0,0,0,0,0,0,0,0,0,0,0,0,0,0,0,0,0,0,0,0,0,0,0,0,0,0,0,0,0,0,0,0,0,0,0,0,0,0,0,0,0,0,0,0,0,0,0,0,0,0,0,0,0,0,0,0,0,0,0,0,0,0,0,0,0,0,0,0,0,0,0,0,0,0,0,0,0,0,0,0,0,0,0,0,0,0,0,0,0,0,0,0,0,0,0,0,0,0,0,0,0,0,0,0,0,0,0,0,0,0,0,0,0,0,0,0,0,0,0,0,0,0,0,0,0,0,0,0,0,0,0,0,0,0,0,0,0,0,0,0,0,0,0,0,0,0,0,0,0,0,0,0,0,0,0,0,0,0,0,0,0,0,0,0,0,0,0,0,0,0,0,0,0,0,0,0,0,0,0,0,0,0,0,0,0,0,0,0,0,0,0,0,0,0,0,0,0,0,0]}]],[[{"header":{"parameterUnit":"kt","parameterCategory":2,"dx":1,"dy":1,"la1":29.764190673828125,"la2":30.86408042907715,"lo1":-88.46762084960938,"lo2":-86.9344482421875,"nx":47,"ny":34,"refTime":"2022-10-07T00:00:00:Z","depth":"25","parameterNumber":2,"parameterNumberName":"U-component_of_CURRENTS"},"data":[-0.141,-0.1586,-0.1463,-0.1319,-0.1431,-0.1618,-0.166,-0.1426,-0.0929,-0.0561,-0.0593,-0.0956,-0.1127,-0.0667,-0.0411,-0.0523,-0.0432,-0.0358,-0.0315,-0.0342,-0.039,-0.0481,-0.0598,-0.0763,-0.087,-0.1143,-0.1506,-0.1773,-0.2034,-0.2376,-0.2306,-0.1858,-0.1671,-0.1383,-0.0988,-0.0635,-0.008,0.0523,0.095,0.1265,0.1698,0.1949,0.1906,0.1837,0.1655,0.1319,0.0881,-0.1879,-0.1927,-0.2088,-0.2125,-0.2136,-0.2056,-0.1623,-0.1105,-0.0747,-0.0667,-0.0977,-0.1308,-0.1164,-0.0619,-0.0416,-0.0379,-0.024,-0.0182,-0.0208,-0.023,-0.0384,-0.0603,-0.0619,-0.0747,-0.095,-0.1078,-0.1271,-0.1538,-0.1794,-0.1943,-0.1991,-0.2162,-0.1842,-0.1564,-0.1345,-0.0966,-0.0502,-0.0027,0.039,0.0737,0.1057,0.1292,0.1452,0.134,0.1111,0.0812,0.0662,-0.1959,-0.2104,-0.189,-0.2034,-0.1997,-0.1644,-0.1121,-0.0785,-0.0897,-0.118,-0.1463,-0.1404,-0.0747,-0.0262,-0.0182,-0.0149,-0.0187,-0.0176,-0.0192,-0.0235,-0.0283,-0.0486,-0.0502,-0.0459,-0.0368,-0.047,-0.0833,-0.1105,-0.1287,-0.1522,-0.1666,-0.1548,-0.181,-0.1789,-0.1431,-0.1068,-0.0769,-0.0448,-0.0144,0.0155,0.0491,0.0881,0.1148,0.1303,0.1361,0.134,0.1361,-0.1265,-0.2349,-0.2413,-0.2029,-0.1655,-0.1415,-0.134,-0.1538,-0.1682,-0.1698,-0.1436,-0.0801,-0.0379,-0.0176,0.0069,-0.0101,-0.0203,-0.0235,-0.0246,-0.0235,-0.0342,-0.0481,-0.0459,-0.031,-0.0128,-0.0144,-0.0352,-0.0769,-0.1169,-0.1308,-0.1591,-0.1778,-0.1415,-0.1148,-0.1361,-0.1244,-0.1036,-0.0705,-0.0406,0.0011,0.0539,0.1169,0.1767,0.2274,0.2461,0.2467,0.2349,-0.0443,-0.1095,-0.189,-0.22,-0.2104,-0.1959,-0.1826,-0.1682,-0.15,-0.1148,-0.063,-0.0358,-0.0214,0.0192,0.0085,-0.0219,-0.0304,-0.0331,-0.0299,-0.0251,-0.0278,-0.0513,-0.0593,-0.0411,-0.0133,0.0021,-0.0053,-0.0464,-0.0886,-0.1175,-0.1377,-0.1703,-0.2216,-0.2152,-0.1025,-0.0742,-0.0619,-0.0432,-0.0096,0.0171,0.0518,0.1089,0.1751,0.2419,0.2691,0.2819,0.2782,-0.0149,-0.0278,-0.0566,-0.0828,-0.0961,-0.0924,-0.0737,-0.0432,-0.0155,-0.0021,0.0107,0.0267,0.0267,-0.0032,-0.0304,-0.0395,-0.0406,-0.0368,-0.0294,-0.0192,-0.0085,0.0053,-0.0064,-0.0069,0.0192,0.0411,0.0422,0.0262,0.0,-0.0331,-0.0678,-0.0924,-0.1345,-0.213,-0.2803,-0.1735,-0.0427,-0.023,-0.0069,0.0214,0.0566,0.0993,0.1447,0.197,0.2509,0.2985,0.307,-0.0069,0.0053,0.0144,0.0091,0.0096,0.0224,0.0395,0.0427,0.031,0.0176,0.0005,-0.0208,0,0,0,0,0,-0.0347,-0.0256,-0.0149,-0.0016,0.0144,0.0374,0.0603,0.0673,0.0705,0.0705,0.0582,0.0347,0.0112,-0.0075,-0.024,-0.0315,-0.0614,-0.1367,-0.2643,-0.2504,-0.1292,-0.0139,0.0315,0.0587,0.0892,0.134,0.173,0.2205,0.2739,0.2846,-0.0139,-0.0171,-0.0198,-0.0149,-0.0075,-0.0107,-0.0224,0,0,0,0,0,0,0,0,0,0,0,0,0,0,0,0,0.0384,0.0454,0.0502,0.0529,0.0571,0.0603,0.0598,0.0507,0.0395,0.0336,0.0224,-0.0198,-0.1095,-0.2413,-0.2584,-0.2242,-0.0881,0.0251,0.0683,0.0977,0.1228,0.1618,0.1917,0.197,0,0,0,0,0,0,0,0,0,0,0,0,0,0,0,0,0,0,0,0,0,0,0,0,0,0,0.0288,0.0283,0.0283,0.032,0.0379,0.0422,0.0432,0.0331,-0.0016,-0.0422,-0.1324,-0.2237,-0.2461,-0.2856,-0.2274,-0.102,-0.0267,0.047,0.1046,0.1265,0.1447,0,0,0,0,0,0,0,0,0,0,0,0,0,0,0,0,0,0,0,0,0,0,0,0,0,0,0,0,0,0.0224,0.0235,0.0203,0.0149,0.0059,0.0005,-0.016,-0.0491,-0.1137,-0.1938,-0.2488,-0.2766,-0.2942,-0.2435,-0.1447,-0.1281,-0.0715,-0.0278,0,0,0,0,0,0,0,0,0,0,0,0,0,0,0,0,0,0,0,0,0,0,0,0,0,0,0,0,0,0,0,0,0,0.0251,0.031,0.0208,-0.0101,-0.0411,-0.0828,-0.1143,-0.15,-0.2061,-0.2435,-0.244,-0.2104,-0.1703,-0.1741,0,0,0,0,0,0,0,0,0,0,0,0,0,0,0,0,0,0,0,0,0,0,0,0,0,0,0,0,0,0,0,0,0,0,0,0,0,-0.0155,-0.0107,-0.0288,-0.0395,-0.04,-0.0395,-0.0849,-0.1676,-0.2173,-0.2301,0,0,0,0,0,0,0,0,0,0,0,0,0,0,0,0,0,0,0,0,0,0,0,0,0,0,0,0,0,0,0,0,0,0,0,0,0,0,-0.0176,-0.0048,-0.0032,-0.0021,-0.008,-0.0331,-0.0721,-0.1169,-0.1329,0,0,0,0,0,0,0,0,0,0,0,0,0,0,0,0,0,0,0,0,0,0,0,0,0,0,0,0,0,0,0,0,0,0,0,0,0,0,0,0.0016,0.0016,-0.0187,-0.0299,-0.0139,0.0059,0.0048,-0.0171,0,0,0,0,0,0,0,0,0,0,0,0,0,0,0,0,0,0,0,0,0,0,0,0,0,0,0,0,0,0,0,0,0,0,0,0,0,0,0,0,0,0,0,0,-0.0203,-0.0395,-0.0507,0,0,0,0,0,0,0,0,0,0,0,0,0,0,0,0,0,0,0,0,0,0,0,0,0,0,0,0,0,0,0,0,0,0,0,0,0,0,0,0,0,0,0,0,0,0,0,0,0,0,0,0,0,0,0,0,0,0,0,0,0,0,0,0,0,0,0,0,0,0,0,0,0,0,0,0,0,0,0,0,0,0,0,0,0,0,0,0,0,0,0,0,0,0,0,0,0,0,0,0,0,0,0,0,0,0,0,0,0,0,0,0,0,0,0,0,0,0,0,0,0,0,0,0,0,0,0,0,0,0,0,0,0,0,0,0,0,0,0,0,0,0,0,0,0,0,0,0,0,0,0,0,0,0,0,0,0,0,0,0,0,0,0,0,0,0,0,0,0,0,0,0,0,0,0,0,0,0,0,0,0,0,0,0,0,0,0,0,0,0,0,0,0,0,0,0,0,0,0,0,0,0,0,0,0,0,0,0,0,0,0,0,0,0,0,0,0,0,0,0,0,0,0,0,0,0,0,0,0,0,0,0,0,0,0,0,0,0,0,0,0,0,0,0,0,0,0,0,0,0,0,0,0,0,0,0,0,0,0,0,0,0,0,0,0,0,0,0,0,0,0,0,0,0,0,0,0,0,0,0,0,0,0,0,0,0,0,0,0,0,0,0,0,0,0,0,0,0,0,0,0,0,0,0,0,0,0,0,0,0,0,0,0,0,0,0,0,0,0,0,0,0,0,0,0,0,0,0,0,0,0,0,0,0,0,0,0,0,0,0,0,0,0,0,0,0,0,0,0,0,0,0,0,0,0,0,0,0,0,0,0,0,0,0,0,0,0,0,0,0,0,0,0,0,0,0,0,0,0,0,0,0,0,0,0,0,0,0,0,0,0,0,0,0,0,0,0,0,0,0,0,0,0,0,0,0,0,0,0,0,0,0,0,0,0,0,0,0,0,0,0,0,0,0,0,0,0,0,0,0,0,0,0,0,0,0,0,0,0,0,0,0,0,0,0,0,0,0,0,0,0,0,0,0,0,0,0,0,0,0,0,0,0,0,0,0,0,0,0,0,0,0,0,0,0,0,0,0,0,0,0,0,0,0,0,0,0,0,0,0,0,0,0,0,0,0,0,0,0,0,0,0,0,0,0,0,0,0,0,0,0,0,0,0,0,0,0,0,0,0,0,0,0,0,0,0,0,0,0,0,0,0,0,0,0,0,0,0,0,0,0,0,0,0,0,0,0,0,0,0,0,0,0,0,0,0,0,0,0,0,0,0,0,0,0,0,0,0,0,0,0,0,0,0,0,0,0,0,0,0,0,0,0,0,0,0,0,0,0,0,0,0,0,0,0,0,0,0,0,0,0,0,0,0,0,0,0,0,0,0,0,0,0,0,0,0,0,0,0,0,0,0,0,0,0,0,0,0,0,0,0,0,0,0,0,0,0,0,0,0,0,0,0,0,0,0,0,0,0,0,0,0,0,0,0,0,0,0,0,0,0,0,0,0,0,0,0,0,0,0,0,0,0,0,0,0,0,0,0,0,0,0,0,0,0,0,0,0,0,0,0,0,0,0,0,0,0,0,0,0,0,0,0,0,0,0,0,0,0,0,0,0,0,0,0,0,0,0,0,0,0,0,0,0,0,0,0,0,0,0,0,0,0,0,0,0,0,0,0,0,0,0,0,0,0,0,0,0,0,0,0,0,0,0,0,0,0,0,0,0,0,0,0,0,0,0,0,0,0,0,0,0,0,0,0,0,0,0,0,0,0,0,0,0,0,0,0,0,0,0,0,0,0,0,0,0,0,0,0,0,0,0,0,0,0,0,0,0,0,0,0,0,0,0,0,0,0,0,0,0,0,0,0,0,0,0,0,0,0,0,0,0,0,0,0,0,0,0,0,0,0,0,0,0,0,0,0,0,0,0,0,0,0,0,0,0,0,0,0,0,0,0,0,0,0,0,0,0,0,0,0,0,0,0,0,0,0,0,0,0,0,0,0,0,0,0,0,0,0,0,0,0,0]}],[{"header":{"parameterUnit":"kt","parameterCategory":2,"dx":1,"dy":1,"la1":29.764190673828125,"la2":30.86408042907715,"lo1":-88.46762084960938,"lo2":-86.9344482421875,"nx":47,"ny":34,"refTime":"2022-10-07T00:00:00:Z","depth":"25","parameterNumber":3,"parameterNumberName":"V-component_of_CURRENTS"},"data":[-0.1004,-0.0577,-0.0139,0.0283,0.063,0.0662,0.0198,-0.0379,-0.0651,-0.0876,-0.1303,-0.1308,-0.0625,0.0011,0.0336,0.0422,0.0299,0.0256,0.0262,0.0208,-0.0117,-0.0144,0.0117,0.0176,-0.0075,-0.1025,-0.1484,-0.1522,-0.1602,-0.1095,-0.0577,-0.0753,-0.0587,-0.0187,0.0075,0.0304,0.0438,0.0416,0.0395,0.0342,0.0107,-0.0192,-0.0577,-0.1009,-0.1538,-0.212,-0.2488,-0.0753,-0.0304,-0.0224,0.0198,0.039,0.0208,-0.0133,-0.0363,-0.0523,-0.0796,-0.0854,-0.0614,-0.0336,-0.0117,0.0315,0.0198,0.0166,0.0166,0.0272,0.0267,-0.0139,-0.0128,0.0208,0.0432,0.0123,-0.0977,-0.1148,-0.1191,-0.1329,-0.1287,-0.0972,-0.063,-0.0721,-0.0683,-0.0395,-0.0053,0.0069,0.0075,0.0149,0.0096,-0.0214,-0.0641,-0.102,-0.1458,-0.189,-0.2226,-0.2483,-0.0854,0.0016,-0.0037,-0.0027,0.0016,-0.0085,-0.008,-0.024,-0.0438,-0.0529,-0.0294,-0.0176,-0.0219,0.0021,-0.0027,-0.0005,0.0107,0.0192,0.032,0.0347,0.0075,-0.0064,0.0262,0.0667,0.0448,-0.078,-0.0977,-0.0908,-0.0998,-0.0982,-0.0897,-0.0918,-0.0651,-0.0384,-0.0545,-0.0513,-0.0283,-0.0048,0.0176,0.016,-0.0069,-0.0459,-0.0886,-0.1361,-0.1676,-0.1863,-0.204,-0.1004,-0.0347,0.0101,0.0235,0.0219,0.0144,-0.0011,-0.0155,-0.0267,-0.0256,-0.0037,0.0085,0.0043,0.0,-0.0224,0.0032,0.0133,0.0283,0.0416,0.0384,0.0171,-0.0043,0.0208,0.0651,0.0646,-0.0326,-0.0828,-0.0854,-0.103,-0.1164,-0.1223,-0.0828,-0.0726,-0.0603,-0.0294,-0.0304,-0.0459,-0.0363,-0.0021,0.016,0.0203,-0.0048,-0.0358,-0.0753,-0.0988,-0.1148,-0.1265,-0.0625,-0.0694,-0.0384,-0.0091,-0.008,-0.0198,-0.0363,-0.04,-0.0198,-0.0016,0.0053,0.0192,0.0059,-0.0166,-0.0048,0.0107,0.0251,0.0384,0.0454,0.0427,0.0342,0.0085,0.0117,0.0411,0.0534,0.0037,-0.0561,-0.0838,-0.095,-0.1164,-0.1554,-0.1634,-0.1228,-0.0406,-0.0166,-0.0379,-0.0075,0.0128,-0.0016,-0.0005,0.0171,0.0117,-0.0016,-0.0198,-0.0294,-0.0363,-0.0347,-0.0198,-0.0368,-0.039,-0.0347,-0.0347,-0.04,-0.0464,-0.0443,-0.0256,-0.0107,-0.008,-0.0037,-0.0043,0.0075,0.0128,0.0246,0.0347,0.0411,0.0432,0.0416,0.04,0.0342,0.0144,0.0133,0.0198,0.0133,-0.0182,-0.0555,-0.0635,-0.0657,-0.0982,-0.1399,-0.1463,-0.1041,-0.0182,0.0278,0.0139,0.0037,0.0464,0.0497,0.031,0.0267,0.0315,0.0267,0.0294,0.0347,0.0438,-0.0192,-0.0011,-0.0112,-0.0192,-0.024,-0.0304,-0.0347,-0.0315,-0.0219,-0.0128,0.0005,0.0123,0,0,0,0,0,0.0363,0.0347,0.032,0.0283,0.0224,0.0149,0.0016,0.0,0.0011,-0.0027,-0.0208,-0.0262,-0.0326,-0.0481,-0.0726,-0.0961,-0.102,-0.0828,-0.0283,0.0454,0.0288,0.0182,0.0379,0.0833,0.0886,0.0892,0.0806,0.0812,0.0886,0.102,-0.0085,-0.0021,0.0021,0.0048,-0.0021,-0.0123,-0.0208,0,0,0,0,0,0,0,0,0,0,0,0,0,0,0,0,-0.0224,-0.0192,-0.0112,-0.0053,-0.0005,-0.0064,-0.0133,-0.0171,-0.024,-0.039,-0.0566,-0.0737,-0.0897,-0.0513,0.0288,0.0731,0.0593,0.0545,0.0822,0.1169,0.1207,0.1185,0.1127,0.1057,0,0,0,0,0,0,0,0,0,0,0,0,0,0,0,0,0,0,0,0,0,0,0,0,0,0,-0.0053,-0.0032,-0.008,-0.0128,-0.0144,-0.0155,-0.0187,-0.0171,-0.0336,-0.0454,-0.0747,-0.0801,0.0059,0.0902,0.0934,0.0635,0.0715,0.1127,0.1233,0.1041,0.0737,0,0,0,0,0,0,0,0,0,0,0,0,0,0,0,0,0,0,0,0,0,0,0,0,0,0,0,0,0,-0.0214,-0.0262,-0.0278,-0.024,0.0053,-0.0117,-0.0133,-0.0117,-0.0374,-0.0769,-0.0619,0.0267,0.0737,0.0358,-0.0144,0.0155,0.0464,0.0491,0,0,0,0,0,0,0,0,0,0,0,0,0,0,0,0,0,0,0,0,0,0,0,0,0,0,0,0,0,0,0,0,0,-0.0011,0.0069,-0.0101,0.0166,0.0187,0.0043,-0.0278,-0.0614,-0.0448,0.0256,0.0539,0.0176,-0.0235,-0.0497,0,0,0,0,0,0,0,0,0,0,0,0,0,0,0,0,0,0,0,0,0,0,0,0,0,0,0,0,0,0,0,0,0,0,0,0,0,0.023,0.0278,0.0235,-0.0032,-0.0166,-0.0133,0.0016,0.0117,0.0203,-0.0091,0,0,0,0,0,0,0,0,0,0,0,0,0,0,0,0,0,0,0,0,0,0,0,0,0,0,0,0,0,0,0,0,0,0,0,0,0,0,0.0005,-0.0048,0.0117,0.0272,0.0144,-0.0198,-0.0166,-0.0005,0.0214,0,0,0,0,0,0,0,0,0,0,0,0,0,0,0,0,0,0,0,0,0,0,0,0,0,0,0,0,0,0,0,0,0,0,0,0,0,0,0,-0.0064,-0.0043,0.0075,0.0133,0.0187,0.024,0.0155,-0.0101,0,0,0,0,0,0,0,0,0,0,0,0,0,0,0,0,0,0,0,0,0,0,0,0,0,0,0,0,0,0,0,0,0,0,0,0,0,0,0,0,0,0,0,0,0.0064,0.0069,0.0166,0,0,0,0,0,0,0,0,0,0,0,0,0,0,0,0,0,0,0,0,0,0,0,0,0,0,0,0,0,0,0,0,0,0,0,0,0,0,0,0,0,0,0,0,0,0,0,0,0,0,0,0,0,0,0,0,0,0,0,0,0,0,0,0,0,0,0,0,0,0,0,0,0,0,0,0,0,0,0,0,0,0,0,0,0,0,0,0,0,0,0,0,0,0,0,0,0,0,0,0,0,0,0,0,0,0,0,0,0,0,0,0,0,0,0,0,0,0,0,0,0,0,0,0,0,0,0,0,0,0,0,0,0,0,0,0,0,0,0,0,0,0,0,0,0,0,0,0,0,0,0,0,0,0,0,0,0,0,0,0,0,0,0,0,0,0,0,0,0,0,0,0,0,0,0,0,0,0,0,0,0,0,0,0,0,0,0,0,0,0,0,0,0,0,0,0,0,0,0,0,0,0,0,0,0,0,0,0,0,0,0,0,0,0,0,0,0,0,0,0,0,0,0,0,0,0,0,0,0,0,0,0,0,0,0,0,0,0,0,0,0,0,0,0,0,0,0,0,0,0,0,0,0,0,0,0,0,0,0,0,0,0,0,0,0,0,0,0,0,0,0,0,0,0,0,0,0,0,0,0,0,0,0,0,0,0,0,0,0,0,0,0,0,0,0,0,0,0,0,0,0,0,0,0,0,0,0,0,0,0,0,0,0,0,0,0,0,0,0,0,0,0,0,0,0,0,0,0,0,0,0,0,0,0,0,0,0,0,0,0,0,0,0,0,0,0,0,0,0,0,0,0,0,0,0,0,0,0,0,0,0,0,0,0,0,0,0,0,0,0,0,0,0,0,0,0,0,0,0,0,0,0,0,0,0,0,0,0,0,0,0,0,0,0,0,0,0,0,0,0,0,0,0,0,0,0,0,0,0,0,0,0,0,0,0,0,0,0,0,0,0,0,0,0,0,0,0,0,0,0,0,0,0,0,0,0,0,0,0,0,0,0,0,0,0,0,0,0,0,0,0,0,0,0,0,0,0,0,0,0,0,0,0,0,0,0,0,0,0,0,0,0,0,0,0,0,0,0,0,0,0,0,0,0,0,0,0,0,0,0,0,0,0,0,0,0,0,0,0,0,0,0,0,0,0,0,0,0,0,0,0,0,0,0,0,0,0,0,0,0,0,0,0,0,0,0,0,0,0,0,0,0,0,0,0,0,0,0,0,0,0,0,0,0,0,0,0,0,0,0,0,0,0,0,0,0,0,0,0,0,0,0,0,0,0,0,0,0,0,0,0,0,0,0,0,0,0,0,0,0,0,0,0,0,0,0,0,0,0,0,0,0,0,0,0,0,0,0,0,0,0,0,0,0,0,0,0,0,0,0,0,0,0,0,0,0,0,0,0,0,0,0,0,0,0,0,0,0,0,0,0,0,0,0,0,0,0,0,0,0,0,0,0,0,0,0,0,0,0,0,0,0,0,0,0,0,0,0,0,0,0,0,0,0,0,0,0,0,0,0,0,0,0,0,0,0,0,0,0,0,0,0,0,0,0,0,0,0,0,0,0,0,0,0,0,0,0,0,0,0,0,0,0,0,0,0,0,0,0,0,0,0,0,0,0,0,0,0,0,0,0,0,0,0,0,0,0,0,0,0,0,0,0,0,0,0,0,0,0,0,0,0,0,0,0,0,0,0,0,0,0,0,0,0,0,0,0,0,0,0,0,0,0,0,0,0,0,0,0,0,0,0,0,0,0,0,0,0,0,0,0,0,0,0,0,0,0,0,0,0,0,0,0,0,0,0,0,0,0,0,0,0,0,0,0,0,0,0,0,0,0,0,0,0,0,0,0,0,0,0,0,0,0,0,0,0,0,0,0,0,0,0,0,0,0,0,0,0,0,0,0,0,0,0,0,0,0,0,0,0,0,0,0,0,0,0,0,0,0,0,0,0,0,0,0,0,0,0,0,0,0,0,0,0,0,0,0,0,0,0,0,0,0,0,0,0,0,0,0,0,0,0,0]}]]]